     2.10           OBSERVATION DATA    G (GPS)             RINEX VERSION / TYPE
teqc 2005May6 SOPAC 20050707 00:28:56UTC                    PGM / RUN BY / DATE
Linux 2.4.20-8|Pentium IV|gcc|Linux|486/DX+                 COMMENT
BIT 2 OF LLI FLAGS DATA COLLECTED UNDER A/S CONDITION       COMMENT
ROUND                                                       MARKER NAME
ROND                                                        MARKER NUMBER
Dave Mahan                                                  OBSERVER / AGENCY
0220160678 TRIMBLE 4700 1.30                                REC # / TYPE / VERS
0220159802 TRM33429.00+GP NONE                              ANT # / TYPE
 -2500355.0000 -4086224.0000  4199163.0000                  APPROX POSITION XYZ
        2.0000        0.0000        0.0000                  ANTENNA: DELTA H/E/N
     1     1                                                WAVELENGTH FACT L1/2
     6    L1    L2    C1    P2    P1    D1                  # / TYPES OF OBSERV
    15.0000                                                 INTERVAL
Northern California Height Modernization 2004               COMMENT
                                                            COMMENT
SOPAC - Scripps Orbit and Permanent Array Center            COMMENT
IGPP - Institute of Geophysics and Planetary Physics        COMMENT
SIO - Scripps Institution of Oceanography                   COMMENT
UCSD - University of California, San Diego                  COMMENT
                                                            COMMENT
email: archive@gpsmail.ucsd.edu                             COMMENT
ftp://garner.ucsd.edu                                       COMMENT
http://sopac.ucsd.edu                                       COMMENT
                                                            COMMENT
                                                            COMMENT
Approximate Lat, Lon : 41.427, -121.462                     COMMENT
                                                            COMMENT
SNR is mapped to RINEX snr flag value [0-9]                 COMMENT
L1 & L2: 2-19 dBHz = 1, 20-27 dBHz = 2, 28-31 dBHz = 3      COMMENT
32-35 dBHz = 4, 36-38 dBHz = 5, 39-41 dBHz = 6              COMMENT
42-44 dBHz = 7, 45-48 dBHz = 8, >= 49 dBHz = 9              COMMENT
  2004     9     8    14    46    0.0000000     GPS         TIME OF FIRST OBS
                                                            END OF HEADER
 04  9  8 14 46  0.0000000  0  7G 1G11G14G15G19G22G25
   -137447.11758    -95928.76053  23358212.0164   23358207.1134
      3025.2344
   -111041.10359    -78189.49455  22561608.5314   22561602.4304
      2451.2034
     55713.45059     33010.49557  20511597.5944   20511591.0234
     -1246.8914
    154948.07159    100530.02455  22296369.0634   22296363.9384
     -3419.7974
     98462.24558     61895.24255  22916092.1484   22916086.1374
     -2196.5624
     93949.74659     59804.86656  22134932.8134   22134924.7704
     -2091.1254
   -139731.58058    -97634.05954  22937740.8364   22937736.2934
      3103.2504
 04  9  8 14 46 15.0000000  0  7G 1G11G14G15G19G22G25
   -182805.66548   -131273.09243  23349580.0784   23349576.0514
      3021.8284
   -147774.18549   -106812.67345  22554618.6884   22554612.0354
      2445.7034
     74460.81749     47618.82547  20515165.3054   20515159.1994
     -1253.5474
    206275.29149    140525.21245  22306136.6024   22306131.6564
     -3424.5314
    131450.03348     87599.97845  22922369.8914   22922363.0634
     -2202.6414
    125330.90349     84257.69746  22140904.5474   22140896.8204
     -2093.8124
   -186262.06848   -133891.57144  22928886.0554   22928881.8484
      3100.0004
 04  9  8 14 46 30.0000000  0  7G 1G11G14G15G19G22G25
   -228103.58548   -166570.17843  23340960.1644   23340955.5634
      3017.2194
   -184416.37949   -135365.05145  22547645.7344   22547639.1334
      2439.1094
     93315.75549     62310.97347  20518752.8834   20518745.9804
     -1261.1564
    257681.86949    180582.25345  22315918.6094   22315913.6684
     -3430.3594
    164537.48648    113382.37245  22928666.6954   22928659.5984
     -2209.7034
    156759.56749    108747.53446  22146885.3204   22146877.4264
     -2097.4534
   -232735.73848   -170104.81644  22920043.3134   22920038.7114
      3095.7814
 04  9  8 14 46 45.0000000  0  7G 1G11G14G15G19G22G25
   -273328.54648   -201810.40943  23332353.6724   23332349.8444
      3012.0474
   -220955.28849   -163836.94045  22540692.5554   22540685.8874
      2432.0314
    112290.13149     77096.18547  20522363.9844   20522357.0784
     -1269.4374
    309179.73149    220710.41145  22325718.6094   22325713.5664
     -3436.6724
    197736.45248    139251.67945  22934983.9534   22934977.0434
     -2217.4374
    188247.92149    133283.88946  22152877.3054   22152869.6804
     -2101.6874
   -279140.12348   -206264.06844  22911212.6254   22911207.7974
      3090.8284
 04  9  8 14 47  0.0000000  0  7G 1G11G14G15G19G22G25
   -318464.84648   -236981.54043  23323765.0004   23323760.6024
      3005.9064
   -257375.06249   -192215.99045  22533762.0084   22533756.1174
      2423.8444
    131399.25249     91986.40447  20526000.1024   20525993.2774
     -1278.6094
    360784.24849    260921.66945  22335538.6094   22335533.5824
     -3444.0474
    231062.06748    165219.63845  22941325.9614   22941319.4264
     -2226.2664
    219811.53449    157878.88946  22158883.5004   22158876.2734
     -2106.9534
   -325459.16848   -242356.81744  22902398.3834   22902393.8014
      3084.8444
 04  9  8 14 47 15.0000000  0  7G 1G11G14G15G19G22G25
   -363502.66148   -272075.94243  23315194.4534   23315190.4104
      2999.1884
   -293665.60449   -220494.33945  22526856.6954   22526849.5784
      2415.0314
    150652.70349    106989.06347  20529664.0554   20529657.5944
     -1288.4224
    412504.83849    301223.40345  22345380.7664   22345376.1254
     -3451.9064
    264523.57548    191293.52245  22947692.8444   22947686.3914
     -2235.3754
    251460.06549    182540.06946  22164906.4224   22164898.8204
     -2112.8284
   -371682.87448   -278375.26744  22893601.8914   22893597.4144
      3078.4224
 04  9  8 14 47 30.0000000  0  7G 1G11G14G15G19G22G25
   -408440.53648   -307092.46443  23306643.4534   23306639.0354
      2992.6724
   -329825.49949   -248670.88745  22519975.1094   22519968.4804
      2406.5314
    170051.55349    122105.03647  20533355.4924   20533348.8524
     -1297.8444
    464342.45249    341616.29445  22355244.6644   22355240.3634
     -3459.5164
    298122.01948    217474.09845  22954086.7424   22954080.1174
     -2244.1724
    283194.73349    207268.35246  22170945.2584   22170937.6054
     -2118.2974
   -417809.69048   -314318.22544  22884824.4064   22884819.6024
      3072.1564
 04  9  8 14 47 45.0000000  0  7G 1G11G14G15G19G22G25
   -453275.03848   -342028.45243  23298111.6724   23298107.6334
      2985.3284
   -365851.06749   -276742.77745  22513119.7734   22513113.3244
      2396.9694
    189598.87249    137336.69747  20537075.1174   20537068.8984
     -1308.2344
    516300.20649    382102.82645  22365132.4614   22365127.7734
     -3468.0164
    331860.29648    243763.63945  22960506.7274   22960499.8834
     -2254.0314
    315018.78949    232066.30146  22177001.1024   22176993.1564
     -2124.7814
   -463836.08648   -350182.94444  22876065.8134   22876060.9964
      3064.9064
 04  9  8 14 48  0.0000000  0  7G 1G11G14G15G19G22G25
   -498004.91148   -376882.90143  23289599.4614   23289595.5904
      2978.3754
   -401740.84249   -304708.82945  22506290.1254   22506283.7664
      2388.0004
    209295.53849    152684.73347  20540823.3054   20540817.0594
     -1318.1724
    568378.89649    422683.57945  22375042.5084   22375038.1374
     -3476.1254
    365739.23748    270162.77645  22966953.5944   22966946.8794
     -2263.4224
    346933.39249    256934.80246  22183074.2974   22183066.2464
     -2130.7974
   -509760.44648   -385968.14944  22867326.3444   22867321.6454
      3058.1094
 04  9  8 14 48 15.0000000  0  7G 1G11G14G15G19G22G25
   -542632.11048   -411657.33943  23281107.0784   23281103.5864
      2971.7664
   -437496.90249   -332570.71145  22499485.6254   22499479.4694
      2379.3914
    229138.98349    168147.14547  20544599.3444   20544593.0234
     -1327.6724
    620576.08749    463356.68245  22384975.6024   22384971.2814
     -3483.6094
    399756.30548    296669.53945  22973427.3914   22973420.1134
     -2272.3124
    378936.27449    281872.09646  22189163.8914   22189157.1024
     -2136.3754
   -555584.59248   -421675.26044  22858606.2274   22858601.7934
      3051.7194
 04  9  8 14 48 30.0000000  0  7G 1G11G14G15G19G22G25
   -587161.21548   -446355.34243  23272633.4064   23272630.1884
      2965.3284
   -473123.60649   -360331.78245  22492706.6174   22492700.2734
      2370.6414
    249124.43949    183720.21747  20548402.8134   20548396.1414
     -1337.2034
    672886.92149    504118.33745  22394929.9384   22394925.6914
     -3491.2664
    433906.52448    323280.07145  22979925.8674   22979918.8094
     -2281.2344
    411022.78249    306874.54546  22195270.0554   22195262.8554
     -2142.0004
   -601312.90748   -457307.70244  22849904.5314   22849900.3914
      3045.2344
 04  9  8 14 48 45.0000000  0  7G 1G11G14G15G19G22G25
   -631594.92948   -480979.00043  23264178.1564   23264174.5634
      2959.2344
   -508623.56549   -387994.08745  22485950.7814   22485944.8594
      2362.5784
    269248.81349    199401.54147  20552232.1414   20552225.4614
     -1346.0314
    725308.25148    544966.07645  22404905.2034   22404901.2504
     -3498.2194
    468186.58548    349991.78545  22986449.0944   22986442.2234
     -2289.3914
    443189.97049    331939.86946  22201391.1564   22201383.5164
     -2147.0004
   -646947.90648   -492867.41444  22841221.0234   22841215.8444
      3039.3914
 04  9  8 14 49  0.0000000  0  7G 1G11G14G15G19G22G25
   -675933.97648   -515528.92743  23255741.1334   23255737.0204
      2952.6564
   -543997.23649   -415557.99245  22479219.4534   22479213.3594
      2353.9064
    289511.03449    215190.26747  20556087.8834   20556081.2664
     -1355.5314
    777838.93449    585899.03845  22414901.4694   22414897.1954
     -3505.8124
    502595.35948    376803.77545  22992996.9384   22992990.3094
     -2298.2974
    475436.99549    357067.39746  22207527.6804   22207520.0084
     -2152.5784
   -692490.14248   -528354.85244  22832554.5234   22832549.4384
      3032.8594
 04  9  8 14 49 15.0000000  0  7G 1G11G14G15G19G22G25
   -720180.36448   -550006.62743  23247321.3594   23247317.5234
      2946.8284
   -579246.59349   -443025.02245  22472512.2114   22472505.7114
      2345.9224
    309908.65649    231084.50747  20559969.4384   20559963.2304
     -1364.2194
    830476.56149    626915.33745  22424918.3594   22424913.7624
     -3512.5314
    537130.17848    403713.99245  22999568.8054   22999562.1604
     -2306.3284
    507761.63749    382255.41946  22213678.5784   22213671.2234
     -2157.3914
   -737941.47748   -563771.45844  22823905.6484   22823900.6994
      3027.2034
 04  9  8 14 49 30.0000000  0  7G 1G11G14G15G19G22G25
   -764338.59848   -584415.64043  23238918.5164   23238914.7274
      2941.0784
   -614375.96349   -470398.55945  22465827.0314   22465820.9804
      2338.0314
    330436.94049    247080.56647  20563875.7974   20563869.1724
     -1372.8914
    883216.17448    668011.10945  22434954.4224   22434949.6604
     -3519.2664
    571786.24848    430718.68145  23006163.7274   23006157.2894
     -2314.3284
    540159.30949    407500.33646  22219844.2424   22219836.4224
     -2162.1724
   -783306.07848   -599120.49144  22815272.7274   22815268.1174
      3021.4534
 04  9  8 14 49 45.0000000  0  7G 1G11G14G15G19G22G25
   -808400.49848   -618749.57243  23230533.5164   23230529.0944
      2933.3284
   -649376.97349   -497672.06945  22459166.5084   22459159.8914
      2328.1884
    351103.64349    263184.49547  20567808.5474   20567801.8554
     -1383.3124
    936065.62148    709192.45345  22445011.7274   22445007.0784
     -3527.8444
    606571.16148    457823.79245  23012783.3524   23012776.3834
     -2324.1564
    572638.03649    432808.41346  22226024.8364   22226016.8714
     -2168.8284
   -828575.58048   -634395.40444  22806658.4064   22806653.4614
      3013.9224
 04  9  8 14 50  0.0000000  0  7G 1G11G14G15G19G22G25
   -852358.17748   -653002.31043  23222168.3284   23222164.0084
      2927.9534
   -684241.62549   -524839.33245  22452532.1174   22452525.5044
      2320.6724
    371916.28249    279402.12447  20571768.9774   20571762.2504
     -1391.4694
    989032.47548    750465.28445  22455090.7814   22455085.9304
     -3534.1874
    641492.37448    485035.08645  23019428.0394   23019421.4344
     -2331.7194
    605205.52849    458185.67146  22232222.0474   22232213.9454
     -2173.2034
   -873741.84848   -669589.87844  22798063.3914   22798058.7504
      3008.5164
 04  9  8 14 50 15.0000000  0  7G 1G11G14G15G19G22G25
   -896235.81747   -687192.67243  23213818.7034   23213814.7624
      2922.3134
   -718993.99649   -551919.11345  22445918.9304   22445912.5824
      2312.9694
    392850.29749    295714.33647  20575752.4534   20575745.4614
     -1399.7664
   1042092.03848    791810.35844  22465187.4304   22465182.8674
     -3540.5004
    676525.18648    512333.33345  23026094.6884   23026087.7584
     -2339.2814
    637837.47849    483613.13746  22238431.5004   22238423.7034
     -2177.7344
   -918828.92248   -704722.65644  22789483.6564   22789479.0704
      3003.0004
 04  9  8 14 50 30.0000000  0  7G 1G11G14G15G19G22G25
   -940032.79248   -721320.18343  23205484.5234   23205480.5004
      2917.3444
   -753633.35749   -578910.82745  22439327.2734   22439321.3714
      2305.7664
    413905.93749    312121.32247  20579759.8674   20579752.8524
     -1407.5004
   1095244.50648    833227.83344  22475302.1644   22475297.5784
     -3546.3124
    711669.64848    539718.61644  23032782.7344   23032775.1994
     -2346.4374
    670534.19149    509091.07446  22244653.6334   22244645.8794
     -2181.6724
   -963836.01048   -739793.09744  22780919.1414   22780914.4774
      2998.0004
 04  9  8 14 50 45.0000000  0  7G 1G11G14G15G19G22G25
   -983752.79848   -755387.71543  23197164.4924   23197160.6054
      2912.3134
   -788163.30349   -605817.28645  22432756.2034   22432749.8674
      2298.5004
    435079.04249    328619.83047  20583788.6564   20583781.9224
     -1415.2814
   1148485.80648    874714.52844  22485433.4924   22485429.0634
     -3552.2194
    746921.57048    567187.61645  23039490.7194   23039483.8984
     -2353.5624
    703291.91249    534616.55746  22250887.0554   22250879.7504
     -2185.7504
  -1008766.65848   -774803.96444  22772368.7814   22772364.5274
      2992.9534
 04  9  8 14 51  0.0000000  0  7G 1G11G14G15G19G22G25
  -1027399.07548   -789397.80343  23188859.0084   23188855.2664
      2907.2664
   -822586.87149   -632640.84745  22426205.7664   22426199.4494
      2291.3754
    456366.08649    345207.13347  20587839.2424   20587832.7344
     -1422.9224
   1201812.24748    916267.56245  22495581.7274   22495577.1294
     -3557.8914
    782277.30748    594737.51245  23046219.3444   23046212.3014
     -2360.4534
    736107.18649    560186.88946  22257131.7814   22257124.3874
     -2189.6414
  -1053623.80248   -809757.56944  22763832.4454   22763828.6024
      2988.0314
 04  9  8 14 51 15.0000000  0  7G 1G11G14G15G19G22G25
  -1070971.35348   -823350.24543  23180567.5084   23180563.7464
      2902.1724
   -856903.65349   -659381.20445  22419675.5634   22419668.9454
      2284.1724
    477767.05949    361883.20947  20591911.9144   20591905.1914
     -1430.6724
   1255223.81448    957886.93545  22505745.0084   22505740.8754
     -3563.7194
    817736.67948    622368.14945  23052966.5164   23052959.8874
     -2367.5474
    768980.17749    585802.18446  22263387.2664   22263379.4384
     -2193.5944
  -1098406.98348   -844653.53544  22755310.9614   22755306.6804
      2982.9844
 04  9  8 14 51 30.0000000  0  7G 1G11G14G15G19G22G25
  -1114470.52748   -857245.69343  23172289.5634   23172285.6524
      2897.6884
   -891114.48149   -686038.98945  22413165.5234   22413159.0164
      2277.3914
    499280.64349    378647.02947  20596005.8984   20595999.0864
     -1437.8124
   1308719.14348    999571.57544  22515925.1094   22515920.8674
     -3568.9224
    853298.08748    650078.30844  23059733.7034   23059726.6564
     -2373.9694
    801909.76149    611461.58746  22269653.3984   22269645.6254
     -2196.9534
  -1143116.97248   -879492.47045  22746803.4304   22746798.6054
      2978.4064
 04  9  8 14 51 45.0000000  0  7G 1G11G14G15G19G22G25
  -1157897.78148   -891085.10544  23164026.5314   23164022.3164
      2892.7974
   -925220.35549   -712614.99845  22406675.0864   22406668.8794
      2270.3284
    520905.25749    395497.37247  20600120.6724   20600114.3244
     -1445.2344
   1362296.60148   1041320.20745  22526120.7344   22526116.1414
     -3574.4534
    888959.89348    677866.69945  23066519.9304   23066512.9384
     -2380.7814
    834894.51049    637163.97546  22275930.6334   22275922.4304
     -2200.7034
  -1187754.74548   -914275.13445  22738308.9614   22738304.8524
      2973.5164
 04  9  8 14 52  0.0000000  0  7G 1G11G14G15G19G22G25
  -1201255.47348   -924870.30844  23155775.4454   23155771.1174
      2887.8914
   -959223.43949   -739110.92145  22400204.7734   22400198.5084
      2263.1724
    542638.15249    412432.08147  20604256.5314   20604249.7234
     -1452.7194
   1415953.45548   1083130.70445  22536330.9224   22536327.0274
     -3579.9694
    924719.29048    705731.13744  23073324.7504   23073318.2074
     -2387.4374
    867932.00749    662907.45546  22282217.4064   22282209.7384
     -2204.4694
  -1232322.53348   -949003.26644  22729827.6954   22729823.8014
      2968.6414
 04  9  8 14 52 15.0000000  0  7G 1G11G14G15G19G22G25
  -1244542.65648   -958600.56944  23147538.3984   23147534.3674
      2883.6254
   -993122.64249   -765525.88845  22393754.0944   22393747.0394
      2256.6564
    564479.89549    429451.61047  20608412.7894   20608406.2974
     -1459.5784
   1469690.27248   1125003.51544  22546557.2664   22546552.4804
     -3584.8444
    960576.73348    733671.97345  23080147.7504   23080141.7584
     -2393.5624
    901023.06449    688692.67246  22288514.1804   22288506.3674
     -2207.5944
  -1276819.15348   -983675.94145  22721360.2034   22721355.3914
      2964.2664
 04  9  8 14 52 30.0000000  0  7G 1G11G14G15G19G22G25
  -1287762.99948   -992278.75843  23139313.3364   23139309.1804
      2879.1094
  -1026921.59249   -791862.73145  22387322.2114   22387315.8524
      2249.8444
    586426.49549    446552.85147  20612589.5864   20612582.8164
     -1466.6874
   1523503.01948   1166935.48944  22556797.0164   22556792.6294
     -3590.0474
    996528.05948    761685.97544  23086989.5944   23086982.9614
     -2399.9534
    934163.78349    714516.58846  22294820.3284   22294812.8914
     -2211.0944
  -1321247.98948  -1018295.80545  22712906.1644   22712901.2934
      2959.6254
 04  9  8 14 52 45.0000000  0  7G 1G11G14G15G19G22G25
  -1330913.01948  -1025902.12943  23131102.7194   23131098.6604
      2874.3284
  -1060616.73149   -818118.68945  22380909.8594   22380903.6954
      2242.7974
    608481.04649    463738.21447  20616785.7344   20616779.5664
     -1474.0004
   1577394.73848   1208929.00244  22567052.6804   22567048.3674
     -3595.4844
   1032576.32048    789775.50344  23093848.8834   23093842.5554
     -2406.5624
    967357.59649    740381.88446  22301137.0084   22301129.1994
     -2214.8284
  -1365605.35448  -1052859.95345  22704465.1484   22704460.2664
      2954.6414
 04  9  8 14 53  0.0000000  0  7G 1G11G14G15G19G22G25
  -1373994.55448  -1059472.15543  23122904.2194   23122900.1684
      2869.8594
  -1094209.74949   -844295.07145  22374517.5164   22374511.2584
      2236.1254
    630641.41049    481006.01247  20621002.7504   20620996.4924
     -1480.8124
   1631363.10648   1250982.22844  22577322.5634   22577317.9964
     -3600.4064
   1068719.04548    817938.65044  23100727.0234   23100720.6684
     -2412.6564
   1000602.45049    766286.94646  22307463.6564   22307455.3914
     -2217.9844
  -1409892.94848  -1087369.75344  22696037.0554   22696032.2304
      2950.1724
 04  9  8 14 53 15.0000000  0  7G 1G11G14G15G19G22G25
  -1417010.68848  -1092991.21344  23114718.8134   23114714.8554
      2865.6564
  -1127703.54249   -870394.13745  22368143.7584   22368137.1134
      2229.6724
    652904.06849    498353.53147  20625239.2344   20625233.1134
     -1487.4844
   1685404.76948   1293092.58744  22587606.0944   22587601.6054
     -3605.1094
   1104952.75248    846172.67144  23107622.3204   23107615.1484
     -2418.5474
   1033895.03449    792229.20746  22313798.9384   22313790.9304
     -2221.0164
  -1454113.65148  -1121827.41744  22687621.4694   22687617.0864
      2945.8914
 04  9  8 14 53 30.0000000  0  7G 1G11G14G15G19G22G25
  -1459960.49847  -1126458.61844  23106545.4534   23106541.7774
      2860.9384
  -1161097.05549   -896415.06245  22361789.5394   22361782.6804
      2222.7504
    675269.51249    515781.15147  20629494.8594   20629488.5634
     -1494.6094
   1739520.21948   1335260.41544  22597903.8674   22597899.6254
     -3610.3594
   1141277.83448    874477.91044  23114534.4384   23114527.7934
     -2424.9224
   1067236.11449    818209.24646  22320143.7424   22320135.9844
     -2224.5474
  -1498266.33948  -1156232.09144  22679219.6024   22679214.6524
      2941.0784
 04  9  8 14 53 45.0000000  0  7G 1G11G14G15G19G22G25
  -1502843.35348  -1159873.83544  23098385.0004   23098381.9144
      2856.7974
  -1194389.51849   -922357.24845  22355454.2344   22355447.8324
      2216.2974
    697738.12849    533289.14647  20633770.9454   20633765.0634
     -1501.1724
   1793709.68448   1377485.93944  22608215.4694   22608211.2034
     -3614.9374
   1177694.47248    902854.47244  23121464.0944   23121457.2504
     -2430.6254
   1100626.13149    844227.42246  22326497.4924   22326489.7624
     -2227.4844
  -1542350.19648  -1190583.13844  22670831.1094   22670826.1564
      2936.7664
 04  9  8 14 54  0.0000000  0  7G 1G11G14G15G19G22G25
  -1545663.32948  -1193240.03944  23090236.9924   23090233.6764
      2852.6564
  -1227584.69149   -948223.61645  22349137.2504   22349131.0984
      2209.9224
    720305.50549    550874.10847  20638065.3914   20638059.2894
     -1507.6564
   1847968.65548   1419765.62044  22618540.7664   22618536.6334
     -3619.4064
   1214198.08648    931298.82845  23128410.9454   23128403.8634
     -2436.3594
   1134061.03849    870280.57746  22332859.3524   22332852.2384
     -2230.3284
  -1586368.87148  -1224883.39444  22662454.4534   22662449.4734
      2932.5164
 04  9  8 14 54 15.0000000  0  7G 1G11G14G15G19G22G25
  -1588417.85748  -1226555.24044  23082100.9454   23082097.6414
      2848.1094
  -1260680.08749   -974012.24246  22342839.2504   22342832.9534
      2203.0634
    742973.61249    568537.56847  20642378.9534   20642372.7464
     -1514.4844
   1902299.18048   1462101.06844  22628880.0634   22628875.5554
     -3624.3284
   1250790.58948    959812.44344  23135373.8834   23135367.4924
     -2442.4224
   1167543.08149    896370.46746  22339231.0784   22339223.5514
     -2233.6414
  -1630319.89148  -1259130.91844  22654091.0004   22654086.4414
      2927.8594
 04  9  8 14 54 30.0000000  0  7G 1G11G14G15G19G22G25
  -1631106.04948  -1259818.77444  23073977.7894   23073974.0084
      2843.8914
  -1293674.60549   -999722.26345  22336560.7894   22336554.8404
      2196.4844
    765743.13649    586280.04247  20646711.7274   20646705.2974
     -1521.0624
   1956701.81948   1504492.68644  22639232.2424   22639228.0084
     -3629.0004
   1287472.42548    988395.66144  23142353.8674   23142347.2974
     -2448.1724
   1201073.04749    922497.69146  22345611.9224   22345604.1374
     -2236.7034
  -1674202.23048  -1293324.93344  22645740.7974   22645735.7504
      2923.4694
 04  9  8 14 54 45.0000000  0  7G 1G11G14G15G19G22G25
  -1673732.27048  -1293034.01244  23065866.4304   23065862.3984
      2839.6254
  -1326572.46249  -1025356.97045  22330300.4614   22330294.4654
      2189.9224
    788609.34849    604097.85747  20651063.4454   20651056.6844
     -1527.6414
   2011171.91248   1546936.86844  22649597.4924   22649593.2114
     -3633.6414
   1324238.73348   1017044.72744  23149350.1724   23149343.7504
     -2453.9844
   1234646.41249    948658.73346  22352000.3754   22351992.7854
     -2239.7034
  -1718019.94448  -1327468.58344  22637401.8134   22637397.3484
      2918.9534
 04  9  8 14 55  0.0000000  0  7G 1G11G14G15G19G22G25
  -1716295.03148  -1326199.77544  23057766.5234   23057763.0434
      2835.2974
  -1359372.11649  -1050915.13645  22324058.9844   22324052.5354
      2183.2504
    811573.34649    621991.87647  20655433.3204   20655426.5704
     -1534.2504
   2065710.42048   1589434.37144  22659975.8204   22659971.6994
     -3638.2974
   1361090.61048   1045760.45044  23156362.9144   23156356.8674
     -2459.8124
   1268264.42349    974854.57346  22358397.4774   22358390.3594
     -2242.7664
  -1761771.25148  -1361560.50545  22629076.6414   22629072.3634
      2914.4844
 04  9  8 14 55 15.0000000  0  7G 1G11G14G15G19G22G25
  -1758793.35048  -1359315.37244  23049679.5944   23049675.1254
      2831.0944
  -1392072.43649  -1076395.91746  22317836.5234   22317830.0984
      2176.7194
    834635.60349    639962.44947  20659821.9844   20659815.3954
     -1540.7344
   2120317.88948   1631985.60944  22670367.4384   22670363.1134
     -3642.8284
   1398028.38148   1074543.10144  23163392.1334   23163385.5314
     -2465.3914
   1301927.83049   1001085.77646  22364803.9614   22364796.3484
     -2245.7194
  -1805455.19548  -1395599.92545  22620763.8054   22620758.9304
      2909.9694
 04  9  8 14 55 30.0000000  0  7G 1G11G14G15G19G22G25
  -1801229.25448  -1392382.28844  23041604.0554   23041599.8134
      2827.0004
  -1424675.25849  -1101800.71945  22311631.8984   22311626.0204
      2170.2344
    857793.89349    658007.87347  20664228.5554   20664222.0664
     -1547.0784
   2174992.08748   1674588.84144  22680771.8914   22680767.3324
     -3647.1724
   1435049.62748   1103390.79444  23170437.6254   23170431.0634
     -2470.8124
   1335634.70049   1027350.85346  22371217.9064   22371210.3674
     -2248.5624
  -1849073.38548  -1429588.10745  22612463.8284   22612458.5274
      2905.7504
 04  9  8 14 55 45.0000000  0  7G 1G11G14G15G19G22G25
  -1843600.85748  -1425399.11444  23033540.7974   23033536.4304
      2822.6094
  -1457178.68949  -1127128.07845  22305446.8284   22305440.2664
      2163.5474
    881049.64249    676129.22947  20668653.9454   20668647.3674
     -1553.6874
   2229734.42048   1717245.16944  22691189.0634   22691184.6374
     -3651.8124
   1472155.71848   1132304.60744  23177498.5704   23177491.8834
     -2476.5784
   1369386.68549   1053651.08346  22377641.2344   22377633.5124
     -2251.6874
  -1892623.74548  -1463523.42645  22604175.9384   22604171.3244
      2901.0784
 04  9  8 14 56  0.0000000  0  7G 1G11G14G15G19G22G25
  -1885908.85948  -1458366.38644  23025490.3754   23025485.6524
      2818.5314
  -1489583.12049  -1152378.27945  22299280.5084   22299274.0474
      2157.0784
    904401.82449    694325.73447  20673097.9384   20673091.2894
     -1559.8914
   2284543.78648   1759953.72444  22701619.1414   22701614.0474
     -3656.0624
   1509345.45048   1161283.59444  23184575.6804   23184568.3984
     -2481.9844
   1403182.82849   1079985.72446  22384072.1724   22384064.2734
     -2254.4534
  -1936106.84348  -1497406.33645  22595901.7424   22595897.4184
      2896.7504
 04  9  8 14 56 15.0000000  0  7G 1G11G14G15G19G22G25
  -1928156.13948  -1491286.33144  23017450.6414   23017447.2384
      2814.5474
  -1521891.32249  -1177553.50745  22293132.7274   22293126.1724
      2150.7504
    927847.20749    712594.85647  20677559.1954   20677552.4844
     -1566.0004
   2339416.86748   1802711.93244  22712060.9924   22712056.0084
     -3660.2034
   1546615.45648   1190325.12244  23191667.9694   23191661.2344
     -2487.1564
   1437020.23649   1106352.52246  22390511.0164   22390503.2274
     -2257.0314
  -1979525.41248  -1531238.98445  22587639.4844   22587634.5354
      2892.5784
 04  9  8 14 56 30.0000000  0  7G 1G11G14G15G19G22G25
  -1970342.66548  -1524158.93644  23009423.1564   23009418.9884
      2810.4224
  -1554103.17949  -1202653.65445  22287002.7274   22286997.1484
      2144.1884
    951385.54849    730936.41547  20682038.4774   20682031.9804
     -1572.3594
   2394353.28848   1845519.49244  22722514.7424   22722510.2154
     -3664.5314
   1583965.30548   1219428.87344  23198775.6884   23198768.5554
     -2492.6564
   1470898.71349   1132751.31646  22396958.1954   22396950.2544
     -2259.8914
  -2022879.18748  -1565021.13845  22579389.5944   22579384.1884
      2888.0164
 04  9  8 14 56 45.0000000  0  7G 1G11G14G15G19G22G25
  -2012467.91448  -1556983.79844  23001406.4694   23001403.3054
      2806.4064
  -1586218.06549  -1227678.25445  22280891.4924   22280885.3954
      2137.7974
    975017.06449    749350.56947  20686535.7424   20686529.1294
     -1578.4694
   2449353.14348   1888376.48144  22732981.1094   22732976.6644
     -3668.6724
   1621394.90748   1248594.78144  23205897.8134   23205890.8204
     -2497.8594
   1504818.63348   1159182.40546  22403412.7974   22403405.3364
     -2262.6414
  -2066167.40248  -1598752.18945  22571151.5314   22571147.5314
      2883.7504
 04  9  8 14 57  0.0000000  0  7G 1G11G14G15G19G22G25
  -2054531.96148  -1589760.97344  22993402.2814   22993398.5124
      2802.2504
  -1618235.76449  -1252627.11645  22274798.9694   22274792.3524
      2131.3594
    998741.13749    767836.85147  20691049.9774   20691043.5664
     -1584.6414
   2504415.99248   1931282.55944  22743459.2114   22743454.5004
     -3672.8284
   1658903.81548   1277822.47044  23213035.2194   23213029.1024
     -2503.0944
   1538779.77349   1185645.60846  22409875.4534   22409867.6254
     -2265.3754
  -2109389.81948  -1632431.98145  22562927.0234   22562922.4344
      2879.3594
 04  9  8 14 57 15.0000000  0  7G 1G11G14G15G19G22G25
  -2096535.19848  -1622490.78244  22985409.4774   22985405.8134
      2798.1254
  -1650156.65949  -1277500.54145  22268724.2664   22268717.9454
      2124.8134
   1022556.98249    786394.64047  20695582.1094   20695575.5234
     -1590.7974
   2559541.02348   1974237.08544  22753949.0944   22753944.3094
     -3677.0624
   1696491.12248   1307111.25744  23220188.3284   23220181.6604
     -2508.4844
   1572781.53149   1212140.47946  22416345.4384   22416337.9024
     -2268.1874
  -2152546.69748  -1666060.70245  22554714.4924   22554709.7034
      2874.9694
 04  9  8 14 57 30.0000000  0  7G 1G11G14G15G19G22G25
  -2138476.34148  -1655172.17844  22977428.4844   22977424.4184
      2794.0784
  -1681979.27849  -1302297.39945  22262668.7814   22262662.2934
      2118.3284
   1046465.58649    805024.71347  20700131.5944   20700125.1914
     -1596.8754
   2614729.19848   2017240.82644  22764451.0084   22764446.4884
     -3681.2034
   1734157.58848   1336461.72244  23227355.6024   23227348.9064
     -2513.6564
   1606825.05749   1238667.88246  22422824.2424   22422816.4804
     -2270.8914
  -2195636.53348  -1699637.18045  22546514.8444   22546509.6134
      2870.5634
 04  9  8 14 57 45.0000000  0  7G 1G11G14G15G19G22G25
  -2180357.62748  -1687806.94544  22969458.7194   22969454.6724
      2789.8594
  -1713705.80349  -1327019.37845  22256631.2664   22256624.7814
      2111.6724
   1070464.29349    823724.99647  20704698.5864   20704692.1454
     -1603.1564
   2669977.76848   2060291.62544  22774964.3754   22774960.2624
     -3685.4064
   1771900.40048   1365871.68544  23234537.9924   23234531.8524
     -2518.9224
   1640907.90549   1265225.92746  22429309.7034   22429302.6024
     -2273.6874
  -2238661.41848  -1733163.03745  22538327.3284   22538322.7074
      2865.9534
 04  9  8 14 58  0.0000000  0  7G 1G11G14G15G19G22G25
  -2222177.71947  -1720394.01544  22961500.3834   22961496.3134
      2785.9064
  -1745334.68049  -1351665.25845  22250612.2814   22250606.4614
      2105.3134
   1094554.16449    842496.31647  20709282.7664   20709276.3094
     -1609.0784
   2725287.70348   2103390.23044  22785489.6174   22785485.7664
     -3689.4534
   1809720.50148   1395341.86344  23241735.2424   23241729.1334
     -2523.9064
   1675031.47449   1291815.70646  22435803.3444   22435795.9064
     -2276.3124
  -2281619.84748  -1766637.12445  22530152.6954   22530147.5554
      2861.6414
 04  9  8 14 58 15.0000000  0  7G 1G11G14G15G19G22G25
  -2263933.28748  -1752930.81344  22953554.7424   22953550.3914
      2781.5314
  -1776862.61749  -1376232.49445  22244613.0314   22244606.7194
      2098.4694
   1118738.14749    861340.97147  20713884.6024   20713878.0784
     -1615.4064
   2780661.92948   2146538.95844  22796027.7344   22796023.5434
     -3693.8444
   1847620.67848   1424874.45044  23248947.8204   23248940.9614
     -2529.4374
   1709198.80749   1318439.58546  22442305.3364   22442297.4224
     -2279.2664
  -2324508.30048  -1800056.68545  22521991.2664   22521986.0314
      2856.9064
 04  9  8 14 58 30.0000000  0  7G 1G11G14G15G19G22G25
  -2305626.05748  -1785418.68444  22945620.5474   22945616.5204
      2777.5164
  -1808291.01249  -1400722.15745  22238632.3284   22238626.1914
      2092.0314
   1143014.16449    880257.34147  20718504.1254   20718497.8204
     -1621.4224
   2836098.33748   2189736.13344  22806576.2344   22806572.1484
     -3697.7194
   1885598.71948   1454467.71444  23256173.8984   23256167.7304
     -2534.4064
   1743407.99249   1345096.08846  22448815.0164   22448807.5394
     -2281.9374
  -2367328.21249  -1833422.83445  22513843.2274   22513837.9224
      2852.4224
 04  9  8 14 58 45.0000000  0  7G 1G11G14G15G19G22G25
  -2347256.55048  -1817858.00544  22937698.0704   22937694.3674
      2773.3444
  -1839620.40049  -1425134.67645  22232670.4534   22232664.4534
      2085.4224
   1167381.22949    899244.65647  20723141.0784   20723134.5904
     -1627.4374
   2891596.04248   2232981.06144  22817137.2584   22817133.1804
     -3701.7814
   1923653.60548   1484120.83944  23263415.4924   23263410.1954
     -2539.5164
   1777658.34049   1371784.64346  22455332.5394   22455325.3054
     -2284.6254
  -2410079.86549  -1866735.78145  22505707.6564   22505701.7854
      2847.9384
 04  9  8 14 59  0.0000000  0  7G 1G11G14G15G19G22G25
  -2388825.56548  -1850249.42044  22929788.2734   22929784.6294
      2769.1254
  -1870851.22649  -1449470.39046  22226727.6174   22226721.5204
      2078.6724
   1191838.19149    918302.01147  20727795.1954   20727789.2704
     -1633.5474
   2947153.74348   2276272.72744  22827709.2034   22827705.4304
     -3705.8284
   1961783.99548   1513832.80544  23270672.2114   23270665.8874
     -2544.5314
   1811948.97449   1398504.59146  22461857.9774   22461850.7544
     -2287.4374
  -2452763.94848  -1899996.08845  22497585.1954   22497579.5904
      2843.2974
 04  9  8 14 59 15.0000000  0  7G 1G11G14G15G19G22G25
  -2430333.47748  -1882593.23744  22921889.9304   22921885.6644
      2764.9844
  -1901983.76049  -1473729.51246  22220803.3524   22220797.5594
      2072.0004
   1216384.45649    937428.97547  20732465.9454   20732459.5474
     -1639.5474
   3002770.74648   2319610.62444  22838293.1254   22838288.5394
     -3709.9534
   1999989.09148   1543602.99144  23277942.6334   23277935.7154
     -2549.6874
   1846279.39649   1425255.56246  22468390.8284   22468383.2304
     -2290.1874
  -2495380.58248  -1933203.83145  22489475.4454   22489469.7114
      2838.6414
 04  9  8 14 59 30.0000000  0  7G 1G11G14G15G19G22G25
  -2471778.71148  -1914888.22744  22914003.1564   22913998.9574
      2761.0474
  -1933016.41349  -1497910.81346  22214897.8524   22214891.6994
      2065.6564
   1241021.07449    956626.32147  20737154.3444   20737147.8674
     -1645.3284
   3058448.21348   2362995.62044  22848888.2194   22848884.0204
     -3713.7194
   2038269.83448   1573432.11544  23285226.9224   23285219.9534
     -2554.4064
   1880651.03749   1452038.64246  22474931.3984   22474924.1054
     -2292.6254
  -2537928.11549  -1966357.73945  22481379.0084   22481373.2974
      2834.3284
 04  9  8 14 59 45.0000000  0  7G 1G11G14G15G19G22G25
  -2513162.34548  -1947135.19444  22906127.6414   22906123.8094
      2756.7974
  -1963950.06049  -1522014.96346  22209011.6564   22209005.3984
      2058.8284
   1265746.72449    975893.06447  20741859.2504   20741853.0904
     -1651.4694
   3114184.78048   2406426.68044  22859494.5634   22859490.4574
     -3717.8284
   2076624.81248   1603319.09744  23292525.0634   23292518.7774
     -2559.5784
   1915062.73949   1478852.95046  22481480.0394   22481472.6954
     -2295.5314
  -2580407.25449  -1999458.34745  22473295.2814   22473290.3714
      2829.5474
 04  9  8 15  0  0.0000000  0  7G 1G11G14G15G19G22G25
  -2554484.00848  -1979333.86344  22898264.4924   22898260.5664
      2752.6884
  -1994784.22749  -1546041.58746  22203144.0864   22203137.2854
      2052.2344
   1290561.45949    995229.20947  20746582.1804   20746575.0744
     -1657.2974
   3169980.27848   2449903.64744  22870112.2894   22870107.8444
     -3721.7194
   2115053.78048   1633263.72344  23299839.1414   23299832.1134
     -2564.4844
   1949514.44249   1505698.41046  22488035.6334   22488028.3754
     -2298.2194
  -2622817.46549  -2032505.23945  22465224.9844   22465220.1294
      2824.9844
 04  9  8 15  0 15.0000000  0  7G 1G11G14G15G19G22G25
  -2595743.99348  -2011484.49344  22890412.9924   22890409.3094
      2748.4844
  -2025519.28349  -1569990.99346  22197295.6724   22197289.4454
      2045.5784
   1315464.45249   1014634.13147  20751320.4694   20751313.7734
     -1663.2034
   3225833.96548   2493425.96344  22880740.5864   22880736.3204
     -3725.5474
   2153555.96548   1663265.39844  23307165.1564   23307158.8404
     -2569.2664
   1984005.86749   1532574.82646  22494599.1644   22494592.0514
     -2300.7194
  -2665158.81449  -2065498.47745  22457167.5944   22457162.7934
      2820.4694
 04  9  8 15  0 30.0000000  0  7G 1G11G14G15G19G22G25
  -2636940.28647  -2043585.50244  22882573.5004   22882569.4494
      2744.2974
  -2056152.66649  -1593861.16746  22191465.8524   22191459.7774
      2038.8134
   1340457.45349   1034109.17647  20756076.3674   20756069.8754
     -1669.2194
   3281747.55648   2536994.94244  22891380.9224   22891376.9844
     -3729.5784
   2192132.86148   1693325.28244  23314506.5084   23314500.1724
     -2574.2664
   2018538.95849   1559483.71046  22501170.7584   22501163.3364
     -2303.6254
  -2707429.08148  -2098436.32345  22449123.7814   22449118.8284
      2815.6564
 04  9  8 15  0 45.0000000  0  7G 1G11G14G15G19G22G25
  -2678073.92748  -2075637.69044  22874745.8754   22874741.3284
      2740.3284
  -2086685.48849  -1617652.97746  22185655.8284   22185649.7934
      2032.2194
   1365539.03449   1053653.26347  20760849.5704   20760842.9384
     -1674.9064
   3337719.55448   2580609.45844  22902032.2504   22902028.2814
     -3733.3124
   2230782.90448   1723442.16944  23321861.5234   23321854.9614
     -2578.9694
   2053112.43249   1586424.06946  22507750.0084   22507742.5084
     -2306.1724
  -2749629.20449  -2131319.52046  22441093.5084   22441088.5594
      2811.1254
 04  9  8 15  1  0.0000000  0  7G 1G11G14G15G19G22G25
  -2719144.17747  -2107640.46544  22866930.4064   22866926.6254
      2735.7344
  -2117116.84949  -1641365.72346  22179864.6724   22179858.2544
      2025.2034
   1390709.57249   1073266.65747  20765639.2114   20765632.4804
     -1681.2194
   3393750.30448   2624269.74144  22912694.1484   22912690.3984
     -3737.4694
   2269506.44348   1753616.33144  23329230.2344   23329223.7584
     -2584.1874
   2087726.90949   1613396.36246  22514336.7344   22514329.1884
     -2309.1874
  -2791758.19749  -2164147.29045  22433076.9144   22433071.5594
      2806.0004
 04  9  8 15  1 15.0000000  0  7G 1G11G14G15G19G22G25
  -2760151.60647  -2139594.29044  22859127.0944   22859122.4104
      2731.9844
  -2147447.19049  -1664999.76546  22174093.3134   22174086.9844
      2018.8754
   1415968.18649   1092948.69647  20770445.4304   20770439.0514
     -1686.6094
   3449838.84348   2667975.06344  22923367.8364   22923363.9304
     -3740.9224
   2308302.37948   1783846.90444  23336612.4064   23336606.2384
     -2588.5784
   2122381.60948   1640400.01846  22520931.4694   22520924.0004
     -2311.3754
  -2833816.39549  -2196919.88845  22425072.8674   22425068.2034
      2801.7194
 04  9  8 15  1 30.0000000  0  7G 1G11G14G15G19G22G25
  -2801096.55748  -2171499.43444  22851335.3524   22851331.3594
      2727.7344
  -2177676.67149  -1688555.22046  22168341.0944   22168334.5944
      2012.0784
   1441314.18249   1112698.80347  20775268.9924   20775262.5204
     -1692.4694
   3505984.44048   2711724.83444  22934051.9774   22934048.0824
     -3744.7814
   2347169.83748   1814133.20844  23344009.0004   23344002.6374
     -2593.4224
   2157076.14849   1667434.69546  22527533.7194   22527525.7304
     -2314.0944
  -2875803.99649  -2229637.49045  22417082.9064   22417079.0164
      2796.9694
 04  9  8 15  1 45.0000000  0  7G 1G11G14G15G19G22G25
  -2841980.59948  -2203357.11244  22843555.3054   22843551.5044
      2723.5004
  -2207806.82349  -1712033.25546  22162607.0554   22162601.2154
      2005.2504
   1466745.58149   1132515.46547  20780108.1644   20780101.7734
     -1698.3124
   3562185.13347   2755517.55244  22944746.1884   22944742.3054
     -3748.6094
   2386106.85648   1844473.71444  23351418.4224   23351411.6294
     -2598.1874
   2191808.80949   1694499.09246  22534142.7274   22534135.3634
     -2316.8594
  -2917722.32349  -2262301.08945  22409106.1094   22409101.6024
      2792.1884
 04  9  8 15  2  0.0000000  0  7G 1G11G14G15G19G22G25
  -2882802.08347  -2235166.04144  22835787.3364   22835783.3874
      2719.4534
  -2237835.78349  -1735432.44646  22156893.0704   22156886.5084
      1998.6094
   1492263.73249   1152399.73947  20784964.4454   20784957.9384
     -1704.0314
   3618442.21347   2799354.19144  22955451.8134   22955448.0474
     -3752.2344
   2425114.48548   1874869.23544  23358841.1174   23358834.7274
     -2602.7974
   2226581.06649   1721594.33646  22540759.9844   22540752.8484
     -2319.3284
  -2959569.48549  -2294909.25045  22401142.9144   22401138.4224
      2787.5314
 04  9  8 15  2 15.0000000  0  7G 1G11G14G15G19G22G25
  -2923559.55648  -2266925.08944  22828031.3914   22828027.5514
      2715.0474
  -2267761.88749  -1758751.49446  22151198.1174   22151192.1374
      1991.6094
   1517869.73749   1172352.46047  20789836.9224   20789830.3094
     -1710.0314
   3674756.77047   2843235.61844  22966168.1484   22966164.3054
     -3756.2194
   2464193.73148   1905320.56544  23366277.7344   23366271.2114
     -2607.6414
   2261394.29849   1748721.50046  22547384.7584   22547377.4694
     -2322.2504
  -3001343.77148  -2327460.63645  22393193.4304   22393188.7624
      2782.4844
 04  9  8 15  2 30.0000000  0  7G 1G11G14G15G19G22G25
  -2964256.08747  -2298636.65544  22820287.5704   22820283.0004
      2711.2974
  -2297588.09949  -1781992.69746  22145522.4534   22145515.9734
      1985.3284
   1543560.10749   1192370.91047  20794725.4694   20794719.6954
     -1715.2504
   3731125.24947   2887159.07044  22976895.3134   22976890.7624
     -3759.5004
   2503340.98348   1935824.88544  23373727.0554   23373720.5784
     -2611.8124
   2296245.24449   1775878.07246  22554016.5554   22554009.4534
     -2324.3754
  -3043048.15848  -2359957.54245  22385257.1484   22385253.1684
      2778.1724
 04  9  8 15  2 45.0000000  0  7G 1G11G14G15G19G22G25
  -3004890.08748  -2330299.50344  22812554.4774   22812550.6484
      2706.9224
  -2327312.74249  -1805154.77346  22139866.6644   22139859.7464
      1978.2814
   1569336.16749   1212456.13947  20799630.7584   20799623.8284
     -1721.1874
   3787548.86048   2931125.47844  22987632.2194   22987627.8244
     -3763.2974
   2542557.38948   1966383.10544  23381189.7344   23381183.4654
     -2616.7034
   2331135.32849   1803065.12146  22560656.2194   22560649.0744
     -2327.2504
  -3084680.81749  -2392398.56145  22377334.8834   22377330.2854
      2773.1094
 04  9  8 15  3  0.0000000  0  7G 1G11G14G15G19G22G25
  -3045461.59148  -2361913.64644  22804834.3284   22804829.7384
      2702.7344
  -2356935.71749  -1828237.60846  22134229.0474   22134222.6374
      1971.5004
   1595197.52249   1232607.82947  20804551.7974   20804545.4964
     -1726.9844
   3844027.23048   2975134.55944  22998378.6804   22998375.1024
     -3767.0474
   2581842.40248   1996994.76444  23388665.9384   23388659.0004
     -2621.3444
   2366064.48149   1830282.62146  22567302.7974   22567295.4264
     -2329.9534
  -3126241.68249  -2424783.62745  22369425.9224   22369421.5394
      2768.2974
 04  9  8 15  3 15.0000000  0  7G 1G11G14G15G19G22G25
  -3085971.77248  -2393480.00944  22797125.9614   22797122.0984
      2698.5004
  -2386458.11449  -1851242.07846  22128611.3134   22128605.1564
      1964.6724
   1621142.47149   1252824.67347  20809489.3754   20809482.6414
     -1732.6094
   3900558.82147   3019185.11743  23009136.8524   23009132.9924
     -3770.6724
   2621194.29248   2027658.54144  23396154.2504   23396147.6094
     -2625.7974
   2401031.23449   1857529.41846  22573956.7894   22573949.8914
     -2332.6094
  -3167731.44149  -2457113.29645  22361530.4844   22361526.4264
      2763.3754
 04  9  8 15  3 30.0000000  0  7G 1G11G14G15G19G22G25
  -3126419.42047  -2424997.66044  22789428.8444   22789424.2424
      2694.5164
  -2415878.56649  -1874167.10646  22123012.6804   22123006.4304
      1958.1564
   1647171.88849   1273107.31847  20814442.6024   20814435.6214
     -1738.0004
   3957144.36647   3063277.69143  23019904.9064   23019901.2584
     -3774.1254
   2660613.80148   2058375.01644  23403655.5084   23403649.3834
     -2630.0944
   2436036.66748   1884806.36346  22580618.1414   22580610.6374
     -2334.7974
  -3209148.89749  -2489386.63545  22353649.1954   22353644.5204
      2758.9064
 04  9  8 15  3 45.0000000  0  7G 1G11G14G15G19G22G25
  -3166800.76748  -2456463.63744  22781744.7274   22781740.1954
      2689.8914
  -2445193.13149  -1897009.62446  22117434.3914   22117427.9534
      1950.7974
   1673289.22249   1293458.47747  20819412.1254   20819405.5634
     -1744.0164
   4013787.22747   3107414.96044  23030683.8674   23030679.6804
     -3778.0624
   2700104.19148   2089146.72044  23411169.5084   23411164.0314
     -2635.0004
   2471084.42149   1912116.28246  22587287.5084   22587280.3324
     -2337.8444
  -3250490.12348  -2521600.55145  22345782.0784   22345777.5864
      2753.5634
 04  9  8 15  4  0.0000000  0  7G 1G11G14G15G19G22G25
  -3207119.78548  -2487881.04244  22774071.2974   22774067.5704
      2685.8134
  -2474405.60849  -1919772.59046  22111875.5704   22111868.8054
      1944.0314
   1699490.21749   1313874.84847  20824398.2894   20824391.4884
     -1749.5164
   4070483.07547   3151593.49544  23041472.5704   23041468.4064
     -3781.5164
   2739661.08748   2119970.23944  23418697.6174   23418691.1644
     -2639.3124
   2506170.42349   1939456.00746  22593964.1954   22593957.2384
     -2340.3444
  -3291758.79249  -2553757.94345  22337929.4694   22337924.0044
      2748.7814
 04  9  8 15  4 15.0000000  0  7G 1G11G14G15G19G22G25
  -3247373.88247  -2519247.85144  22766411.6564   22766407.2304
      2681.5004
  -2503513.21049  -1942453.85246  22106336.4224   22106329.5984
      1937.0634
   1725777.19749   1334358.18447  20829400.5944   20829394.1524
     -1755.3754
   4127234.15547   3195815.08844  23052272.0474   23052268.5434
     -3785.2034
   2779286.50348   2150847.15444  23426237.9844   23426231.6524
     -2643.8594
   2541297.12349   1966827.44146  22600648.7194   22600641.0394
     -2343.0784
  -3332952.10948  -2585856.63345  22330090.2814   22330084.9574
      2743.7664
 04  9  8 15  4 30.0000000  0  7G 1G11G14G15G19G22G25
  -3287563.98147  -2550564.78844  22758764.1254   22758759.3204
      2677.0784
  -2532516.77949  -1965054.03946  22100817.3444   22100810.7304
      1929.9224
   1752148.73049   1354907.42147  20834418.7424   20834412.5044
     -1761.0784
   4184039.03547   3240078.59444  23063081.4384   23063078.1524
     -3788.9224
   2818979.10948   2181776.42444  23433791.5554   23433784.8094
     -2648.5164
   2576463.56149   1994229.84246  22607340.5164   22607333.3404
     -2345.8594
  -3374070.82048  -2617897.15145  22322265.5634   22322261.0204
      2738.6094
 04  9  8 15  4 45.0000000  0  7G 1G11G14G15G19G22G25
  -3327691.30548  -2581832.81744  22751127.8054   22751123.5474
      2672.9534
  -2561417.36349  -1987573.97546  22095317.6884   22095311.4804
      1923.0944
   1778603.32249   1375521.37647  20839453.0474   20839446.2734
     -1766.5624
   4240896.10747   3284382.74944  23073900.3204   23073897.3794
     -3792.2194
   2858737.05348   2212756.61244  23441357.8054   23441350.6684
     -2652.8914
   2611668.33049   2021662.09746  22614040.0784   22614032.3554
     -2348.4064
  -3415115.92949  -2649880.35345  22314455.0394   22314450.1954
      2733.7034
 04  9  8 15  5  0.0000000  0  7G 1G11G14G15G19G22G25
  -3367755.83848  -2613051.92444  22743504.0314   22743498.9694
      2668.7974
  -2590214.93549  -2010013.63946  22089837.1564   22089831.3404
      1916.2974
   1805140.59849   1396199.77747  20844502.7974   20844496.6994
     -1772.0004
   4297805.06847   3328727.37444  23084730.9304   23084726.9804
     -3795.8284
   2898559.99248   2243787.44844  23448935.1804   23448928.6994
     -2657.1094
   2646911.29949   2049124.13146  22620746.7274   22620739.1644
     -2350.9224
  -3456087.21349  -2681806.00145  22306658.4064   22306653.5554
      2728.8594
 04  9  8 15  5 15.0000000  0  7G 1G11G14G15G19G22G25
  -3407756.48948  -2644221.24744  22735892.3364   22735887.5984
      2664.7344
  -2618908.23649  -2032372.04946  22084376.8134   22084370.9964
      1909.5004
   1831761.25449   1416943.13447  20849568.4614   20849562.2734
     -1777.4224
   4354766.54547   3373112.90044  23095570.6174   23095566.6954
     -3799.0474
   2938448.43148   2274869.30744  23456525.8054   23456519.3094
     -2661.2974
   2682193.28849   2076616.57546  22627460.1884   22627453.2544
     -2353.3284
  -3496983.38449  -2713673.12945  22298876.2664   22298871.3094
      2724.0314
 04  9  8 15  5 30.0000000  0  7G 1G11G14G15G19G22G25
  -3447692.83448  -2675340.45945  22728292.4844   22728288.3204
      2660.2814
  -2647496.82549  -2054648.87746  22078937.0394   22078930.8984
      1902.3444
   1858465.43949   1437751.57947  20854649.8444   20854643.7934
     -1783.0314
   4411780.59848   3417539.38344  23106420.0164   23106415.6414
     -3802.6094
   2978402.26248   2306002.13144  23464128.3594   23464121.8244
     -2665.7344
   2717514.70649   2104139.73646  22634181.6414   22634174.8554
     -2356.0784
  -3537803.95949  -2745481.35645  22291108.3754   22291103.7974
      2718.8444
 04  9  8 15  5 45.0000000  0  7G 1G11G14G15G19G22G25
  -3487561.97748  -2706407.30145  22720705.8914   22720701.5234
      2655.6564
  -2675977.47749  -2076841.59546  22073517.5554   22073511.0514
      1895.0164
   1885255.72849   1458627.11647  20859748.4384   20859742.4264
     -1788.9534
   4468849.73948   3462008.81244  23117279.3524   23117276.0394
     -3806.4694
   3018423.99648   2337187.87744  23471743.8054   23471737.7544
     -2670.4374
   2752878.29349   2131695.75146  22640911.6484   22640904.2114
     -2359.0164
  -3578545.53449  -2777228.02945  22283355.2734   22283351.1334
      2713.4694
 04  9  8 15  6  0.0000000  0  7G 1G11G14G15G19G22G25
  -3527365.23648  -2737422.82145  22713131.5864   22713127.0354
      2651.4384
  -2704351.46549  -2098951.18646  22068118.4614   22068111.9734
      1888.0784
   1912130.37949   1479568.39647  20864862.3914   20864856.1604
     -1794.4694
   4525972.29747   3506519.84644  23128150.0634   23128145.7934
     -3809.9694
   3058511.79448   2368425.09444  23479372.6484   23479366.9344
     -2674.6564
   2788282.56649   2159283.47046  22647648.5784   22647641.2974
     -2361.5784
  -3619209.40548  -2808914.14745  22275617.4454   22275613.0704
      2708.3754
 04  9  8 15  6 15.0000000  0  7G 1G11G14G15G19G22G25
  -3567105.85148  -2768389.51245  22705569.1254   22705564.4534
      2647.2664
  -2732621.78949  -2120980.01246  22062737.8444   22062732.2664
      1881.1884
   1939085.76049   1500572.58347  20869991.7894   20869985.5594
     -1799.7034
   4583144.62848   3551069.67843  23139029.1484   23139025.4694
     -3813.1094
   3098661.94048   2399710.91344  23487013.3284   23487007.2854
     -2678.6254
   2823724.33849   2186900.42246  22654392.5634   22654385.8834
     -2364.0004
  -3659798.46948  -2840541.97046  22267893.6644   22267888.8984
      2703.3914
 04  9  8 15  6 30.0000000  0  7G 1G11G14G15G19G22G25
  -3606783.00048  -2799306.75645  22698018.7894   22698015.1954
      2642.7664
  -2760787.43549  -2142927.26546  22057378.8754   22057372.1604
      1874.0784
   1966122.33849   1521640.03547  20875136.8594   20875130.5204
     -1805.3444
   4640367.06248   3595658.54143  23149918.1804   23149914.5784
     -3816.6414
   3138874.73248   2431045.52344  23494665.1094   23494659.4774
     -2683.1094
   2859204.02049   2214546.90446  22661144.5864   22661137.7584
     -2366.7504
  -3700311.80349  -2872110.79145  22260184.1954   22260179.5124
      2698.1724
 04  9  8 15  6 45.0000000  0  7G 1G11G14G15G19G22G25
  -3646395.52448  -2830173.63745  22690480.8524   22690476.6644
      2639.0314
  -2788847.19149  -2164792.02046  22052039.0944   22052032.3444
      1867.4534
   1993241.08349   1542771.50747  20880297.3284   20880291.1524
     -1810.2664
   4697640.45947   3640287.12343  23160817.1954   23160812.8164
     -3819.5944
   3179150.77048   2462429.40544  23502329.1884   23502323.6214
     -2686.8444
   2894722.84249   2242223.88346  22667903.4844   22667896.2934
     -2368.8124
  -3740747.97948  -2903619.48046  22252489.5004   22252484.9494
      2693.5004
 04  9  8 15  7  0.0000000  0  7G 1G11G14G15G19G22G25
  -3685944.31447  -2860990.86345  22682954.6484   22682950.9774
      2634.4534
  -2816801.82749  -2186574.85946  22046719.7344   22046712.6644
      1860.2194
   2020440.57249   1563965.90547  20885473.1024   20885466.4694
     -1815.9064
   4754963.47547   3684954.37343  23171724.6334   23171720.7344
     -3823.0004
   3219488.70048   2493861.55544  23510005.4534   23510000.0004
     -2691.1564
   2930279.63749   2269930.45546  22674669.5084   22674662.3404
     -2371.5624
  -3781107.74248  -2935068.62846  22244809.0944   22244804.3794
      2688.3284
 04  9  8 15  7 15.0000000  0  7G 1G11G14G15G19G22G25
  -3725430.95048  -2891759.66645  22675440.4924   22675435.9774
      2630.4534
  -2844652.82049  -2208276.93946  22041419.4614   22041413.1914
      1853.2664
   2047718.88049   1585221.72747  20890664.1174   20890657.7194
     -1821.2034
   4812334.13648   3729658.71343  23182642.1414   23182637.4534
     -3826.2974
   3259886.51648   2525340.33544  23517693.1254   23517687.4804
     -2695.2034
   2965872.88948   2297665.43946  22681442.8054   22681435.9304
     -2374.1724
  -3821392.41648  -2966459.26645  22237142.8914   22237137.9184
      2683.1094
 04  9  8 15  7 30.0000000  0  7G 1G11G14G15G19G22G25
  -3764852.40448  -2922477.66845  22667938.7344   22667933.9694
      2626.0634
  -2872396.97049  -2229895.76346  22036140.0234   22036133.3834
      1846.0004
   2075078.78249   1606541.12047  20895870.8284   20895864.4184
     -1826.7974
   4869755.14247   3774402.31043  23193569.5864   23193565.0474
     -3829.7034
   3300346.69948   2556867.70244  23525392.3134   23525386.9774
     -2699.4534
   3001505.28149   2325430.92046  22688223.7894   22688216.3634
     -2376.8754
  -3861598.82349  -2997788.92345  22229492.1094   22229486.9104
      2677.7974
 04  9  8 15  7 45.0000000  0  7G 1G11G14G15G19G22G25
  -3804208.13349  -2953144.46245  22660449.1254   22660445.6024
      2621.5474
  -2900033.64549  -2251430.83146  22030880.7814   22030874.5204
      1838.8754
   2102520.42549   1627924.20447  20901092.6094   20901086.3834
     -1832.1564
   4927226.60048   3819185.21843  23204506.2814   23204501.4774
     -3833.1094
   3340869.32548   2588443.74344  23533104.2584   23533098.8094
     -2703.5314
   3037177.31449   2353227.28046  22695011.8204   22695004.1294
     -2379.4374
  -3901726.21948  -3029057.01045  22221855.8754   22221851.0434
      2672.5004
 04  9  8 15  8  0.0000000  0  7G 1G11G14G15G19G22G25
  -3843499.63448  -2983761.20145  22652972.2974   22652968.8634
      2617.2664
  -2927564.20349  -2272883.21746  22025642.0234   22025635.7774
      1831.8914
   2130042.04149   1649369.61147  20906329.7894   20906323.8484
     -1837.4224
   4984746.58948   3864005.96043  23215451.9694   23215446.9024
     -3836.2504
   3381452.37648   2620066.86044  23540826.7274   23540820.0514
     -2707.4694
   3072887.38348   2381053.28345  22701807.2114   22701800.1764
     -2381.8594
  -3941775.86248  -3060264.49845  22214234.9774   22214229.5514
      2667.3754
 04  9  8 15  8 15.0000000  0  7G 1G11G14G15G19G22G25
  -3882726.53648  -3014327.59945  22645507.8204   22645503.4774
      2612.9844
  -2954988.08249  -2294252.47246  22020423.5784   22020417.2814
      1824.5944
   2157643.68449   1670877.37447  20911582.1254   20911575.7504
     -1842.8914
   5042315.08748   3908864.48443  23226406.4534   23226401.8204
     -3839.5474
   3422095.72748   2651736.96044  23548560.9144   23548554.4414
     -2711.6094
   3108635.64248   2408909.04545  22708609.9304   22708602.6914
     -2384.5944
  -3981747.22248  -3091410.99946  22206628.7814   22206623.3484
      2662.0314
 04  9  8 15  8 30.0000000  0  7G 1G11G14G15G19G22G25
  -3921884.75149  -3044840.49445  22638056.6564   22638051.9574
      2608.1564
  -2982301.15749  -2315535.39946  22015226.1484   22015219.6644
      1817.0784
   2185328.94749   1692450.30347  20916850.5314   20916844.3634
     -1848.5784
   5099935.82847   3953763.72343  23237371.5474   23237367.3524
     -3843.2344
   3462802.97548   2683456.86044  23556307.4534   23556300.7344
     -2716.0474
   3144426.01549   2436797.61945  22715420.8134   22715413.1134
     -2387.5474
  -4021636.02848  -3122493.16745  22199037.9144   22199032.3554
      2656.3914
 04  9  8 15  8 45.0000000  0  7G 1G11G14G15G19G22G25
  -3960980.08048  -3075304.37445  22630616.5474   22630612.6334
      2604.3284
  -3009508.92149  -2336736.25546  22010048.4924   22010042.4024
      1810.3594
   2213091.73649   1714083.62747  20922133.4924   20922127.2114
     -1853.3754
   5157602.66647   3998698.87343  23248344.6174   23248341.3014
     -3845.9064
   3503567.86348   2715221.68244  23564064.4534   23564057.4024
     -2719.5004
   3180252.62248   2464714.43145  22722238.2034   22722231.0474
     -2389.6254
  -4061447.84148  -3153515.33745  22191462.2894   22191456.6914
      2651.6094
 04  9  8 15  9  0.0000000  0  7G 1G11G14G15G19G22G25
  -4000013.82548  -3105720.25845  22623188.8754   22623184.9964
      2600.4694
  -3036612.60749  -2357856.01146  22004891.2584   22004884.5664
      1803.6884
   2240930.33549   1735776.04347  20927431.1024   20927424.2584
     -1858.2344
   5215313.84348   4043668.57143  23259327.4844   23259323.8204
     -3848.5944
   3544388.51348   2747029.94944  23571832.3364   23571825.4964
     -2722.9534
   3216114.10548   2492658.42945  22729062.4144   22729055.1764
     -2391.7344
  -4101183.80648  -3184478.41946  22183900.6644   22183895.1644
      2646.7344
 04  9  8 15  9 15.0000000  0  7G 1G11G14G15G19G22G25
  -4038986.48348  -3136088.54644  22615772.7114   22615768.5554
      2595.8444
  -3063612.74149  -2378895.08346  21999752.8364   21999746.2504
      1796.2974
   2268843.93049   1757526.89447  20932743.0634   20932736.4804
     -1863.6094
   5273068.46947   4088672.12043  23270318.3754   23270314.0274
     -3851.9534
   3585263.91648   2778880.87943  23579610.5864   23579604.2194
     -2727.0944
   3252009.68948   2520628.99545  22735893.1804   22735885.4224
     -2394.5164
  -4140844.30048  -3215382.67746  22176353.2664   22176348.3244
      2641.2814
 04  9  8 15  9 30.0000000  0  7G 1G11G14G15G19G22G25
  -4077894.55147  -3166406.53344  22608368.1094   22608364.4384
      2591.7344
  -3090505.59749  -2399850.56546  21994635.2504   21994628.5594
      1789.2974
   2296835.77149   1779338.70747  20938069.8524   20938062.9574
     -1868.7034
   5330869.72947   4133712.02043  23281317.0864   23281313.6174
     -3854.9534
   3626197.30348   2810776.99544  23587400.3204   23587393.7194
     -2730.7504
   3287943.03348   2548628.98345  22742730.7504   22742723.5904
     -2396.7814
  -4180425.36948  -3246225.05346  22168821.0474   22168815.8364
      2636.1724
 04  9  8 15  9 45.0000000  0  7G 1G11G14G15G19G22G25
  -4116736.24547  -3196672.76644  22600977.1724   22600973.5124
      2587.2664
  -3117289.07549  -2420720.80446  21989538.6954   21989532.1334
      1782.0474
   2324907.32849   1801212.63447  20943411.4224   20943404.7424
     -1873.9844
   5388719.01147   4178789.32943  23292325.1884   23292321.0044
     -3858.0624
   3667189.86247   2842719.21244  23595200.6484   23595194.7074
     -2734.6094
   3323915.67648   2576659.57845  22749576.4774   22749568.8134
     -2399.4224
  -4219924.88548  -3277003.87846  22161305.1414   22161299.8094
      2630.6724
 04  9  8 15 10  0.0000000  0  7G 1G11G14G15G19G22G25
  -4155515.16048  -3226890.07444  22593597.3914   22593594.2274
      2583.7974
  -3143966.76249  -2441508.61846  21984462.2274   21984455.6214
      1775.6254
   2353054.54049   1823145.52447  20948767.6484   20948761.2544
     -1878.3914
   5446612.33547   4223900.96243  23303342.3594   23303338.3754
     -3860.4064
   3708237.44248   2874704.28944  23603012.2194   23603006.1644
     -2737.7504
   3359923.75048   2604717.81045  22756428.5554   22756420.9694
     -2401.0944
  -4259346.45948  -3307721.97446  22153803.2894   22153797.9534
      2626.1254
 04  9  8 15 10 15.0000000  0  7G 1G11G14G15G19G22G25
  -4194234.21948  -3257060.76145  22586230.0004   22586225.7774
      2578.9224
  -3170541.47149  -2462216.19746  21979405.0634   21979398.7854
      1767.8284
   2381274.13149   1845134.80347  20954137.4304   20954131.5634
     -1884.0004
   5504546.36647   4269044.32943  23314366.5004   23314362.8244
     -3863.9374
   3749336.68348   2906729.63144  23610832.8984   23610827.1604
     -2742.0314
   3395964.34348   2632801.36845  22763286.7344   22763279.6334
     -2404.1414
  -4298692.81948  -3338381.45846  22146315.4534   22146310.7384
      2620.2034
 04  9  8 15 10 30.0000000  0  7G 1G11G14G15G19G22G25
  -4232886.00348  -3287179.02845  22578874.8444   22578870.3674
      2574.4064
  -3197005.58849  -2482837.58746  21974368.8834   21974362.5084
      1760.4694
   2409573.27349   1867186.06847  20959522.4454   20959516.5664
     -1889.4064
   5562528.03747   4314224.81343  23325400.0634   23325396.3524
     -3867.1564
   3790494.49348   2938800.61944  23618665.7344   23618659.1804
     -2745.8754
   3432044.75548   2660915.93945  22770152.5944   22770144.8954
     -2406.8594
  -4337956.27048  -3368976.34646  22138844.1804   22138839.6214
      2614.6564
 04  9  8 15 10 45.0000000  0  7G 1G11G14G15G19G22G25
  -4271474.33348  -3317247.84144  22571531.5864   22571527.5474
      2570.5784
  -3223362.80449  -2503375.67846  21969353.2894   21969346.9774
      1753.7504
   2437947.77749   1889296.06547  20964921.9694   20964915.7934
     -1894.0624
   5620553.21447   4359439.17743  23336441.7664   23336438.2814
     -3869.7344
   3831706.69848   2970913.98244  23626507.8594   23626501.2344
     -2749.2034
   3468160.95348   2689058.40245  22777025.2344   22777017.8284
     -2408.8284
  -4377140.46549  -3399509.47446  22131387.2274   22131382.9694
      2609.7504
 04  9  8 15 11  0.0000000  0  7G 1G11G14G15G19G22G25
  -4310003.79748  -3347270.79144  22564199.3984   22564195.1764
      2566.6414
  -3249617.58549  -2523833.95746  21964357.3914   21964351.3324
      1746.7664
   2466392.72149   1911460.94647  20970335.2734   20970328.5394
     -1898.7974
   5678616.90447   4404683.55743  23347491.7034   23347487.7114
     -3872.2814
   3872968.09648   3003065.68744  23634359.2734   23634353.0314
     -2752.4694
   3504308.29448   2717225.14745  22783904.3134   22783896.5124
     -2410.9694
  -4416249.83048  -3429984.29046  22123945.3984   22123940.6454
      2604.6724
 04  9  8 15 11 15.0000000  0  7G 1G11G14G15G19G22G25
  -4348466.33447  -3377241.60244  22556880.3134   22556875.9574
      2561.7974
  -3275761.72149  -2544206.01246  21959382.1254   21959376.1174
      1739.1094
   2494915.76949   1933686.69847  20975762.7424   20975756.5704
     -1904.2974
   5736726.81847   4449963.97543  23358549.5784   23358545.7344
     -3875.6414
   3914286.28948   3035261.65244  23642222.1024   23642215.8754
     -2756.5474
   3540494.60148   2745422.24245  22790790.0784   22790782.7234
     -2413.8284
  -4455276.01548  -3460394.29545  22116518.7114   22116514.3754
      2598.8444
 04  9  8 15 11 30.0000000  0  7G 1G11G14G15G19G22G25
  -4386864.09047  -3407161.90344  22549573.5864   22549569.5904
      2557.4534
  -3301797.30649  -2564493.47846  21954427.8364   21954421.8834
      1731.8134
   2523514.50849   1955971.41647  20981204.8754   20981198.4884
     -1909.3914
   5794880.43248   4495278.43343  23369615.7194   23369612.3244
     -3878.6414
   3955658.64248   3067499.80744  23650094.9924   23650088.8524
     -2760.2194
   3576717.72448   2773648.02845  22797683.0554   22797675.5824
     -2416.3594
  -4494220.95348  -3490740.98946  22109107.9454   22109103.3244
      2593.3284
 04  9  8 15 11 45.0000000  0  7G 1G11G14G15G19G22G25
  -4425195.82547  -3437030.77645  22542279.2504   22542274.6054
      2553.0164
  -3327722.91049  -2584695.26046  21949494.4064   21949488.0124
      1724.5164
   2552189.75949   1978315.75947  20986661.7424   20986655.4184
     -1914.3754
   5853078.56447   4540627.59343  23380690.2974   23380686.9144
     -3881.5624
   3997085.76848   3099780.66744  23657977.8984   23657972.1564
     -2763.7974
   3612978.78148   2801903.38645  22804583.4774   22804576.0704
     -2418.8594
  -4533083.28348  -3521023.31445  22101712.4924   22101708.1884
      2587.9694
 04  9  8 15 12  0.0000000  0  7G 1G11G14G15G19G22G25
  -4463463.18348  -3466849.49144  22534997.6094   22534992.9774
      2549.0944
  -3353540.06049  -2604812.52346  21944581.4304   21944575.2034
      1717.5634
   2580939.70149   2000718.30547  20992132.4534   20992125.9924
     -1919.0164
   5911319.27547   4586009.90843  23391773.5084   23391769.9734
     -3884.0314
   4038565.79548   3132102.71444  23665872.4844   23665865.7774
     -2767.0784
   3649276.01148   2830186.89845  22811490.4774   22811482.9774
     -2420.8594
  -4571864.28448  -3551242.26346  22094332.8834   22094328.0354
      2582.7974
 04  9  8 15 12 15.0000000  0  7G 1G11G14G15G19G22G25
  -4501664.48948  -3496616.72045  22527727.7894   22527723.6484
      2544.8284
  -3379246.97649  -2624843.88346  21939689.6954   21939683.4734
      1710.3284
   2609765.49449   2023179.93847  20997618.1954   20997611.7384
     -1923.9844
   5969603.71747   4631426.30443  23402864.5164   23402861.5944
     -3886.8284
   4080099.70148   3164466.78544  23673775.2734   23673768.8834
     -2770.4534
   3685610.89048   2858499.77045  22818404.6484   22818397.2274
     -2423.2814
  -4610562.37249  -3581396.62346  22086969.0084   22086963.8754
      2577.3754
 04  9  8 15 12 30.0000000  0  7G 1G11G14G15G19G22G25
  -4539799.91548  -3526332.61245  22520470.7274   22520466.6524
      2540.2974
  -3404843.59849  -2644789.31846  21934818.6484   21934812.4804
      1702.9534
   2638666.63449   2045700.30947  21003117.6564   21003111.2584
     -1929.1094
   6027931.33347   4676876.34443  23413963.9614   23413960.5514
     -3889.8124
   4121686.86348   3196872.30444  23681689.5394   23681683.1484
     -2774.0784
   3721983.07748   2886841.70945  22825325.9694   22825318.9884
     -2425.8914
  -4649177.33149  -3611486.17746  22079620.5634   22079615.1954
      2571.7194
 04  9  8 15 12 45.0000000  0  7G 1G11G14G15G19G22G25
  -4577867.30248  -3555995.50545  22513226.9774   22513222.5784
      2535.7504
  -3430327.68249  -2664647.04246  21929969.5314   21929963.0864
      1695.4534
   2667645.02549   2068280.85547  21008632.0864   21008625.8754
     -1934.2664
   6086304.01147   4722361.50043  23425071.9694   23425067.9694
     -3892.7504
   4163329.03648   3229320.72144  23689613.7814   23689607.1724
     -2777.7194
   3758394.78548   2915214.43845  22832255.6954   22832248.1804
     -2428.5474
  -4687706.73449  -3641509.09346  22072288.5164   22072283.5164
      2566.0164
 04  9  8 15 13  0.0000000  0  7G 1G11G14G15G19G22G25
  -4615872.52448  -3585609.96145  22505995.0784   22505990.1454
      2531.4224
  -3455705.06149  -2684421.62946  21925140.2114   21925134.2624
      1688.1414
   2696694.45049   2090916.76347  21014160.3054   21014153.7154
     -1939.2034
   6144715.49647   4767876.89843  23436186.9304   23436183.5434
     -3895.6414
   4205019.81748   3261807.00844  23697547.4144   23697540.6214
     -2781.2504
   3794839.86848   2943613.18745  22839190.4844   22839183.2934
     -2430.9224
  -4726156.36649  -3671469.82746  22064971.6724   22064966.3164
      2560.4694
 04  9  8 15 13 15.0000000  0  7G 1G11G14G15G19G22G25
  -4653812.39748  -3615173.46445  22498775.1724   22498770.8444
      2527.2034
  -3480972.32249  -2704110.41146  21920331.7194   21920325.8054
      1680.8134
   2725817.68949   2113610.19647  21019701.9844   21019695.6764
     -1944.0314
   6203168.50147   4813424.65843  23447310.2814   23447306.4104
     -3898.2034
   4246761.82048   3294333.23043  23705490.5784   23705483.6174
     -2784.5004
   3831321.40048   2972040.33145  22846132.6174   22846125.8404
     -2433.3754
  -4764522.92648  -3701365.84446  22057670.7344   22057665.6484
      2555.0004
 04  9  8 15 13 30.0000000  0  7G 1G11G14G15G19G22G25
  -4691685.37948  -3644684.86145  22491567.8594   22491563.7544
      2522.6884
  -3506127.71149  -2723712.00746  21915544.9454   21915538.6994
      1673.2974
   2755015.94049   2136362.06547  21025258.6414   21025252.1884
     -1949.0004
   6261664.24847   4859005.69542  23458441.5864   23458437.4884
     -3901.0624
   4288556.21148   3326900.25543  23713443.1954   23713436.9264
     -2787.9224
   3867840.85348   3000497.01945  22853081.8054   22853074.6914
     -2435.9224
  -4802804.57048  -3731195.68646  22050386.1564   22050381.2114
      2549.2344
 04  9  8 15 13 45.0000000  0  7G 1G11G14G15G19G22G25
  -4729493.62748  -3674145.82045  22484373.7734   22484368.9924
      2518.3444
  -3531173.32449  -2743228.07946  21910779.1484   21910772.4884
      1665.9694
   2784286.68449   2159170.43047  21030828.4694   21030822.4184
     -1953.7814
   6320200.10247   4904618.00343  23469581.1024   23469576.6644
     -3903.7814
   4330400.33848   3359506.03443  23721405.8674   23721399.5044
     -2791.2194
   3904395.94248   3028981.48245  22860038.2584   22860031.2854
     -2438.2034
  -4841003.18248  -3760960.82846  22043117.0864   22043111.9844
      2543.7814
 04  9  8 15 14  0.0000000  0  7G 1G11G14G15G19G22G25
  -4767234.26047  -3703554.10145  22477191.6094   22477186.9654
      2513.6564
  -3556106.17549  -2762656.28346  21906034.7814   21906028.4654
      1658.3594
   2813632.58849   2182037.35147  21036412.9224   21036406.3594
     -1958.9694
   6378778.59847   4950263.53543  23480727.8204   23480723.9184
     -3906.6564
   4372296.63648   3392152.45743  23729379.0394   23729372.5314
     -2794.8914
   3940989.46548   3057495.89145  22867001.9224   22866994.7774
     -2440.9064
  -4879115.65648  -3790658.84746  22035864.8284   22035860.1374
      2537.8914
 04  9  8 15 14 15.0000000  0  7G 1G11G14G15G19G22G25
  -4804906.68547  -3732909.21045  22470022.9614   22470018.3674
      2509.2504
  -3580925.50049  -2781996.02746  21901311.5164   21901305.2234
      1650.8594
   2843053.90049   2204963.04247  21042011.4844   21042005.5004
     -1963.9374
   6437400.07646   4995942.58543  23491883.2504   23491878.9144
     -3909.4844
   4414245.26148   3424839.66143  23737361.6564   23737355.3674
     -2798.3124
   3977621.88648   3086040.61845  22873972.5474   22873965.7274
     -2443.3284
  -4917141.30248  -3820289.20546  22028628.9844   22028624.0984
      2532.1564
 04  9  8 15 14 30.0000000  0  7G 1G11G14G15G19G22G25
  -4842514.35848  -3762213.87145  22462866.0004   22462861.7234
      2504.8284
  -3605634.67549  -2801249.92446  21896609.4534   21896602.7934
      1643.5634
   2872546.81349   2227944.51547  21047623.9454   21047617.6684
     -1968.6414
   6496060.59447   5041652.02742  23503045.5864   23503041.5904
     -3912.1254
   4456242.03148   3457564.38743  23745352.8754   23745346.9774
     -2801.5004
   4014289.54048   3114612.79045  22880950.5234   22880943.6884
     -2445.7504
  -4955083.37048  -3849854.43746  22021408.6644   22021404.1644
      2526.6094
 04  9  8 15 14 45.0000000  0  7G 1G11G14G15G19G22G25
  -4880057.50648  -3791468.26745  22455722.1174   22455717.8204
      2500.7034
  -3630233.78349  -2820418.07846  21891928.4614   21891922.1414
      1636.2664
   2902110.76749   2250981.35347  21053249.5864   21053243.5744
     -1973.2974
   6554759.55347   5087391.43842  23514216.2194   23514212.0084
     -3914.5314
   4498286.48247   3490326.25643  23753353.8054   23753347.3554
     -2804.6724
   4050992.18448   3143212.22745  22887934.8984   22887928.0314
     -2448.0164
  -4992941.64648  -3879354.38146  22014204.6484   22014199.6094
      2521.0004
 04  9  8 15 15  0.0000000  0  7G 1G11G14G15G19G22G25
  -4917536.50148  -3820672.66345  22448590.0004   22448585.8754
      2496.2814
  -3654723.02949  -2839500.60546  21887268.5234   21887262.1844
      1628.7814
   2931744.94949   2274072.91347  21058888.8984   21058882.4144
     -1978.1414
   6613496.19247   5133160.20543  23525393.1724   23525389.2114
     -3917.2344
   4540377.68048   3523124.55343  23761363.7814   23761357.7274
     -2807.9064
   4087729.30348   3171838.52745  22894925.7814   22894918.5704
     -2450.4374
  -5030716.40248  -3908789.24346  22007016.4694   22007011.7074
      2515.3284
 04  9  8 15 15 15.0000000  0  7G 1G11G14G15G19G22G25
  -4954946.00148  -3849822.91645  22441471.2504   22441466.8204
      2491.7504
  -3679096.92949  -2858493.26046  21882630.3914   21882623.6294
      1621.1884
   2961454.46449   2297223.18047  21064542.6644   21064536.5164
     -1983.1094
   6672275.46447   5178962.18143  23536578.8054   23536575.0124
     -3920.0314
   4582520.41148   3555963.00843  23769383.7274   23769377.0984
     -2811.1874
   4124506.15647   3200495.79445  22901924.1414   22901917.1484
     -2453.1094
  -5068402.17049  -3938154.76646  21999844.8834   21999839.6954
      2509.4694
 04  9  8 15 15 30.0000000  0  7G 1G11G14G15G19G22G25
  -4992285.11148  -3878918.30645  22434365.7274   22434361.3164
      2487.0474
  -3703354.49749  -2877395.27546  21878014.1174   21878007.8014
      1613.3594
   2991239.89649   2320432.59447  21070210.4694   21070204.5204
     -1988.2034
   6731097.86247   5224797.73542  23547772.2974   23547768.2584
     -3922.9374
   4624715.18948   3588842.00543  23777412.7664   23777406.4534
     -2814.6874
   4161323.44748   3229184.56645  22908930.2664   22908923.1454
     -2455.7814
  -5105997.96349  -3967450.18046  21992690.6644   21992685.6564
      2503.4064
 04  9  8 15 15 45.0000000  0  7G 1G11G14G15G19G22G25
  -5029560.85548  -3907964.32645  22427272.7194   22427268.2194
      2482.8134
  -3727502.57149  -2896211.95946  21873418.8984   21873412.6804
      1606.1254
   3021093.91449   2343695.45047  21075891.6484   21075885.4494
     -1992.6414
   6789955.99647   5270661.17243  23558972.9844   23558968.5204
     -3925.0944
   4666954.58847   3621755.79343  23785450.4534   23785444.4304
     -2817.5314
   4198174.05348   3257899.28945  22915942.2114   22915935.2194
     -2457.9694
  -5143510.37749  -3996680.63046  21985552.2274   21985547.1884
      2497.9694
 04  9  8 15 16  0.0000000  0  7G 1G11G14G15G19G22G25
  -5066770.35949  -3936958.72745  22420191.7814   22420186.9064
      2478.4224
  -3751538.21049  -2914941.02446  21868845.2344   21868839.0274
      1598.7194
   3051019.04049   2367013.72147  21081586.1174   21081580.1024
     -1997.3594
   6848852.39547   5316554.43143  23570180.7504   23570176.3954
     -3927.6564
   4709240.83847   3654706.08943  23793497.1724   23793491.1604
     -2820.5624
   4235060.72848   3286642.13445  22922961.7114   22922954.4494
     -2460.2194
  -5180936.43449  -4025843.76746  21978430.2974   21978425.0944
      2492.2664
 04  9  8 15 16 15.0000000  0  7G 1G11G14G15G19G22G25
  -5103917.13549  -3965904.25445  22413122.5944   22413117.6804
      2474.2974
  -3775464.74449  -2933585.08046  21864291.9454   21864285.7704
      1591.4224
   3081011.30549   2390384.31247  21087293.2274   21087286.6484
     -2001.7814
   6907783.15247   5362474.44543  23581394.8364   23581390.7934
     -3929.9374
   4751570.01347   3687689.82743  23801552.1644   23801546.2154
     -2823.3594
   4271979.93548   3315410.32845  22929987.5004   22929980.4264
     -2462.4064
  -5218279.41149  -4054942.18246  21971323.9144   21971318.9144
      2486.7664
 04  9  8 15 16 30.0000000  0  7G 1G11G14G15G19G22G25
  -5140994.91348  -3994796.00145  22406067.2424   22406062.4844
      2469.5474
  -3799275.80249  -2952139.15546  21859761.0164   21859754.7894
      1583.4534
   3111076.68849   2413811.87247  21093014.8054   21093008.2664
     -2006.8754
   6966754.08048   5408425.77743  23592616.5164   23592612.6724
     -3932.7344
   4793947.91147   3720711.54443  23809615.9224   23809610.2504
     -2826.8284
   4308937.82948   3344208.65445  22937020.7274   22937013.4924
     -2465.2504
  -5255532.87349  -4083970.82846  21964235.1564   21964229.7664
      2480.5004
 04  9  8 15 16 45.0000000  0  7G 1G11G14G15G19G22G25
  -5178004.34848  -4023634.50245  22399024.1414   22399020.1604
      2464.9384
  -3822972.07249  -2970603.79246  21855251.8754   21855245.4264
      1575.8444
   3141214.30549   2437295.72847  21098749.8914   21098743.2624
     -2011.7034
   7025764.19047   5454407.61243  23603845.2584   23603842.0984
     -3935.3754
   4836373.37047   3753770.32543  23817690.5314   23817684.3674
     -2830.0474
   4345933.56648   3373036.47245  22944060.3594   22944053.2814
     -2467.7034
  -5292697.34249  -4112930.13746  21957162.8914   21957157.3874
      2474.5164
 04  9  8 15 17  0.0000000  0  7G 1G11G14G15G19G22G25
  -5214946.19149  -4052420.35345  22391994.6804   22391990.1764
      2460.5634
  -3846553.96749  -2988979.30046  21850764.2274   21850757.9384
      1568.3594
   3171422.97849   2460834.94647  21104498.1334   21104491.5824
     -2016.1724
   7084812.29547   5500419.08743  23615081.9694   23615078.8204
     -3937.7344
   4878845.08947   3786865.11743  23825772.1954   23825765.4694
     -2832.9224
   4382966.15848   3401893.00445  22951107.4844   22951100.2934
     -2469.9844
  -5329773.31349  -4141820.47946  21950107.4454   21950101.8054
      2468.7814
 04  9  8 15 17 15.0000000  0  7G 1G11G14G15G19G22G25
  -5251820.63048  -4081153.65945  22384977.6564   22384973.5234
      2456.0634
  -3870021.62449  -3007265.79046  21846298.6174   21846292.2664
      1560.7194
   3201702.24649   2484429.17647  21110260.0864   21110253.8834
     -2020.9064
   7143897.86147   5546459.74343  23626325.7194   23626322.4264
     -3940.2344
   4921362.52748   3819995.55143  23833863.2034   23833857.2584
     -2835.9534
   4420035.48148   3430778.17745  22958161.6884   22958154.4454
     -2472.4694
  -5366760.70149  -4170641.79646  21943068.7584   21943064.0164
      2462.9534
 04  9  8 15 17 30.0000000  0  7G 1G11G14G15G19G22G25
  -5288627.75449  -4109834.52345  22377973.3674   22377969.5164
      2451.3754
  -3893374.87849  -3025463.14146  21841854.5784   21841847.9224
      1552.8754
   3232051.70349   2508078.08947  21116035.3524   21116029.4964
     -2025.7344
   7203020.46847   5592529.25843  23637576.6644   23637573.2154
     -3942.8594
   4963925.04048   3853161.09543  23841961.7424   23841956.5044
     -2839.1724
   4457141.29048   3459691.75745  22965222.8054   22965215.2894
     -2475.0784
  -5403659.43549  -4199394.05446  21936047.5234   21936041.5864
      2456.8134
 04  9  8 15 17 45.0000000  0  7G 1G11G14G15G19G22G25
  -5325368.30049  -4138463.50545  22370981.5004   22370977.7274
      2447.3284
  -3916614.38949  -3043571.85846  21837432.1174   21837425.3404
      1545.6414
   3262470.27649   2531780.85747  21121823.9144   21121817.8794
     -2030.0944
   7262179.12247   5638626.88843  23648833.9304   23648830.4884
     -3945.0004
   5006531.48747   3886360.91443  23850069.6254   23850063.6214
     -2841.7034
   4494282.78548   3488633.15745  22972290.2664   22972283.0664
     -2477.1414
  -5440470.06449  -4228077.63446  21929042.3754   21929037.2934
      2451.2344
 04  9  8 15 18  0.0000000  0  7G 1G11G14G15G19G22G25
  -5362040.58149  -4167039.28145  22364004.0784   22363999.6764
      2442.6414
  -3939738.45949  -3061590.62146  21833032.2894   21833025.3794
      1537.8444
   3292959.33249   2555538.55447  21127625.7504   21127619.1644
     -2034.8444
   7321374.99047   5684753.47843  23660098.2664   23660095.2384
     -3947.5314
   5049183.07448   3919595.85843  23858185.8984   23858180.1804
     -2844.8754
   4531461.47748   3517603.53345  22979365.6024   22979357.7114
     -2479.7504
  -5477190.66649  -4256691.08446  21922054.6804   21922049.4694
      2445.1254
 04  9  8 15 18 15.0000000  0  7G 1G11G14G15G19G22G25
  -5398645.22749  -4195562.36945  22357038.1804   22357033.6684
      2438.3594
  -3962747.55449  -3079519.78346  21828653.0084   21828646.7624
      1530.5004
   3323517.86049   2579350.39047  21133441.2814   21133434.4654
     -2039.2814
   7380607.06548   5730908.27543  23671369.8984   23671367.4614
     -3949.7194
   5091878.67747   3952865.10643  23866310.3524   23866304.8834
     -2847.5474
   4568676.62348   3546602.31845  22986447.5784   22986440.2664
     -2481.8754
  -5513821.71149  -4285234.74146  21915083.8674   21915079.1524
      2439.4224
 04  9  8 15 18 30.0000000  0  7G 1G11G14G15G19G22G25
  -5435183.34248  -4224033.61445  22350084.3914   22350079.9264
      2433.6884
  -3985642.51349  -3097360.02646  21824296.4844   21824290.2774
      1522.5314
   3354144.50449   2603215.29947  21139268.9384   21139262.2544
     -2044.0314
   7439873.90847   5777090.17442  23682648.3134   23682645.6844
     -3952.1564
   5134616.54547   3986167.31543  23874443.8364   23874437.9884
     -2850.6094
   4605927.01849   3575628.58345  22993535.5704   22993528.8054
     -2484.5474
  -5550364.09749  -4313709.30846  21908130.4144   21908125.0234
      2433.2194
 04  9  8 15 18 45.0000000  0  7G 1G11G14G15G19G22G25
  -5471655.05148  -4252453.11645  22343143.9384   22343140.0704
      2429.2974
  -4008423.40749  -3115111.37446  21819961.5004   21819955.1214
      1515.0004
   3384838.79849   2627132.92247  21145109.7664   21145103.2304
     -2048.4694
   7499175.00047   5823298.75342  23693932.8594   23693930.3794
     -3954.5004
   5177396.23548   4019502.09343  23882584.9384   23882578.7074
     -2853.2974
   4643212.47849   3604682.15145  23000631.3134   23000623.5904
     -2486.7974
  -5586817.64749  -4342114.66346  21901193.6414   21901188.5704
      2427.3754
 04  9  8 15 19  0.0000000  0  7G 1G11G14G15G19G22G25
  -5508059.03349  -4280819.84345  22336216.7504   22336212.6844
      2424.3284
  -4031088.89549  -3132772.79846  21815648.7504   21815641.9964
      1506.8444
   3415601.74449   2651104.04447  21150963.5864   21150957.4694
     -2053.4534
   7558511.22847   5869534.72842  23705224.3444   23705221.1094
     -3957.2344
   5220218.65847   4052870.17843  23890733.8834   23890727.3204
     -2856.5004
   4680534.16149   3633763.95245  23007733.2734   23007725.5594
     -2489.5784
  -5623180.95149  -4370449.68146  21894273.8834   21894268.3594
      2420.9844
 04  9  8 15 19 15.0000000  0  7G 1G11G14G15G19G22G25
  -5544393.58949  -4309132.46045  22329303.0704   22329298.6724
      2420.0314
  -4053637.02149  -3150342.76646  21811357.8914   21811351.1294
      1499.2814
   3446434.83949   2675129.82347  21156831.4064   21156824.9964
     -2057.8594
   7617884.03247   5915799.23642  23716522.1094   23716519.1134
     -3959.4694
   5263084.99347   4086272.49243  23898890.2424   23898884.9884
     -2859.2194
   4717893.74449   3662875.28045  23014842.4384   23014835.1914
     -2491.9224
  -5659452.02049  -4398712.83746  21887371.5314   21887366.3164
      2414.9844
 04  9  8 15 19 30.0000000  0  7G 1G11G14G15G19G22G25
  -5580659.84948  -4337391.87445  22322401.8674   22322397.7704
      2415.6564
  -4076068.84749  -3167822.12546  21807089.0944   21807082.1724
      1491.8284
   3477336.54949   2699209.06947  21162711.5704   21162705.4574
     -2062.2344
   7677291.96847   5962091.08442  23727828.0944   23727824.1524
     -3961.5164
   5305993.66147   4119707.78243  23907056.1484   23907051.0634
     -2861.7814
   4755289.89849   3692015.11345  23021958.6804   23021951.6764
     -2494.0784
  -5695631.78449  -4426904.85146  21880486.9224   21880482.2424
      2409.1564
 04  9  8 15 19 45.0000000  0  7G 1G11G14G15G19G22G25
  -5616860.76948  -4365600.36645  22315512.7584   22315508.8874
      2411.2034
  -4098387.18549  -3185213.04046  21802842.2664   21802835.4264
      1484.0004
   3508303.50449   2723339.15447  21168604.6414   21168597.8054
     -2066.7664
   7736731.59948   6008407.62043  23739139.0164   23739136.0434
     -3963.8124
   5348941.19447   4153173.34143  23915228.6024   23915223.6724
     -2864.5004
   4792719.63648   3721181.11645  23029081.7344   23029073.9264
     -2496.5624
  -5731723.11349  -4455027.95546  21873618.5004   21873613.7424
      2403.0164
 04  9  8 15 20  0.0000000  0  7G 1G11G14G15G19G22G25
  -5652995.51348  -4393757.30945  22308636.4384   22308632.2624
      2406.6414
  -4120591.07749  -3202514.77046  21798616.7664   21798610.2624
      1476.3284
   3539336.18349   2747520.45047  21174509.9774   21174503.5434
     -2071.1724
   7796203.39248   6054749.21743  23750456.3444   23750452.8404
     -3965.9694
   5391927.91247   4186669.44543  23923408.6954   23923403.2154
     -2867.2194
   4830183.65849   3750373.84345  23036210.7344   23036202.7814
     -2498.8444
  -5767724.85249  -4483081.23946  21866767.8594   21866762.8794
      2397.0164
 04  9  8 15 20 15.0000000  0  7G 1G11G14G15G19G22G25
  -5689060.89049  -4421860.18545  22301773.6024   22301769.3244
      2402.1254
  -4142677.24949  -3219724.77846  21794414.0944   21794407.2774
      1468.6094
   3570437.54449   2771755.26546  21180427.7734   21180421.5664
     -2075.6254
   7855710.24848   6101118.15343  23761779.8134   23761776.3594
     -3968.1874
   5434956.55547   4220198.23843  23931597.3204   23931591.3794
     -2869.8914
   4867685.05248   3779595.68545  23043346.8834   23043339.6804
     -2501.2344
  -5803633.64749  -4511062.10146  21859934.2664   21859929.6644
      2390.9224
 04  9  8 15 20 30.0000000  0  7G 1G11G14G15G19G22G25
  -5725057.12848  -4449909.17745  22294923.4614   22294919.0824
      2397.5634
  -4164645.62649  -3236843.00446  21790233.8204   21790226.7664
      1460.7504
   3601607.15949   2796043.27247  21186359.5314   21186352.6564
     -2080.1094
   7915251.47847   6147513.86643  23773110.6724   23773107.0394
     -3970.4694
   5478026.46547   4253759.18343  23939792.7664   23939787.0664
     -2872.6254
   4905223.44348   3808846.33945  23050489.9694   23050482.8284
     -2503.6414
  -5839449.40949  -4538970.48246  21853118.9304   21853114.4494
      2384.7034
 04  9  8 15 20 45.0000000  0  7G 1G11G14G15G19G22G25
  -5760985.60448  -4477905.40645  22288086.4614   22288082.3244
      2393.0474
  -4186497.63949  -3253870.55146  21786075.4304   21786068.8284
      1452.9694
   3632843.10349   2820382.96246  21192303.6174   21192297.6174
     -2084.5474
   7974825.25947   6193934.93642  23784447.0164   23784443.2584
     -3972.6414
   5521135.74748   4287350.76443  23947996.7194   23947990.4264
     -2875.2814
   4942797.27048   3838124.62545  23057640.3444   23057632.6414
     -2506.0784
  -5875173.46649  -4566807.38646  21846321.1564   21846315.8094
      2378.6094
 04  9  8 15 21  0.0000000  0  7G 1G11G14G15G19G22G25
  -5796844.41548  -4505847.31845  22281262.8054   22281258.5594
      2388.1414
  -4208231.20849  -3270805.80246  21781939.9304   21781933.3754
      1444.8444
   3664147.05549   2844775.63047  21198260.5314   21198254.2974
     -2089.2814
   8034433.20447   6240382.63242  23795789.2344   23795786.3134
     -3975.0944
   5564285.84548   4320974.18143  23956207.4694   23956202.3714
     -2878.0784
   4980408.41048   3867431.97745  23064797.4614   23064790.5474
     -2508.7194
  -5910803.67349  -4594571.17046  21839541.1024   21839535.4184
      2372.1564
 04  9  8 15 21 15.0000000  0  7G 1G11G14G15G19G22G25
  -5832634.22548  -4533735.47745  22274452.3914   22274447.9804
      2383.7194
  -4229846.83549  -3287649.15146  21777826.5864   21777819.2464
      1437.1254
   3695518.10249   2869220.59147  21204230.3984   21204224.3794
     -2093.6414
   8094074.27447   6286856.17742  23807139.4304   23807135.8204
     -3977.2194
   5607475.62947   4354628.52843  23964426.1884   23964420.2114
     -2880.6564
   5018056.11848   3896767.81745  23071961.7194   23071954.4264
     -2511.1094
  -5946340.52549  -4622262.22146  21832778.3204   21832772.9384
      2365.9844
 04  9  8 15 21 30.0000000  0  7G 1G11G14G15G19G22G25
  -5868352.96148  -4561568.23745  22267654.9924   22267650.8014
      2378.8594
  -4251342.27649  -3304398.83847  21773735.7034   21773729.0664
      1429.0164
   3726957.94249   2893719.16047  21210212.9144   21210207.0004
     -2098.3124
   8153750.09447   6333356.75442  23818495.0634   23818491.8444
     -3979.5314
   5650706.69447   4388315.03943  23972653.0164   23972646.7074
     -2883.4224
   5055742.25748   3926133.60745  23079133.4614   23079125.8404
     -2513.7034
  -5981781.75049  -4649878.74246  21826034.1564   21826028.8874
      2359.5474
 04  9  8 15 21 45.0000000  0  7G 1G11G14G15G19G22G25
  -5904003.92748  -4589348.18945  22260871.1484   22260866.5234
      2374.3284
  -4272720.86448  -3321057.48646  21769667.5004   21769660.9534
      1421.2974
   3758462.93049   2918268.49147  21216208.0944   21216201.7664
     -2102.5944
   8213457.01947   6379881.56142  23829856.8674   23829854.3014
     -3981.4534
   5693975.30647   4422030.82043  23980886.1564   23980880.7234
     -2885.8914
   5093463.46548   3955526.73945  23086310.8984   23086304.0164
     -2516.0004
  -6017130.42949  -4677423.14946  21819307.6954   21819302.3284
      2353.3594
 04  9  8 15 22  0.0000000  0  7G 1G11G14G15G19G22G25
  -5939585.03948  -4617073.71445  22254100.2664   22254095.8094
      2369.7034
  -4293980.30349  -3337623.27847  21765621.9924   21765615.3914
      1413.2344
   3790034.92049   2942870.03547  21222216.1804   21222210.1994
     -2107.0314
   8273196.77747   6426431.98742  23841225.2034   23841222.2424
     -3983.7664
   5737283.07847   4455777.07943  23989127.9614   23989121.7584
     -2888.4844
   5131221.77648   3984948.77545  23093496.7114   23093489.3284
     -2518.5004
  -6052384.18349  -4704893.59446  21812599.1644   21812593.4694
      2347.0314
 04  9  8 15 22 15.0000000  0  7G 1G11G14G15G19G22G25
  -5975097.36248  -4644745.64445  22247342.7734   22247338.1804
      2364.9384
  -4315121.55749  -3354096.98846  21761599.2034   21761592.6214
      1405.2344
   3821672.41249   2967522.61546  21228236.6254   21228230.4384
     -2111.5944
   8332967.92247   6473006.81743  23852599.4774   23852596.4104
     -3986.0164
   5780628.50847   4489552.70543  23997375.7814   23997369.7464
     -2891.1874
   5169016.02248   4014398.80745  23100688.2114   23100681.2304
     -2521.0474
  -6087544.11048  -4732290.93546  21805908.2504   21805902.8954
      2340.6724
 04  9  8 15 22 30.0000000  0  7G 1G11G14G15G19G22G25
  -6010542.31648  -4672365.08346  22240597.7734   22240593.0164
      2360.8914
  -4336145.97448  -3370479.64646  21757598.1564   21757591.4884
      1397.7974
   3853373.83249   2992225.01246  21234268.9844   21234262.8054
     -2115.4224
   8392768.77648   6519604.83043  23863978.9384   23863975.8554
     -3987.6254
   5824009.72347   4523356.23343  24005631.1254   24005625.7114
     -2893.2344
   5206844.76048   4043875.71445  23107886.9144   23107879.9614
     -2522.9844
  -6122611.20848  -4759615.92946  21799235.0784   21799229.9654
      2334.7194
 04  9  8 15 22 45.0000000  0  7G 1G11G14G15G19G22G25
  -6045919.48148  -4699931.68745  22233865.5004   22233860.9144
      2356.2034
  -4357052.95148  -3386770.81146  21753619.9534   21753613.4734
      1389.8914
   3885139.20949   3016977.24846  21240314.2894   21240307.9574
     -2119.7814
   8452599.35548   6566226.01642  23875364.3754   23875361.6214
     -3989.7344
   5867426.62247   4557187.53543  24013893.3054   24013888.3874
     -2895.6094
   5244708.19948   4073379.66245  23115092.2504   23115084.8284
     -2525.4534
  -6157584.85248  -4786868.10346  21792579.7584   21792574.9184
      2328.4694
 04  9  8 15 23  0.0000000  0  7G 1G11G14G15G19G22G25
  -6081226.40548  -4727443.57445  22227146.8594   22227142.3284
      2351.6414
  -4377839.86249  -3402968.40046  21749663.9144   21749657.3444
      1382.0314
   3916970.68349   3041780.98146  21246371.5704   21246365.3594
     -2124.0474
   8512461.74947   6612872.00042  23886756.2584   23886753.2074
     -3991.6414
   5910881.18047   4591048.19343  24022162.2664   24022157.3674
     -2898.0474
   5282608.64048   4102912.44045  23122304.4224   23122297.7344
     -2527.7194
  -6192462.35848  -4814045.37846  21785942.7344   21785937.9804
      2322.1724
 04  9  8 15 23 15.0000000  0  7G 1G11G14G15G19G22G25
  -6116466.66148  -4754903.49545  22220440.7584   22220436.3444
      2347.0634
  -4398510.29849  -3419075.23946  21745730.5234   21745723.9454
      1374.1094
   3948864.29849   3066633.14046  21252440.1174   21252434.3524
     -2128.3754
   8572351.95947   6659539.62742  23898153.2194   23898149.7274
     -3993.6254
   5954369.32947   4624934.99743  24030438.0394   24030433.0274
     -2900.4224
   5320542.54048   4132471.29845  23129522.8754   23129515.5904
     -2530.0784
  -6227247.18048  -4841150.42147  21779323.6254   21779319.0434
      2315.8594
 04  9  8 15 23 30.0000000  0  7G 1G11G14G15G19G22G25
  -6151636.24548  -4782308.34545  22213748.2504   22213743.4574
      2342.2504
  -4419060.06449  -3435088.05246  21741819.9924   21741813.1564
      1365.8914
   3980823.78149   3091536.61646  21258522.2274   21258516.0204
     -2132.8754
   8632273.62647   6706231.79242  23909556.0474   23909552.3404
     -3995.8594
   5997894.62047   4658850.81043  24038720.5704   24038715.6254
     -2903.0004
   5358513.75548   4162059.22545  23136748.8284   23136741.1174
     -2532.7034
  -6261935.15049  -4868179.99947  21772722.7274   21772717.8874
      2309.2664
 04  9  8 15 23 45.0000000  0  7G 1G11G14G15G19G22G25
  -6186737.01248  -4809659.58045  22207068.6954   22207064.0434
      2337.7344
  -4439490.76449  -3451008.07846  21737932.5474   21737925.4804
      1358.0784
   4012847.08749   3116489.81946  21264616.3134   21264609.6524
     -2137.0164
   8692224.52947   6752946.72242  23920964.3444   23920960.4654
     -3997.6874
   6041454.75947   4692793.73443  24047009.9384   24047005.6764
     -2905.2194
   5396520.33148   4191674.69744  23143981.1484   23143974.0084
     -2534.9694
  -6296527.85448  -4895135.35047  21766140.0314   21766134.9454
      2303.0784
 04  9  8 15 24  0.0000000  0  7G 1G11G14G15G19G22G25
  -6221769.37248  -4836957.49245  22200402.4384   22200397.8054
      2333.3134
  -4459802.92849  -3466835.75247  21734067.1174   21734060.3754
      1350.2974
   4044933.40849   3141492.14446  21270721.8444   21270715.6254
     -2141.0624
   8752203.93547   6799683.86443  23932377.9304   23932374.6524
     -3999.5164
   6085048.80947   4726763.07343  24055305.2034   24055301.0744
     -2907.2504
   5434561.78848   4221317.38744  23151220.6564   23151213.2424
     -2537.1564
  -6331025.55849  -4922016.65447  21759575.1564   21759570.3204
      2296.8284
 04  9  8 15 24 15.0000000  0  7G 1G11G14G15G19G22G25
  -6256733.09248  -4864201.94845  22193748.7114   22193744.0554
      2328.7344
  -4479996.02049  -3482570.63046  21730224.5944   21730217.6804
      1342.3594
   4077082.73449   3166543.55446  21276839.7664   21276832.8954
     -2145.2504
   8812211.69747   6846443.13742  23943796.6724   23943793.6484
     -4001.3754
   6128676.65047   4760758.77043  24063606.9304   24063603.1564
     -2909.5474
   5472638.20548   4250987.28444  23158465.9064   23158459.6214
     -2539.5004
  -6365427.79549  -4948823.58947  21753028.8754   21753023.8054
      2290.3594
 04  9  8 15 24 30.0000000  0  7G 1G11G14G15G19G22G25
  -6291628.07448  -4891392.81945  22187108.5634   22187104.0004
      2323.9224
  -4500069.84648  -3498212.57746  21726404.8134   21726398.2664
      1334.2034
   4109294.86149   3191643.90746  21282969.8054   21282962.5704
     -2149.6094
   8872247.55547   6893224.29042  23955221.2974   23955218.5664
     -4003.4374
   6172337.94647   4794780.49943  24071916.0474   24071911.3524
     -2912.0474
   5510749.58948   4280684.42144  23165718.1644   23165712.0984
     -2542.0624
  -6399734.25748  -4975555.87247  21746500.3674   21746495.3284
      2283.8444
 04  9  8 15 24 45.0000000  0  7G 1G11G14G15G19G22G25
  -6326452.12248  -4918528.43845  22180481.9454   22180477.2504
      2319.5634
  -4520022.06948  -3513759.76346  21722607.9144   21722601.5594
      1326.3444
   4141571.65849   3216794.64446  21289111.3204   21289105.3204
     -2153.6874
   8932313.31447   6940028.69442  23966651.5704   23966648.2344
     -4005.1414
   6216034.37947   4828829.64943  24080231.7734   24080226.1954
     -2914.0164
   5548897.99548   4310410.43644  23172977.7194   23172970.6764
     -2544.2034
  -6433942.54648  -5002211.68146  21739990.5634   21739985.2584
      2277.5004
 04  9  8 15 25  0.0000000  0  7G 1G11G14G15G19G22G25
  -6361206.46748  -4945609.72745  22173867.9384   22173863.7664
      2314.5474
  -4539854.00849  -3529213.22946  21718834.2814   21718827.3594
      1318.1094
   4173911.44349   3241994.45646  21295265.5554   21295259.3324
     -2158.1094
   8992407.35247   6986855.17142  23978087.4924   23978083.3284
     -4007.2664
   6259764.25847   4862904.83643  24088553.6484   24088547.6094
     -2916.5164
   5587082.07348   4340164.23844  23180244.3524   23180237.1174
     -2546.7664
  -6468053.82848  -5028791.87746  21733499.3594   21733493.9494
      2270.7344
 04  9  8 15 25 15.0000000  0  7G 1G11G14G15G19G22G25
  -6395892.91848  -4972638.10645  22167267.6334   22167263.3444
      2310.1724
  -4559567.12049  -3544574.09947  21715082.7734   21715075.9454
      1310.2344
   4206312.14049   3267241.74946  21301431.4224   21301424.9264
     -2162.0624
   9052527.49947   7033701.97042  23989527.3674   23989524.5514
     -4008.8754
   6303525.32947   4897004.35443  24096880.6884   24096874.5434
     -2918.4694
   5625299.94848   4369944.35544  23187516.5784   23187509.6254
     -2549.0164
  -6502069.51948  -5055297.60046  21727026.8134   21727021.4884
      2264.5004
 04  9  8 15 25 30.0000000  0  7G 1G11G14G15G19G22G25
  -6430509.42849  -4999612.00245  22160680.6414   22160675.7584
      2305.6724
  -4579159.30749  -3559840.74347  21711354.0864   21711347.5474
      1302.2504
   4238775.59549   3292537.93246  21307608.7584   21307602.1764
     -2166.1564
   9112675.51747   7080570.50442  24000973.2504   24000969.8554
     -4010.6564
   6347319.09247   4931129.33343  24105214.3284   24105208.1564
     -2920.5164
   5663553.60548   4399752.36844  23194795.9144   23194788.9614
     -2551.2194
  -6535987.51649  -5081727.18446  21720572.1484   21720566.7814
      2258.1724
 04  9  8 15 25 45.0000000  0  7G 1G11G14G15G19G22G25
  -6465057.75049  -5026532.76245  22154105.7034   22154101.6174
      2301.0164
  -4598632.25249  -3575014.47346  21707648.8834   21707642.4104
      1294.2664
   4271299.61149   3317881.31346  21313798.1724   21313791.4264
     -2170.2504
   9172849.21547   7127459.01142  24012423.6804   24012420.2274
     -4012.2974
   6391143.39847   4965278.05942  24113553.4774   24113548.0314
     -2922.6094
   5701841.08148   4429586.74144  23202082.0394   23202074.4804
     -2553.6254
  -6569809.38849  -5108081.88646  21714135.7894   21714130.5124
      2251.6414
 04  9  8 15 26  0.0000000  0  7G 1G11G14G15G19G22G25
  -6499537.06648  -5053399.74245  22147544.8524   22147540.0944
      2296.3594
  -4617984.92149  -3590094.47146  21703965.9844   21703959.7504
      1286.0944
   4303884.84849   3343272.39846  21319998.5864   21319992.3284
     -2174.4064
   9233049.10347   7174367.99542  24023879.5944   24023876.4694
     -4014.2974
   6434998.61947   4999450.94542  24121898.5704   24121892.6884
     -2924.7344
   5740163.30048   4459448.16844  23209374.1644   23209366.9844
     -2556.0944
  -6603534.03148  -5134360.82146  21707718.3754   21707712.8714
      2245.0944
 04  9  8 15 26 15.0000000  0  7G 1G11G14G15G19G22G25
  -6533945.99148  -5080211.88746  22140996.6804   22140992.3874
      2291.5944
  -4637215.89649  -3605079.66147  21700306.5784   21700300.0784
      1278.0164
   4336532.38149   3368712.02146  21326211.2814   21326204.8834
     -2178.5004
   9293276.17247   7221298.13542  24035340.2664   24035337.0704
     -4015.9694
   6478885.55347   5033648.51643  24130250.5864   24130243.9104
     -2926.8594
   5778521.46448   4489337.61344  23216673.4534   23216666.5164
     -2558.3594
  -6637159.83548  -5160562.72746  21701319.5864   21701314.5944
      2238.4844
 04  9  8 15 26 30.0000000  0  7G 1G11G14G15G19G22G25
  -6568284.25848  -5106968.95646  22134462.1484   22134457.8634
      2286.9224
  -4656324.73949  -3619969.66947  21696670.2504   21696663.6254
      1269.9694
   4369242.15349   3394200.14546  21332435.6414   21332429.8054
     -2182.7034
   9353530.47947   7268249.48942  24046806.3834   24046803.4024
     -4017.7194
   6522804.16247   5067870.80443  24138608.5164   24138601.8404
     -2928.8444
   5816915.83548   4519255.27944  23223979.5474   23223973.0944
     -2560.7194
  -6670686.34148  -5186687.27646  21694939.8594   21694935.0124
      2231.9064
 04  9  8 15 26 45.0000000  0  6G 1G11G14G19G22G25
  -6602554.91048  -5133673.34945  22127940.7584   22127936.5004
      2282.3284
  -4675314.43049  -3634766.83247  21693056.7734   21693050.3284
      1261.9224
   4402010.74049   3419734.09846  21338671.4454   21338665.4734
     -2186.5944
   6566750.97847   5102115.04243  24146971.2894   24146964.7894
     -2930.8284
   5855343.11348   4549198.57344  23231291.9224   23231284.9614
     -2562.9694
  -6704116.39748  -5212736.65446  21688578.1484   21688572.9534
      2225.3284
 04  9  8 15 27  0.0000000  0  6G 1G11G14G19G22G25
  -6636755.80048  -5160323.38146  22121432.9224   22121428.3914
      2277.7664
  -4694182.61748  -3649469.33246  21689466.1484   21689459.8134
      1253.8444
   4434840.11049   3445315.40746  21344918.6484   21344912.2584
     -2190.6094
   6610727.70947   5136382.59243  24155339.3674   24155333.0784
     -2932.8124
   5893805.47248   4579169.21544  23238611.2584   23238604.7464
     -2565.2664
  -6737447.68948  -5238709.08046  21682235.5944   21682230.2304
      2218.8284
 04  9  8 15 27 15.0000000  0  6G 1G11G14G19G22G25
  -6670887.11548  -5186919.19646  22114937.6954   22114933.6954
      2273.0314
  -4712929.40548  -3664077.22046  21685899.0084   21685892.5594
      1245.6884
   4467729.77449   3470943.70446  21351177.5004   21351171.5554
     -2194.6724
   6654733.59547   5170672.81043  24163713.6954   24163707.9654
     -2934.6874
   5932302.51748   4609166.87144  23245937.1024   23245930.7664
     -2567.6094
  -6770680.20348  -5264604.52846  21675911.4064   21675906.1914
      2212.1414
 04  9  8 15 27 30.0000000  0  6G 1G11G14G19G22G25
  -6704945.89348  -5213458.49746  22108456.7814   22108452.0474
      2268.0634
  -4731551.76449  -3678588.15646  21682355.1804   21682348.5044
      1237.2034
   4500682.41849   3496621.07846  21357448.0634   21357442.0314
     -2198.9844
   6698771.15847   5204987.80042  24172093.6884   24172087.6954
     -2936.9844
   5970837.26048   4639193.92244  23253270.2194   23253263.4924
     -2570.2814
  -6803810.79848  -5290420.57246  21669606.7584   21669601.6644
      2205.1564
 04  9  8 15 27 45.0000000  0  7G 1G11G14G20G19G22G25
  -6738935.16648  -5239943.63146  22101988.6254   22101984.5864
      2263.5314
  -4750052.59649  -3693004.40046  21678834.7114   21678827.9774
      1229.2034
   4533694.66549   3522344.89246  21363729.9844   21363723.7344
     -2202.8754
   -116296.08257    -84542.62952  24227162.6024   24227157.3594
      2912.6254
   6742836.94147   5239324.73043  24180479.8594   24180473.7624
     -2938.7664
   6009406.55848   4669247.90244  23260609.9924   23260603.4884
     -2572.5314
  -6836842.19148  -5316159.29246  21663321.1804   21663315.6884
      2198.6564
 04  9  8 15 28  0.0000000  0  7G 1G11G14G20G19G22G25
  -6772852.09348  -5266372.38846  22095534.1724   22095530.2074
      2258.7974
  -4768428.86648  -3707323.57447  21675337.7664   21675331.3164
      1221.0164
   4566769.01949   3548117.10346  21370023.7664   21370017.2424
     -2206.9374
   -159984.29147   -118585.38642  24218849.3754   24218843.5984
      2912.5314
   6786933.38547   5273685.57943  24188870.8134   24188865.1804
     -2940.7034
   6048013.17548   4699330.94044  23267956.4534   23267949.8164
     -2574.9224
  -6869771.46348  -5341818.46846  21657055.0784   21657049.8714
      2191.9384
 04  9  8 15 28 15.0000000  0  7G 1G11G14G20G19G22G25
  -6806698.69148  -5292746.34746  22089094.0944   22089089.6884
      2253.9534
  -4786682.50449  -3721547.20447  21671864.1094   21671857.2544
      1212.6094
   4599903.16249   3573935.90246  21376329.3134   21376323.1334
     -2211.0944
   -203671.49847   -152627.34442  24210535.7424   24210530.2854
      2912.3754
   6831058.01347   5308068.34043  24197267.7504   24197262.2234
     -2942.7344
   6086654.84848   4729441.30944  23275309.3364   23275302.9694
     -2577.4224
  -6902600.54548  -5367399.55547  21650808.1334   21650802.6414
      2185.1414
 04  9  8 15 28 30.0000000  0  7G 1G11G14G20G19G22G25
  -6840476.33048  -5319066.56546  22082665.9064   22082661.8054
      2249.4224
  -4804814.91348  -3735676.34746  21668413.5554   21668407.0944
      1204.7344
   4633095.40749   3599799.98546  21382645.6564   21382639.4384
     -2214.7974
   -247359.12947   -186669.70442  24202222.4064   24202216.7424
      2912.4534
   6875208.86147   5342471.57043  24205669.1094   24205663.8914
     -2944.2664
   6125330.12448   4759577.84944  23282669.5394   23282662.5044
     -2579.4844
  -6935330.45048  -5392903.35846  21644579.5634   21644573.8054
      2178.5784
 04  9  8 15 28 45.0000000  0  6G 1G11G14G20G22G25
  -6874182.64348  -5345331.22146  22076251.8134   22076247.2464
      2244.4384
  -4822823.57249  -3749709.08446  21664986.5394   21664979.8834
      1196.1564
   4666347.85549   3625710.97046  21388973.0164   21388966.9694
     -2219.0624
   -291044.65847   -220710.32642  24193909.9064   24193903.4694
      2911.9844
   6164041.27948   4789742.34644  23290035.5394   23290029.0784
     -2582.2034
  -6967958.67048  -5418327.94247  21638370.6884   21638365.5744
      2171.5634
 04  9  8 15 29  0.0000000  0  6G 1G11G14G20G22G25
  -6907817.79548  -5371540.40546  22069851.4144   22069846.8134
      2240.3134
  -4840708.60948  -3763645.48746  21661583.4304   21661576.9454
      1188.4384
   4699660.03049   3651668.49246  21395312.2194   21395306.2974
     -2222.5164
   -334728.43647   -254749.63542  24185597.8284   24185590.6454
      2912.4694
   6202788.11848   4819934.66944  23297408.7034   23297402.6724
     -2584.1094
  -7000485.16248  -5443673.25247  21632181.4304   21632175.7854
      2165.3134
 04  9  8 15 29 15.0000000  0  6G 1G11G14G20G22G25
  -6941386.62249  -5397697.92746  22063463.3834   22063458.7154
      2235.5784
  -4858474.54949  -3777489.07146  21658202.7274   21658196.1954
      1180.2504
   4733026.88249   3677668.61346  21401661.5314   21401655.7074
     -2226.3594
   -378415.03047   -288791.10042  24177284.2424   24177277.5314
      2912.3754
   6241565.68448   4850150.92544  23304787.8134   23304781.5904
     -2586.4064
  -7032914.67248  -5468942.98947  21626009.7734   21626004.8404
      2158.5474
 04  9  8 15 29 30.0000000  0  6G 1G11G14G20G22G25
  -6974884.35449  -5423800.03546  22057088.9924   22057084.5124
      2230.7664
  -4876116.52348  -3791236.07247  21654845.2584   21654838.9534
      1172.0314
   4766452.90649   3703714.85146  21408022.7114   21408016.4064
     -2230.3284
   -422099.58747   -322831.02242  24168971.2734   24168964.8554
      2912.1884
   6280378.67248   4880394.77644  23312174.3524   23312167.1414
     -2588.6254
  -7065242.09548  -5494133.18747  21619858.4614   21619852.9344
      2151.7194
 04  9  8 15 29 45.0000000  0  6G 1G11G14G20G22G25
  -7008310.32948  -5449846.23946  22050728.5084   22050723.3244
      2225.7974
  -4893633.87748  -3804885.96447  21651512.1254   21651505.9104
      1163.5784
   4799938.34649   3729807.39346  21414394.8444   21414388.3674
     -2234.4374
   -465781.51747   -356868.88842  24160658.8054   24160652.6054
      2911.9694
   6319227.66848   4910666.67344  23319566.9224   23319560.5004
     -2591.2664
  -7097466.69348  -5519243.26247  21613726.1414   21613720.5124
      2144.6884
 04  9  8 15 30  0.0000000  0  6G 1G11G14G20G22G25
  -7041663.66249  -5475835.82846  22044381.4224   22044376.5124
      2221.3754
  -4911025.51549  -3818437.89047  21648202.4774   21648196.0354
      1155.4694
   4833483.91449   3755946.79846  21420778.1954   21420772.1524
     -2238.1564
   -509459.88047   -390903.96442  24152346.7894   24152340.8134
      2912.0314
   6358113.56248   4940967.33844  23326966.8984   23326959.9804
     -2593.3914
  -7129587.22649  -5544272.22647  21607614.2114   21607608.3484
      2138.1094
 04  9  8 15 30 15.0000000  0  6G 1G11G14G20G22G25
  -7074945.20549  -5501769.48846  22038048.3054   22038043.8954
      2216.0314
  -4928292.21649  -3831892.47246  21644916.7664   21644910.0744
      1146.5944
   4867088.38449   3782132.08846  21427172.9614   21427166.7424
     -2242.5474
   -553135.55447   -424936.92142  24144035.6884   24144028.8164
      2911.2504
   6397035.30448   4971295.93144  23334373.6644   23334367.0204
     -2596.3444
  -7161604.40749  -5569220.67047  21601521.4694   21601515.6524
      2130.7194
 04  9  8 15 30 30.0000000  0  6G 1G11G14G20G22G25
  -7108150.43348  -5527643.67246  22031729.2504   22031724.9804
      2211.3914
  -4945429.27948  -3845246.02647  21641655.8364   21641649.1334
      1138.3284
   4900756.03449   3808366.60546  21433579.5394   21433573.5274
     -2246.3914
   -596803.87547   -458964.18042  24135725.9844   24135719.1724
      2911.1724
   6435997.35948   5001655.93744  23341787.8524   23341780.9734
     -2598.5314
  -7193513.49148  -5594084.87947  21595449.4614   21595443.9734
      2123.8754
 04  9  8 15 30 45.0000000  0  6G 1G11G14G20G22G25
  -7141285.42449  -5553463.14446  22025423.8134   22025419.3284
      2206.6724
  -4962442.76849  -3858503.29347  21638418.1254   21638411.7814
      1130.1724
   4934480.55149   3834645.43746  21439996.8524   21439990.9844
     -2250.1874
   -640470.93847   -492990.45142  24127416.2274   24127410.1374
      2911.1094
   6474993.53148   5032042.54944  23349209.1884   23349201.2274
     -2600.8444
  -7225320.44649  -5618869.50947  21589396.5554   21589391.3244
      2117.0164
 04  9  8 15 31  0.0000000  0  6G 1G11G14G20G22G25
  -7174350.72549  -5579228.30046  22019131.9534   22019127.4224
      2201.8754
  -4979333.06349  -3871664.56946  21635204.2974   21635197.6884
      1121.7034
   4968261.11649   3860967.93346  21446425.6644   21446419.4104
     -2254.1094
   -684137.26547   -527016.15342  24119106.4694   24119101.7304
      2910.9384
   6514023.19649   5062455.22544  23356635.6724   23356629.1054
     -2603.2664
  -7257025.53949  -5643574.76447  21583363.0164   21583357.8554
      2110.0784
 04  9  8 15 31 15.0000000  0  6G 1G11G14G20G22G25
  -7207341.26449  -5604935.18846  22012854.0554   22012849.3444
      2196.8754
  -4996095.06449  -3884725.87646  21632014.0864   21632007.4694
      1113.2344
   5002102.35149   3887337.71846  21452865.3284   21452859.0664
     -2258.1094
   -727797.74747   -561037.28542  24110798.0554   24110792.9534
      2910.5944
   6553091.31248   5092897.87044  23364069.9614   23364063.1134
     -2605.8594
  -7288623.62149  -5668196.62947  21577350.2664   21577345.1604
      2103.0474
 04  9  8 15 31 30.0000000  0  6G 1G11G14G20G22G25
  -7240260.05949  -5630586.19046  22006590.1024   22006585.1564
      2192.1564
  -5012731.57549  -3897689.39946  21628848.4304   21628841.5084
      1104.9534
   5036001.00049   3913752.23146  21459315.9384   21459309.3444
     -2261.8284
   -771455.43847   -595056.28142  24102490.6334   24102484.8364
      2910.4384
   6592194.81648   5123368.10544  23371511.4844   23371504.3134
     -2608.0164
  -7320117.48649  -5692737.28647  21571357.0864   21571352.1334
      2096.1254
 04  9  8 15 31 45.0000000  0  6G 1G11G14G20G22G25
  -7273107.27149  -5656181.40546  22000338.8674   22000334.2304
      2187.6254
  -5029242.71649  -3910555.22846  21625706.5394   21625699.8284
      1096.6884
   5069956.66449   3940211.18346  21465777.7974   21465771.2974
     -2265.4534
   -815110.23847   -629072.98642  24094182.7584   24094177.6454
      2910.3444
   6631333.49249   5153865.74444  23378958.7584   23378952.4264
     -2610.2504
  -7351507.07149  -5717196.68647  21565383.6564   21565378.6134
      2089.3754
 04  9  8 15 32  0.0000000  0  6G 1G11G14G20G22G25
  -7305881.15549  -5681719.47446  21994102.5084   21994097.8404
      2182.5314
  -5045626.66149  -3923321.95147  21622588.6024   21622582.0004
      1088.0314
   5103970.73649   3966715.64646  21472249.9064   21472243.9224
     -2269.5624
   -858760.58047   -663086.20342  24085876.8204   24085871.0664
      2909.8134
   6670508.87348   5184391.97344  23386413.6254   23386407.2154
     -2612.9534
  -7382790.48249  -5741573.36947  21559430.5164   21559425.4694
      2082.0474
 04  9  8 15 32 15.0000000  0  6G 1G11G14G20G22G25
  -7338582.69149  -5707201.17746  21987879.7894   21987874.8054
      2177.6414
  -5061884.31849  -3935990.25946  21619494.9844   21619488.9574
      1079.6254
   5138041.93749   3993264.61846  21478733.5554   21478727.5274
     -2273.3754
   -902407.29847   -697096.63242  24077571.3444   24077565.1764
      2909.6414
   6709719.93248   5214946.00744  23393875.3284   23393868.4264
     -2615.2974
  -7413968.53649  -5765867.94347  21553497.5704   21553492.5634
      2075.0474
 04  9  8 15 32 30.0000000  0  6G 1G11G14G20G22G25
  -7371209.43249  -5732624.61346  21981670.6094   21981666.2664
      2172.7814
  -5078013.10549  -3948558.15146  21616425.7974   21616419.0864
      1071.0944
   5172172.49749   4019859.84246  21485229.0004   21485222.6764
     -2277.1254
   -946047.96947   -731102.32042  24069267.0084   24069261.4844
      2909.3754
   6748968.95549   5245529.62344  23401344.3364   23401337.5984
     -2617.6874
  -7445038.67249  -5790078.43047  21547585.3524   21547580.3674
      2067.8594
 04  9  8 15 32 45.0000000  0  6G 1G11G14G20G22G25
  -7403762.23149  -5757990.41946  21975476.2424   21975471.4344
      2167.5314
  -5094013.75749  -3961026.19947  21613381.0394   21613374.4384
      1062.2504
   5206361.32649   4046500.47146  21491734.6094   21491728.3874
     -2281.3124
   -989683.24947   -765103.85242  24060962.8914   24060958.5354
      2908.7194
   6788255.06849   5276142.14644  23408820.6884   23408814.1484
     -2620.4064
  -7476001.44849  -5814205.25947  21541693.1024   21541688.1254
      2060.4534
 04  9  8 15 33  0.0000000  0  6G 1G11G14G20G22G25
  -7436241.26049  -5783298.72946  21969295.0164   21969291.0164
      2162.7194
  -5109886.36249  -3973394.47447  21610360.5084   21610353.9064
      1053.7814
   5240607.89849   4073186.08746  21498251.8204   21498245.6804
     -2285.1414
  -1033313.33847   -799101.28742  24052661.1414   24052655.1884
      2908.4064
   6827578.08949   5306783.42344  23416303.5704   23416296.7974
     -2622.8594
  -7506856.82649  -5838248.40147  21535821.7504   21535816.3874
      2053.3594
 04  9  8 15 33 15.0000000  0  6G 1G11G14G20G22G25
  -7468644.88249  -5808548.29046  21963128.8754   21963124.4064
      2157.5164
  -5125629.28649  -3985661.68447  21607364.8364   21607358.0634
      1044.9844
   5274913.61149   4099917.80446  21504779.8754   21504773.6954
     -2289.2814
  -1076936.65347   -833093.46142  24044359.2734   24044353.4884
      2907.6724
   6866939.58348   5337454.68644  23423793.3754   23423787.1994
     -2625.5784
  -7537602.91049  -5862206.38947  21529970.6954   21529965.6454
      2045.8594
 04  9  8 15 33 30.0000000  0  6G 1G11G14G20G22G25
  -7500973.26449  -5833739.23546  21956977.4064   21956973.1414
      2152.7664
  -5141242.43349  -3997827.77847  21604393.8674   21604386.6484
      1036.5314
   5309277.95849   4126695.20546  21511319.0634   21511312.9694
     -2292.8914
  -1120553.22847   -867080.38442  24036059.2344   24036053.7344
      2907.5474
   6906339.23149   5368155.65644  23431290.7734   23431284.7464
     -2627.9224
  -7568239.72449  -5886079.20346  21524140.6094   21524136.1564
      2038.8284
 04  9  8 15 33 45.0000000  0  6G 1G11G14G20G22G25
  -7533225.14749  -5858870.55246  21950840.0864   21950835.6954
      2147.5164
  -5156724.49949  -4009891.73747  21601447.5784   21601440.9924
      1027.6884
   5343701.91149   4153519.05746  21517869.5634   21517862.8714
     -2296.9844
  -1164161.76247   -901061.03742  24027760.3984   24027755.1374
      2906.8754
   6945778.16648   5398887.27644  23438796.2974   23438789.8954
     -2630.6724
  -7598765.85049  -5909865.79346  21518331.8914   21518326.6724
      2031.2504
 04  9  8 15 34  0.0000000  0  6G 1G11G14G20G22G25
  -7565402.96349  -5883944.16346  21944716.7894   21944712.3094
      2142.6254
  -5172077.71849  -4021855.28146  21598525.7734   21598519.0704
      1019.2034
   5378182.78349   4180387.25246  21524430.9144   21524424.6094
     -2300.6724
  -1207764.58647   -935037.27042  24019463.3284   24019457.8244
      2906.6254
   6985254.00248   5429647.63044  23446308.3054   23446301.3524
     -2632.9534
  -7629183.61349  -5933567.93446  21512543.8284   21512537.9384
      2024.1884
 04  9  8 15 34 15.0000000  0  6G 1G11G14G20G22G25
  -7597504.51249  -5908958.34446  21938608.0554   21938603.1334
      2137.5004
  -5187299.79049  -4033716.64647  21595629.2114   21595622.7664
      1010.3754
   5412722.56049   4207301.34446  21531003.5634   21530997.4224
     -2304.7344
  -1251359.41047   -969007.23742  24011167.6724   24011161.9804
      2905.9694
   7024768.66348   5460438.24144  23453827.3674   23453821.2934
     -2635.6874
  -7659490.55249  -5957183.72046  21506776.0164   21506770.5944
      2016.6724
 04  9  8 15 34 30.0000000  0  6G 1G11G14G20G22G25
  -7629530.43949  -5933913.59146  21932513.7584   21932509.0084
      2132.4694
  -5202391.26749  -4045476.24847  21592757.4534   21592750.6334
      1001.6094
   5447320.28749   4234260.60946  21537587.5474   21537581.5204
     -2308.5474
  -1294946.83347  -1002971.44543  24002873.8134   24002867.9384
      2905.5004
   7064321.58948   5491258.66844  23461354.2194   23461347.6524
     -2638.2344
  -7689687.04049  -5980713.43946  21501030.1254   21501024.3284
      2009.3284
 04  9  8 15 34 45.0000000  0  6G 1G11G14G20G22G25
  -7661481.50949  -5958810.51446  21926432.8594   21926428.7624
      2127.3134
  -5217352.86749  -4057134.64347  21589910.4384   21589903.8364
       992.8134
   5481975.05849   4261264.31246  21544182.1804   21544176.4774
     -2312.5004
  -1338527.56347  -1036930.42143  23994579.7194   23994574.5904
      2904.8444
   7103911.99348   5522108.30544  23468887.6174   23468881.1334
     -2640.9064
  -7719773.72249  -6004157.59346  21495304.6254   21495299.1094
      2001.9064
 04  9  8 15 35  0.0000000  0  6G 1G11G14G20G22G25
  -7693358.51649  -5983649.72846  21920367.6484   21920362.6884
      2122.7194
  -5232185.22049  -4068692.32747  21587087.6954   21587081.5744
       984.5004
   5516685.74849   4288311.57946  21550787.7504   21550781.5824
     -2315.8444
  -1382102.31147  -1070884.75043  23986288.3444   23986283.0594
      2904.8444
   7143538.87448   5552986.35344  23476428.7504   23476422.0984
     -2642.9694
  -7749751.20149  -6027516.65646  21489600.3364   21489594.7734
      1994.8914
 04  9  8 15 35 15.0000000  0  6G 1G11G14G20G22G25
  -7725156.89549  -6008427.67146  21914316.8284   21914312.0904
      2117.4384
  -5246883.72749  -4080145.72047  21584291.1174   21584284.3054
       975.5944
   5551456.52949   4315405.67746  21557403.8444   21557398.1414
     -2319.9064
  -1425666.52147  -1104830.85343  23977998.4454   23977992.9454
      2904.0944
   7183206.68948   5583896.31044  23483977.6484   23483970.8284
     -2645.7504
  -7779614.67449  -6050786.88746  21483917.5944   21483911.9264
      1987.2664
 04  9  8 15 35 30.0000000  0  6G 1G11G14G20G22G25
  -7756881.12749  -6033147.83146  21908279.6174   21908274.6334
      2112.2974
  -5261452.80649  -4091498.25747  21581518.6254   21581511.6884
       966.7034
   5586282.65849   4342542.90346  21564031.0864   21564024.9924
     -2323.8594
  -1469224.57547  -1138772.19143  23969709.4844   23969703.6884
      2903.4844
   7222911.05849   5614834.74644  23491532.5234   23491526.1374
     -2648.3444
  -7809368.46349  -6073971.63647  21478255.4694   21478249.7934
      1979.6724
 04  9  8 15 35 45.0000000  0  6G 1G11G14G20G22G25
  -7788528.03449  -6057807.75646  21902257.3914   21902252.8984
      2106.9064
  -5275889.13849  -4102747.34947  21578771.4844   21578764.7624
       957.6564
   5621167.14949   4369725.60746  21570669.7034   21570663.1954
     -2327.9064
  -1512773.30947  -1172706.26143  23961421.9774   23961416.4964
      2902.7194
   7262654.96848   5645804.00644  23499095.7344   23499089.0664
     -2651.2344
  -7839009.18849  -6097068.29147  21472615.0474   21472609.2934
      1971.9694
 04  9  8 15 36  0.0000000  0  6G 1G11G14G20G22G25
  -7820094.48349  -6082404.97946  21896250.5554   21896246.5354
      2101.6884
  -5290189.45849  -4113890.47146  21576050.1334   21576043.6564
       948.7814
   5656112.77049   4396955.94646  21577319.6254   21577312.8794
     -2331.7814
  -1556309.50347  -1206630.54043  23953137.8834   23953131.9344
      2902.0474
   7302441.42048   5676806.38044  23506667.2504   23506661.0394
     -2653.8594
  -7868533.58649  -6120074.30647  21466996.9304   21466991.0474
      1964.4064
 04  9  8 15 36 15.0000000  0  6G 1G11G14G20G22G25
  -7851583.96449  -6106942.22146  21890258.3914   21890253.6954
      2096.7344
  -5304357.23549  -4124930.30046  21573353.7974   21573347.7544
       940.0784
   5691115.75449   4424230.99346  21583980.5394   21583974.0234
     -2335.4224
  -1599836.55547  -1240547.73443  23944854.0634   23944848.6804
      2901.5004
   7342266.84748   5707839.16444  23514245.7274   23514238.8134
     -2656.2974
  -7897945.06149  -6142992.32047  21461400.0164   21461394.3204
      1957.0314
 04  9  8 15 36 30.0000000  0  6G 1G11G14G20G22G25
  -7882996.11549  -6131419.21646  21884280.8204   21884275.9384
      2091.6564
  -5318392.09449  -4135866.56247  21570683.1484   21570676.8284
       931.2504
   5726176.18549   4451550.78346  21590652.1484   21590645.9734
     -2339.2974
  -1643354.04647  -1274457.45742  23936573.6254   23936567.1644
      2900.8914
   7382131.56048   5738902.52844  23521831.5704   23521825.3754
     -2658.9064
  -7927242.99749  -6165821.86847  21455824.8834   21455819.6454
      1949.5164
 04  9  8 15 36 45.0000000  0  6G 1G11G14G20G22G25
  -7914332.39349  -6155837.07846  21878317.8674   21878313.3484
      2086.4844
  -5332295.26249  -4146700.20346  21568037.5314   21568030.8634
       922.4224
   5761292.38549   4478914.03846  21597334.7584   21597328.7034
     -2343.0314
  -1686863.46247  -1308360.90843  23928293.5944   23928288.3054
      2900.2504
   7422033.97848   5769995.30744  23529424.7504   23529418.4534
     -2661.4694
  -7956428.58849  -6188563.87147  21450271.0394   21450265.6254
      1941.9694
 04  9  8 15 37  0.0000000  0  6G 1G11G14G20G22G25
  -7945590.98049  -6180194.41946  21872368.9774   21872364.7974
      2080.8754
  -5346064.77549  -4157429.70547  21565416.9924   21565410.3984
       913.0944
   5796465.88549   4506321.94046  21604028.1414   21604022.0664
     -2347.2194
  -1730362.77147  -1342256.44143  23920016.0634   23920010.5474
      2899.1884
   7461976.04448   5801118.93744  23537025.6564   23537019.0004
     -2664.5474
  -7985499.92049  -6211216.84347  21444738.4534   21444733.2664
      1933.9064
 04  9  8 15 37 15.0000000  0  6G 1G11G14G20G22G25
  -7976769.16349  -6204489.09846  21866436.1954   21866432.1214
      2076.0634
  -5359697.86749  -4168052.89747  21562822.9064   21562816.3554
       904.5474
   5831699.22349   4533776.47546  21610732.9224   21610726.7074
     -2350.6564
  -1773849.21346  -1376141.95343  23911740.8914   23911735.3594
      2898.8754
   7501960.19948   5832275.41144  23544634.3754   23544627.5554
     -2666.8124
  -8014454.15448  -6233778.57247  21439228.7034   21439223.7034
      1926.6094
 04  9  8 15 37 30.0000000  0  6G 1G11G14G20G22G25
  -8007871.80749  -6228724.91946  21860517.7424   21860513.0434
      2070.8754
  -5373199.30549  -4178573.50246  21560253.5864   21560247.4064
       895.5474
   5866987.13249   4561273.52946  21617448.2114   21617441.6094
     -2354.4374
  -1817327.60746  -1410021.22542  23903467.5314   23903462.0274
      2898.1254
   7541981.44548   5863460.77344  23552250.5474   23552244.1134
     -2669.4374
  -8043295.98548  -6256252.71047  21433740.5084   21433735.2344
      1918.8754
 04  9  8 15 37 45.0000000  0  6G 1G11G14G20G22G25
  -8038896.74949  -6252900.18946  21854613.7894   21854609.7464
      2065.8594
  -5386566.84648  -4188989.77947  21557710.2344   21557703.9494
       886.7974
   5902331.54449   4588814.62246  21624173.7114   21624166.8134
     -2358.0624
  -1860795.86646  -1443892.60042  23895194.8444   23895189.7854
      2897.6564
   7582041.90148   5894676.66844  23559873.0944   23559867.0354
     -2671.9694
  -8072023.00448  -6278637.39247  21428273.6804   21428268.4774
      1911.3284
 04  9  8 15 38  0.0000000  0  6G 1G11G14G20G22G25
  -8069841.73949  -6277013.16246  21848725.5084   21848720.8634
      2060.5004
  -5399798.08649  -4199299.83946  21555192.3834   21555185.4024
       877.6414
   5937734.52149   4616401.34346  21630910.8054   21630904.0984
     -2362.0474
  -1904251.60546  -1477754.19542  23886925.5554   23886920.5164
      2896.7664
   7622143.81048   5925924.87644  23567504.5864   23567497.9534
     -2674.7814
  -8100632.69148  -6300930.65147  21422829.5004   21422824.1024
      1903.5004
 04  9  8 15 38 15.0000000  0  6G 1G11G14G20G22G25
  -8100709.59349  -6301066.01846  21842851.1644   21842846.9534
      2055.1414
  -5412895.98949  -4209506.00046  21552699.8054   21552693.3244
       868.6094
   5973192.89349   4644031.21646  21637658.0234   21637651.6024
     -2365.9534
  -1947697.46746  -1511608.10342  23878658.6414   23878653.0704
      2895.8134
   7662284.31548   5957203.14144  23575142.8364   23575136.1994
     -2677.4534
  -8129127.76648  -6323134.59247  21417407.0944   21417402.1454
      1895.6254
 04  9  8 15 38 30.0000000  0  6G 1G11G14G20G22G25
  -8131496.94649  -6325056.14946  21836992.5164   21836988.3284
      2049.7344
  -5425856.99449  -4219605.49646  21550233.1484   21550226.8914
       859.3594
   6008709.75349   4671706.68346  21644416.4614   21644410.9774
     -2369.8444
  -1991130.09646  -1545451.68142  23870393.9454   23870388.7074
      2895.1254
   7702466.59048   5988513.97244  23582789.5944   23582782.6914
     -2680.2194
  -8157504.73848  -6345246.51147  21412007.1414   21412002.1564
      1887.7194
 04  9  8 15 38 45.0000000  0  6G 1G11G14G20G22G25
  -8162205.41649  -6348984.80946  21831149.0864   21831144.5044
      2044.7194
  -5438682.59048  -4229599.46747  21547792.7194   21547785.8754
       850.5474
   6044283.24249   4699426.26746  21651186.0474   21651180.2934
     -2373.3914
  -2034550.99346  -1579286.15943  23862131.1484   23862126.1484
      2894.4844
   7742688.89648   6019856.00544  23590443.6564   23590436.7034
     -2682.8124
  -8185764.96948  -6367267.45447  21406629.1564   21406624.4734
      1880.1254
 04  9  8 15 39  0.0000000  0  6G 1G11G14G20G22G25
  -8192834.95749  -6372851.97846  21825320.5634   21825316.1454
      2039.4224
  -5451372.76148  -4239487.92446  21545378.2194   21545371.4494
       841.6414
   6079913.09049   4727189.76346  21657966.2814   21657960.4694
     -2377.0314
  -2077960.12047  -1613111.46243  23853870.3054   23853865.3594
      2893.6564
   7782951.17348   6051229.16444  23598105.1884   23598098.9734
     -2685.3594
  -8213908.32148  -6389197.35047  21401273.8204   21401268.6994
      1872.4534
 04  9  8 15 39 15.0000000  0  6G 1G11G14G20G22G25
  -8223386.00149  -6396657.96746  21819506.6954   21819502.3324
      2034.2504
  -5463927.70049  -4249271.00046  21542988.8284   21542982.2274
       832.5004
   6115598.64149   4754996.67846  21664757.1484   21664751.1914
     -2380.7974
  -2121357.83547  -1646927.84443  23845612.8754   23845607.3984
      2892.8134
   7823253.08248   6082633.21644  23605774.4064   23605768.0514
     -2687.9534
  -8241935.02149  -6411036.31847  21395940.7194   21395935.3874
      1864.6414
 04  9  8 15 39 30.0000000  0  6G 1G11G14G20G22G25
  -8253858.27249  -6420402.57846  21813707.9534   21813703.3794
      2029.0004
  -5476346.97848  -4258948.35946  21540625.1484   21540618.6994
       823.5314
   6151340.03149   4782847.10346  21671558.5474   21671551.7194
     -2384.4694
  -2164743.67846  -1680734.98743  23837356.1484   23837351.4614
      2892.0944
   7863594.92748   6114068.38244  23613450.8444   23613445.4654
     -2690.7034
  -8269844.49848  -6432783.95347  21390629.5474   21390624.3714
      1856.8914
 04  9  8 15 39 45.0000000  0  6G 1G11G14G20G22G25
  -8284252.92149  -6444086.71046  21807924.0944   21807919.9884
      2023.6254
  -5488631.69048  -4268520.86547  21538287.3524   21538280.8094
       814.4384
   6187135.75949   4810739.86346  21678369.7504   21678363.9414
     -2388.2814
  -2208118.76047  -1714533.74443  23829102.5944   23829096.9454
      2891.2034
   7903975.24148   6145533.53744  23621135.3594   23621129.1484
     -2693.3594
  -8297637.75948  -6454441.03147  21385340.6724   21385335.2814
      1848.9534
 04  9  8 15 40  0.0000000  0  6G 1G11G14G20G22G25
  -8314568.66049  -6467709.35846  21802154.9694   21802150.6134
      2018.6564
  -5500780.64949  -4277987.59746  21535975.8134   21535969.3204
       805.6564
   6222986.83549   4838675.74946  21685192.3284   21685185.9734
     -2391.5944
  -2251481.71447  -1748323.01643  23820850.4064   23820845.3014
      2890.7814
   7944395.34148   6177029.67344  23628827.2584   23628821.2114
     -2695.7194
  -8325313.30548  -6476006.37847  21380074.3364   21380068.8364
      1841.4844
 04  9  8 15 40 15.0000000  0  6G 1G11G14G20G22G25
  -8344809.37049  -6491273.54446  21796400.6644   21796396.2114
      2013.5164
  -5512797.43249  -4287351.32946  21533689.0474   21533682.7774
       796.6564
   6258889.20649   4866651.60346  21692024.4614   21692018.4924
     -2395.2974
  -2294836.40747  -1782105.89943  23812600.8674   23812595.2344
      2889.9534
   7984851.25548   6208553.73743  23636526.1884   23636519.8324
     -2698.2814
  -8352874.87748  -6497482.92146  21374829.4774   21374824.1174
      1833.5474
 04  9  8 15 40 30.0000000  0  6G 1G11G14G20G22G25
  -8374971.68949  -6514776.63846  21790660.8444   21790656.2384
      2008.3284
  -5524678.74749  -4296609.50746  21531428.3594   21531421.7504
       787.7034
   6294845.89649   4894669.79546  21698866.6174   21698860.4844
     -2398.8284
  -2338179.35747  -1815879.62443  23804352.0394   23804347.2274
      2889.2664
   8025346.37348   6240108.32544  23644231.6254   23644225.5124
     -2700.8914
  -8380319.03348  -6518867.97446  21369606.5164   21369601.1954
      1825.8284
 04  9  8 15 40 45.0000000  0  6G 1G11G14G20G22G25
  -8405056.84149  -6538219.59846  21784935.9774   21784931.4454
      2002.8914
  -5536425.74148  -4305763.01546  21529192.6644   21529186.3014
       778.4064
   6330855.46149   4922729.17346  21705719.2734   21705712.8634
     -2402.5784
  -2381511.71447  -1849645.10043  23796106.4844   23796101.2074
      2888.2504
   8065879.33048   6271692.41143  23651944.8364   23651938.5944
     -2703.6094
  -8407646.67948  -6540162.22347  21364406.4534   21364401.4734
      1817.7974
 04  9  8 15 41  0.0000000  0  6G 1G11G14G20G22G25
  -8435062.45749  -6561600.58046  21779225.8674   21779221.2854
      1998.2034
  -5548035.87549  -4314809.86946  21526983.6804   21526976.7034
       769.9224
   6366919.97049   4950831.36946  21712581.7034   21712576.2274
     -2405.6564
  -2424831.01548  -1883400.37343  23787863.0634   23787857.6764
      2887.9844
   8106452.25348   6303307.63944  23659665.6254   23659658.9924
     -2705.7504
  -8434855.34549  -6561363.77147  21359229.1414   21359223.8554
      1810.5164
 04  9  8 15 41 15.0000000  0  6G 1G11G14G20G22G25
  -8464992.49249  -6584922.67746  21773530.2734   21773525.5664
      1992.7504
  -5559512.97248  -4323753.07646  21524799.2894   21524792.5354
       760.6254
   6403035.27849   4978973.15446  21719454.6954   21719448.7734
     -2409.4374
  -2468141.07047  -1917148.43943  23779620.9224   23779616.6374
      2886.9064
   8147061.28848   6334951.01543  23667393.0944   23667386.6644
     -2708.5474
  -8461948.95148  -6582475.66147  21354073.0394   21354067.7074
      1802.2664
 04  9  8 15 41 30.0000000  0  6G 1G11G14G20G22G25
  -8494847.40649  -6608186.22646  21767849.1954   21767844.8594
      1987.9384
  -5570857.48049  -4332592.96046  21522640.4694   21522634.1294
       751.9224
   6439200.53449   5007153.85646  21726336.2584   21726330.0594
     -2412.5474
  -2511442.29747  -1950889.63043  23771381.5704   23771376.6564
      2886.5944
   8187705.83548   6366622.06643  23675127.8914   23675121.2344
     -2710.6874
  -8488927.66749  -6603498.02447  21348939.6334   21348934.1214
      1794.8444
 04  9  8 15 41 45.0000000  0  6G 1G11G14G20G22G25
  -8524623.87749  -6631388.66246  21762182.7114   21762178.2344
      1982.4534
  -5582066.03349  -4341326.90946  21520507.2974   21520500.8874
       742.7034
   6475418.92749   5035375.96046  21733228.7584   21733222.6564
     -2416.3754
  -2554731.42547  -1984621.41343  23763143.8444   23763138.5664
      2885.5314
   8228389.15548   6398323.30043  23682869.1024   23682863.1214
     -2713.5314
  -8515788.00449  -6624428.15447  21343828.2894   21343822.6054
      1786.7504
 04  9  8 15 42  0.0000000  0  6G 1G11G14G20G22G25
  -8554325.19649  -6654532.53246  21756530.6024   21756526.4344
      1977.5784
  -5593141.76448  -4349957.34246  21518399.7194   21518393.4774
       733.9534
   6511687.00849   5063636.79246  21740130.5394   21740123.9574
     -2419.5314
  -2598011.54748  -2018346.15443  23754907.9694   23754902.8914
      2885.0634
   8269107.95248   6430052.18543  23690617.5634   23690611.2544
     -2715.7504
  -8542533.07149  -6645268.43847  21338738.8834   21338733.1564
      1779.1564
 04  9  8 15 42 15.0000000  0  6G 1G11G14G20G22G25
  -8583952.12649  -6677618.43246  21750893.0164   21750888.3164
      1972.8134
  -5604085.42548  -4358484.87446  21516317.2974   21516311.5394
       725.3134
   6548003.67849   5091935.47946  21747041.3524   21747034.6054
     -2422.5944
  -2641283.34548  -2052064.43143  23746673.5864   23746668.3164
      2884.7194
   8309861.34948   6461808.04044  23698373.5864   23698367.2664
     -2717.7504
  -8569163.34948  -6666019.28947  21333671.1414   21333665.8524
      1771.6564
 04  9  8 15 42 30.0000000  0  6G 1G11G14G20G22G25
  -8613502.24249  -6700644.48846  21745269.9454   21745265.3674
      1967.3134
  -5614894.51749  -4366907.54646  21514260.3364   21514254.3164
       715.9534
   6584371.09049   5120273.70446  21753961.7424   21753955.2304
     -2426.3594
  -2684544.20248  -2085774.16443  23738440.9614   23738436.2814
      2883.5314
   8350651.71048   6493592.70044  23706135.5474   23706129.3444
     -2720.7194
  -8595676.44049  -6686678.82847  21328625.7114   21328620.2384
      1763.4224
 04  9  8 15 42 45.0000000  0  6G 1G11G14G20G22G25
  -8642974.76449  -6723610.06846  21739661.4304   21739656.5124
      1962.5004
  -5625568.19649  -4375224.70147  21512229.2504   21512223.1914
       707.2974
   6620789.73049   5148651.85346  21760891.8364   21760886.0164
     -2429.3444
  -2727793.33148  -2119474.78143  23730211.6484   23730206.3524
      2883.1414
   8391479.75248   6525406.72844  23713904.8674   23713898.9804
     -2722.8754
  -8622071.28849  -6707246.21947  21323602.8594   21323597.4414
      1755.8914
 04  9  8 15 43  0.0000000  0  6G 1G11G14G20G22G25
  -8672371.84449  -6746516.87246  21734067.4774   21734063.1724
      1957.1414
  -5636108.52049  -4383437.95246  21510223.4844   21510217.4844
       698.0634
   6657257.31249   5177068.14146  21767831.3204   21767825.4024
     -2432.9844
  -2771032.81548  -2153167.86743  23721983.1094   23721977.5314
      2882.1414
   8432343.28148   6557248.39144  23721681.4384   23721674.5274
     -2725.5784
  -8648349.85549  -6727723.02147  21318602.2274   21318596.9654
      1747.8444
 04  9  8 15 43 15.0000000  0  6G 1G11G14G20G22G25
  -8701693.90349  -6769365.21646  21728487.4924   21728482.7734
      1952.3284
  -5646515.74249  -4391547.49147  21508243.1094   21508237.0784
       689.4224
   6693773.04349   5205521.92046  21774780.2194   21774773.6174
     -2435.8444
  -2814262.98147  -2186853.69243  23713756.8834   23713751.6564
      2881.7814
   8473241.69648   6589117.24344  23729463.8834   23729457.3244
     -2727.7034
  -8674512.57749  -6748109.55047  21313623.5944   21313617.8134
      1740.4224
 04  9  8 15 43 30.0000000  0  6G 1G11G14G20G22G25
  -8730940.18649  -6792154.52046  21722922.1884   21722917.2584
      1947.2194
  -5656789.08849  -4399552.69847  21506288.2584   21506281.9264
       680.4064
   6730337.50949   5234013.69646  21781738.1024   21781731.6414
     -2439.2664
  -2857482.96047  -2220531.59243  23705532.3914   23705526.5634
      2880.9534
   8514175.88248   6621013.97644  23737253.6024   23737247.8284
     -2730.1094
  -8700558.37949  -6768404.96447  21308667.2424   21308662.1134
      1732.4844
 04  9  8 15 43 45.0000000  0  6G 1G11G14G20G22G25
  -8760111.66949  -6814885.52546  21717370.8834   21717365.9304
      1942.2664
  -5666929.38349  -4407454.22647  21504358.6414   21504352.5084
       671.6094
   6766949.46549   5262542.48446  21788705.4144   21788699.2344
     -2442.3594
  -2900693.69147  -2254202.28943  23697309.5944   23697304.1174
      2880.4694
   8555144.56148   6652937.57144  23745049.7504   23745043.4064
     -2732.4064
  -8726488.05749  -6788609.89847  21303733.1484   21303727.6604
      1724.7664
 04  9  8 15 44  0.0000000  0  6G 1G11G14G20G22G25
  -8789209.34349  -6837559.03446  21711833.8524   21711829.0824
      1937.4064
  -5676937.65449  -4415252.89447  21502453.9774   21502448.0354
       662.8914
   6803607.66549   5291107.30146  21795681.1564   21795674.5664
     -2445.4694
  -2943896.05847  -2287866.45743  23689088.6564   23689082.7234
      2879.9224
   8596146.75448   6684887.27644  23752852.3054   23752845.1684
     -2734.5944
  -8752302.47349  -6808725.01347  21298820.6414   21298814.9064
      1717.1414
 04  9  8 15 44 15.0000000  0  6G 1G11G14G20G22G25
  -8818232.57049  -6860174.51946  21706310.7974   21706305.6914
      1932.2344
  -5686813.14148  -4422948.08546  21500574.6484   21500568.9184
       653.7814
   6840312.57849   5319708.51046  21802665.6564   21802659.9384
     -2448.7194
  -2987089.36147  -2321523.57043  23680868.9694   23680863.8594
      2878.9844
   8637183.02848   6716863.55343  23760660.5784   23760654.0784
     -2736.9844
  -8778000.75849  -6828749.64947  21293931.0004   21293925.2664
      1709.1884
 04  9  8 15 44 30.0000000  0  6G 1G11G14G20G22G25
  -8847179.70649  -6882730.71446  21700802.3594   21700797.8284
      1927.1414
  -5696554.07049  -4430538.42246  21498721.1884   21498715.2384
       644.8754
   6877065.58649   5348347.20646  21809659.7584   21809653.6334
     -2451.8444
  -3030271.81347  -2355172.22243  23672651.4844   23672645.9734
      2878.4384
   8678254.98948   6748867.64443  23768476.8914   23768469.9454
     -2739.3444
  -8803581.13849  -6848682.40247  21289062.6484   21289057.2704
      1701.3754
 04  9  8 15 44 45.0000000  0  6G 1G11G14G20G22G25
  -8876051.23449  -6905227.98146  21695308.4924   21695303.8954
      1922.1414
  -5706160.95648  -4438024.30947  21496892.9774   21496886.8134
       635.8914
   6913865.93749   5377022.78746  21816662.4144   21816656.2664
     -2455.0784
  -3073443.74347  -2388812.67843  23664436.5944   23664430.5704
      2877.6884
   8719362.09448   6780899.10543  23776299.3524   23776292.3984
     -2741.7344
  -8829043.98149  -6868523.56447  21284217.3594   21284212.0634
      1693.5634
 04  9  8 15 45  0.0000000  0  6G 1G11G14G20G22G25
  -8904850.05449  -6927668.61146  21689828.0864   21689823.6954
      1917.6254
  -5715636.47949  -4445407.84147  21495089.7584   21495083.7424
       627.4384
   6950710.51049   5405732.82146  21823673.7424   21823668.0234
     -2457.6254
  -3116608.02347  -2422447.18143  23656222.8914   23656216.7074
      2877.5474
   8760501.32048   6812955.58043  23784128.0084   23784120.8054
     -2743.5624
  -8854391.93649  -6888275.21947  21279393.5634   21279388.6254
      1686.2034
 04  9  8 15 45 15.0000000  0  6G 1G11G14G20G22G25
  -8933574.84649  -6950051.55646  21684362.1724   21684357.2464
      1912.5314
  -5724979.35349  -4452688.02247  21493312.1094   21493305.6684
       618.4534
   6987600.31549   5434478.10146  21830693.7734   21830687.8634
     -2460.7974
  -3159763.27847  -2456074.63343  23648009.9844   23648004.7734
      2876.7344
   8801673.91748   6845038.10643  23791963.3524   23791955.4614
     -2745.9844
  -8879623.52849  -6907936.19647  21274592.2504   21274587.4144
      1678.2504
 04  9  8 15 45 30.0000000  0  6G 1G11G14G20G22G25
  -8962227.94949  -6972378.62346  21678909.6644   21678904.7424
      1907.7344
  -5734191.96149  -4459866.68247  21491559.4614   21491553.1174
       609.7504
   7024532.80149   5463256.64446  21837721.6804   21837715.7854
     -2463.6414
  -3202911.71047  -2489696.77043  23639799.3834   23639793.3164
      2876.3134
   8842877.52448   6877144.75343  23799803.7034   23799796.7034
     -2747.9844
  -8904740.93949  -6927508.19747  21269812.6884   21269807.7344
      1670.6094
 04  9  8 15 45 45.0000000  0  6G 1G11G14G20G22G25
  -8990805.91249  -6994647.16447  21673471.4844   21673466.9144
      1902.7504
  -5743270.68749  -4466941.01747  21489831.5234   21489825.2774
       600.8284
   7061511.22849   5492070.98646  21844758.4694   21844752.6994
     -2466.7504
  -3246049.75947  -2523310.82143  23631590.2194   23631584.0824
      2875.5004
   8884115.58448   6909278.26643  23807651.1254   23807644.6134
     -2750.3284
  -8929740.59249  -6946988.44547  21265055.4774   21265049.8364
      1662.7664
 04  9  8 15 46  0.0000000  0  6G 1G11G14G20G22G25
  -9019309.53049  -7016857.75447  21668047.3674   21668042.7704
      1898.0164
  -5752216.25149  -4473911.58647  21488129.2114   21488122.9534
       592.1564
   7098534.51548   5520920.28446  21851803.8914   21851798.2464
     -2469.4534
  -3289178.13047  -2556917.31843  23623383.4064   23623377.4574
      2875.1724
   8925387.13948   6941437.85744  23815505.0004   23815498.6564
     -2752.3444
  -8954623.22449  -6966377.50347  21260320.3914   21260315.3834
      1655.1724
 04  9  8 15 46 15.0000000  0  6G 1G11G14G20G22G25
  -9047738.93649  -7039010.53747  21662637.3134   21662632.4494
      1892.6254
  -5761028.68049  -4480778.42147  21486452.3834   21486446.0044
       582.8444
   7135602.36648   5549804.31046  21858857.5784   21858852.1254
     -2472.9374
  -3332296.81247  -2590516.26643  23615178.0394   23615172.3094
      2873.9534
   8966691.96148   6973623.39844  23823364.9774   23823358.8324
     -2754.9844
  -8979388.67049  -6985675.24547  21255608.0394   21255602.9144
      1646.8594
 04  9  8 15 46 30.0000000  0  6G 1G11G14G20G22G25
  -9076094.41449  -7061105.70746  21657241.2504   21657236.9694
      1887.9844
  -5769708.23749  -4487541.72847  21484800.6804   21484794.3364
       574.3444
   7172714.25748   5578722.65345  21865919.7894   21865913.9804
     -2475.4694
  -3375406.06147  -2624107.86343  23606973.7974   23606967.8444
      2873.7504
   9008029.75848   7005834.63144  23831231.2034   23831224.9264
     -2756.8754
  -9004037.08549  -7004881.79447  21250917.2504   21250911.7074
      1639.4224
 04  9  8 15 46 45.0000000  0  6G 1G11G14G20G22G25
  -9104376.58549  -7083143.76046  21651859.2734   21651854.6454
      1883.0944
  -5778255.39448  -4494201.85547  21483174.2034   21483168.0234
       565.4384
   7209869.22648   5607674.54646  21872990.2344   21872984.3874
     -2478.4064
  -3418506.24947  -2657692.44142  23598772.6414   23598766.5784
      2873.1564
   9049399.90948   7038071.06544  23839103.5084   23839097.3554
     -2759.0164
  -9028568.82949  -7023997.43547  21246249.1644   21246243.9344
      1631.6564
 04  9  8 15 47  0.0000000  0  6G 1G11G14G20G22G25
  -9132584.99549  -7105124.32346  21646491.5944   21646486.9304
      1878.0314
  -5786669.64948  -4500758.41747  21481572.6804   21481566.9614
       556.3754
   7247067.51448   5636660.21846  21880069.0944   21880062.7624
     -2481.4224
  -3461596.89347  -2691269.55142  23590572.7424   23590566.4224
      2872.2194
   9090802.69948   7070332.92243  23846982.1484   23846976.3524
     -2761.3284
  -9052983.26849  -7043021.67047  21241602.8754   21241597.5514
      1623.6564
 04  9  8 15 47 15.0000000  0  6G 1G11G14G20G22G25
  -9160718.44449  -7127046.49147  21641137.8754   21641133.3404
      1872.8134
  -5794949.87049  -4507210.56147  21479997.1334   21479991.1024
       547.2664
   7284310.13448   5665680.41346  21887156.0704   21887150.1054
     -2484.5944
  -3504676.75447  -2724838.27142  23582375.2664   23582368.3554
      2871.3594
   9132239.22548   7102621.08843  23854867.3054   23854861.3634
     -2763.7974
  -9077279.28149  -7061953.63247  21236979.6254   21236974.3674
      1615.5634
 04  9  8 15 47 30.0000000  0  6G 1G11G14G20G22G25
  -9188778.30049  -7148911.30246  21635798.1884   21635793.7504
      1868.2814
  -5803097.26349  -4513559.17847  21478446.9304   21478440.6134
       538.8594
   7321595.51048   5694733.93546  21894251.1954   21894244.9804
     -2487.0624
  -3547747.00147  -2758399.51043  23574178.5784   23574173.0004
      2871.2194
   9173708.16648   7134934.48543  23862758.8444   23862752.3914
     -2765.5784
  -9101457.95449  -7080794.15247  21232378.5554   21232373.3324
      1608.0314
 04  9  8 15 47 45.0000000  0  6G 1G11G14G20G22G25
  -9216763.57249  -7170717.98947  21630472.9774   21630468.5274
      1863.2344
  -5811110.80249  -4519803.50047  21476922.0554   21476915.7234
       529.7664
   7358924.36148   5723821.33446  21901354.5784   21901348.2384
     -2490.0004
  -3590806.66047  -2791952.46143  23565985.1174   23565979.6214
      2870.3444
   9215210.44448   7167273.87143  23870656.7974   23870649.7154
     -2767.8594
  -9125518.10049  -7099542.30447  21227800.3054   21227794.6644
      1600.0944
 04  9  8 15 48  0.0000000  0  6G 1G11G14G20G22G25
  -9244676.40649  -7192468.24247  21625161.0004   21625156.7234
      1858.2344
  -5818992.53049  -4525945.11547  21475422.2034   21475415.7734
       520.8754
   7396294.36348   5752940.79346  21908465.6484   21908459.7344
     -2492.9064
  -3633857.68147  -2825498.66743  23557792.8754   23557786.6174
      2869.5784
   9256743.78648   7199637.45443  23878560.1414   23878552.7504
     -2770.1724
  -9149461.69349  -7118199.64947  21223244.1024   21223238.4534
      1592.1094
 04  9  8 15 48 15.0000000  0  6G 1G11G14G20G22G25
  -9272514.86649  -7214160.54147  21619863.3754   21619859.5394
      1853.5164
  -5826740.54449  -4531982.53547  21473947.6334   21473941.3834
       512.2194
   7433707.11448   5782093.57046  21915585.2424   21915579.5984
     -2495.3284
  -3676898.09948  -2859036.66743  23549602.5234   23549596.1644
      2869.2194
   9298310.06548   7232026.70943  23886470.0704   23886463.0004
     -2772.0784
  -9173286.84349  -7136764.68847  21218710.4844   21218704.4024
      1584.5474
 04  9  8 15 48 30.0000000  0  6G 1G11G14G20G22G25
  -9300280.57649  -7235796.14647  21614579.9924   21614575.5124
      1848.8914
  -5834356.27449  -4537916.88247  21472498.6804   21472491.9614
       503.5634
   7471160.97049   5811278.38446  21922712.1414   21922706.5704
     -2497.9374
  -3719929.26748  -2892567.44543  23541413.4844   23541407.9804
      2868.7194
   9339907.66848   7264440.39343  23894385.8754   23894378.7774
     -2773.9694
  -9196994.90549  -7155238.49447  21214198.5394   21214192.9614
      1576.8444
 04  9  8 15 48 45.0000000  0  6G 1G11G14G20G22G25
  -9327972.90249  -7257374.58146  21609310.2274   21609306.1484
      1843.5314
  -5841839.16049  -4543747.71547  21471074.6884   21471068.0944
       494.2034
   7508656.15248   5840495.37746  21929847.6644   21929841.2114
     -2501.2194
  -3762950.60147  -2926090.56543  23533227.0944   23533221.4734
      2867.6094
   9381537.09048   7296878.87044  23902307.1254   23902301.2384
     -2776.5004
  -9220584.97049  -7173620.36347  21209709.9614   21209704.4184
      1568.5474
 04  9  8 15 49  0.0000000  0  6G 1G11G14G20G22G25
  -9355591.34649  -7278895.43247  21604054.7894   21604050.2814
      1838.7974
  -5849188.60349  -4549474.55747  21469676.3984   21469669.8484
       485.5474
   7546192.96648   5869744.83346  21936990.4614   21936984.5824
     -2503.7664
  -3805961.41347  -2959605.45143  23525042.4774   23525036.4454
      2867.0634
   9423198.70948   7329342.40943  23910235.9144   23910229.3554
     -2778.4694
  -9244056.27649  -7191909.68147  21205242.6174   21205237.4734
      1560.8444
 04  9  8 15 49 15.0000000  0  6G 1G11G14G20G22G25
  -9383132.99549  -7300356.44847  21598813.6094   21598809.1024
      1833.8284
  -5856401.53749  -4555095.02647  21468303.5944   21468297.3674
       476.6564
   7583774.16648   5899028.86846  21944142.1024   21944136.2194
     -2506.6254
  -3848958.64347  -2993109.78543  23516860.2504   23516854.4774
      2866.3134
   9464895.49548   7361833.35243  23918169.9304   23918164.0394
     -2780.7034
  -9267405.89449  -7210104.17447  21200799.7664   21200794.2734
      1552.8914
 04  9  8 15 49 30.0000000  0  6G 1G11G14G20G22G25
  -9410601.29749  -7321760.31246  21593586.7974   21593581.9924
      1828.7974
  -5863481.33049  -4560611.76047  21466956.2814   21466950.1214
       467.5164
   7621396.01048   5928344.56446  21951301.4844   21951295.0704
     -2509.4374
  -3891945.66947  -3026606.15943  23508680.0554   23508674.3364
      2865.4384
   9506623.87348   7394348.92543  23926110.9144   23926104.7974
     -2782.9224
  -9290637.19849  -7228206.49247  21196379.1024   21196373.3914
      1544.8444
 04  9  8 15 49 45.0000000  0  6G 1G11G14G20G22G25
  -9437996.80449  -7343107.45147  21588373.6564   21588368.6764
      1823.9384
  -5870428.61649  -4566025.23847  21465634.3674   21465628.0744
       458.7194
   7659057.70148   5957691.31246  21958468.4454   21958462.7074
     -2512.0944
  -3934922.98747  -3060094.95943  23500501.6724   23500496.1684
      2864.7664
   9548383.26648   7426888.66444  23934057.3524   23934051.3054
     -2785.0314
  -9313750.69749  -7246216.99947  21191980.3444   21191975.3364
      1536.9384
 04  9  8 15 50  0.0000000  0  6G 1G11G14G20G22G25
  -9465318.85549  -7364397.34547  21583174.1954   21583169.6684
      1818.8754
  -5877242.58249  -4571334.82847  21464338.0394   21464331.8484
       449.6414
   7696759.68648   5987069.47346  21965642.5004   21965636.7664
     -2514.9224
  -3977889.81647  -3093575.62143  23492325.4304   23492319.6374
      2863.9224
   9590174.26448   7459453.06043  23942009.5084   23942003.6094
     -2787.2814
  -9336745.45449  -7264134.98347  21187604.6884   21187599.1054
      1528.8594
 04  9  8 15 50 15.0000000  0  6G 1G11G14G20G22G25
  -9492566.59649  -7385629.33547  21577989.3054   21577984.6914
      1814.0474
  -5883922.42749  -4576539.90147  21463066.8754   21463060.4344
       440.8284
   7734502.65848   6016479.56646  21972824.8134   21972818.6884
     -2517.5314
  -4020845.17047  -3127047.30643  23484151.1644   23484145.7304
      2863.3284
   9631997.61948   7492042.62243  23949968.9144   23949963.0124
     -2789.2664
  -9359620.39949  -7281959.59547  21183251.7664   21183246.5124
      1521.0164
 04  9  8 15 50 30.0000000  0  6G 1G11G14G20G22G25
  -9519743.23349  -7406805.92147  21572817.4694   21572813.1484
      1809.2664
  -5890471.26749  -4581642.89947  21461820.4144   21461814.3244
       432.0784
   7772283.18848   6045918.91845  21980014.0634   21980007.7194
     -2520.0164
  -4063792.07347  -3160512.42143  23475978.5474   23475973.0984
      2862.7664
   9673850.14748   7524654.94143  23957932.5474   23957926.9344
     -2791.3594
  -9382378.62349  -7299693.27247  21178920.8134   21178915.6644
      1513.1884
 04  9  8 15 50 45.0000000  0  6G 1G11G14G20G22G25
  -9546848.21149  -7427926.67147  21567659.8284   21567655.1524
      1804.7034
  -5896888.48049  -4586643.33547  21460599.4064   21460592.6884
       423.5004
   7810101.53848   6075387.75046  21987210.9694   21987205.1724
     -2522.3444
  -4106729.87747  -3193970.44743  23467808.1484   23467802.8364
      2862.3134
   9715732.16048   7557290.21543  23965903.5164   23965897.7894
     -2793.0474
  -9405019.51949  -7317335.51947  21174612.5634   21174606.8634
      1505.6094
 04  9  8 15 51  0.0000000  0  6G 1G11G14G20G22G25
  -9573878.49649  -7448989.21447  21562516.2504   21562511.3794
      1799.5314
  -5903171.09249  -4591538.88247  21459403.7274   21459397.5474
       414.4694
   7847960.51848   6104888.22846  21994415.1804   21994409.1174
     -2525.2344
  -4149655.51647  -3227418.97943  23459638.9224   23459633.8204
      2861.3594
   9757646.76848   7589950.90344  23973879.7034   23973873.0864
     -2795.2974
  -9427539.89449  -7334883.85547  21170327.3524   21170321.6914
      1497.4534
 04  9  8 15 51 15.0000000  0  6G 1G11G14G20G22G25
  -9600836.88049  -7469995.74047  21557386.2814   21557381.2504
      1795.1254
  -5909321.67349  -4596331.55247  21458233.5864   21458227.4774
       405.9694
   7885857.16448   6134418.06546  22001626.7344   22001621.2274
     -2527.3914
  -4192571.58046  -3260860.06243  23451472.6254   23451467.4344
      2861.0784
   9799591.11248   7622634.76443  23981860.5944   23981854.8524
     -2796.9694
  -9449942.41549  -7352340.35347  21166064.5164   21166059.1954
      1489.8914
 04  9  8 15 51 30.0000000  0  6G 1G11G14G20G22G25
  -9627723.20849  -7490946.11147  21552270.2114   21552264.6564
      1790.0474
  -5915339.97049  -4601021.14347  21457087.8914   21457081.8014
       396.8754
   7923791.49049   6163977.26846  22008845.2034   22008839.4884
     -2530.1874
  -4235477.77747  -3294293.44543  23443308.4064   23443302.5594
      2860.0944
   9841565.31148   7655341.88443  23989848.1724   23989841.9224
     -2799.2344
  -9472226.62449  -7369704.66847  21161823.6334   21161818.4774
      1481.7194
 04  9  8 15 51 45.0000000  0  6G 1G11G14G20G22G25
  -9654538.20849  -7511840.90147  21547167.2194   21547161.7854
      1785.1724
  -5921226.73549  -4605608.23947  21455968.1334   21455961.4414
       387.9064
   7961762.48049   6193565.03145  22016071.0944   22016065.0864
     -2532.7814
  -4278374.65947  -3327719.59443  23435144.9774   23435139.4774
      2859.3914
   9883568.65548   7688071.70843  23997841.2664   23997835.1684
     -2801.2814
  -9494393.12549  -7386977.25347  21157605.4064   21157599.5784
      1473.7344
 04  9  8 15 52  0.0000000  0  6G 1G11G14G20G22G25
  -9681279.57849  -7532678.31547  21542078.5084   21542073.1174
      1780.4694
  -5926979.70349  -4610091.07847  21454873.3054   21454866.9884
       379.2504
   7999772.19649   6223182.98946  22023304.1884   22023298.3094
     -2535.1094
  -4321259.77648  -3361136.55443  23426984.5704   23426979.0204
      2858.8444
   9925603.28748   7720825.90643  24005840.2424   24005833.7464
     -2803.1564
  -9516439.28949  -7404156.07547  21153410.0084   21153404.6524
      1465.9534
 04  9  8 15 52 15.0000000  0  6G 1G11G14G20G22G25
  -9707951.98449  -7553462.00147  21537002.6644   21536997.4614
      1775.8594
  -5932603.40149  -4614473.18747  21453802.9384   21453796.4844
       370.6094
   8037815.82349   6252827.34445  22030543.2894   22030537.5784
     -2537.3754
  -4364137.75248  -3394547.94843  23418824.8674   23418819.7384
      2858.2814
   9967664.45548   7753600.79943  24013844.3674   24013838.4454
     -2804.9534
  -9538369.91649  -7421244.87547  21149236.6564   21149231.6174
      1458.1884
 04  9  8 15 52 30.0000000  0  6G 1G11G14G20G22G25
  -9734553.90849  -7574190.76146  21531940.3984   21531935.5354
      1770.7814
  -5938096.24449  -4618753.33347  21452757.8054   21452751.4574
       361.5164
   8075894.60849   6282499.10745  22037789.6024   22037784.0314
     -2540.0784
  -4407006.95748  -3427952.50744  23410667.2974   23410661.8554
      2857.2344
  10009753.59748   7786397.47243  24021853.4224   24021848.0274
     -2807.2504
  -9560183.20849  -7438242.24147  21145085.8054   21145080.2544
      1449.9384
 04  9  8 15 52 45.0000000  0  6G 1G11G14G20G22G25
  -9761080.97449  -7594861.19047  21526892.5944   21526887.8594
      1766.1724
  -5943453.81349  -4622928.07147  21451738.2974   21451731.9884
       352.7974
   8114012.72648   6312201.51145  22045043.1564   22045037.7504
     -2542.4224
  -4449862.93448  -3461346.77744  23402512.2424   23402506.1054
      2856.7504
  10051875.09848   7819219.37543  24029869.0634   24029863.6644
     -2809.0004
  -9581874.75849  -7455144.73147  21140958.0474   21140953.1024
      1442.1724
 04  9  8 15 53  0.0000000  0  6G 1G11G14G20G22G25
  -9787531.25049  -7615471.77347  21521859.1884   21521854.5044
      1760.9064
  -5948674.15249  -4626995.88047  21450744.7664   21450738.4144
       343.5164
   8152171.89648   6341935.92945  22052304.4144   22052298.7384
     -2545.2194
  -4492703.58148  -3494729.07544  23394359.8284   23394354.4264
      2855.6414
  10094030.82748   7852067.93143  24037891.2584   24037885.5784
     -2811.4224
  -9603442.50149  -7471950.75947  21136854.0864   21136848.3754
      1433.7974
 04  9  8 15 53 15.0000000  0  6G 1G11G14G20G22G25
  -9813907.15449  -7636024.42447  21516840.0864   21516835.6414
      1756.0474
  -5953759.75549  -4630958.69047  21449777.0784   21449770.7154
       334.6724
   8190369.47948   6371700.24745  22059573.6564   22059567.7424
     -2547.6874
  -4535531.21948  -3528101.24744  23386209.5864   23386204.1804
      2854.8284
  10136218.23948   7884941.19043  24045919.4064   24045913.5354
     -2813.4224
  -9624888.76849  -7488662.12947  21132773.1094   21132767.5274
      1425.7194
 04  9  8 15 53 30.0000000  0  6G 1G11G14G20G22G25
  -9840212.89549  -7656522.39947  21511834.0234   21511829.2464
      1751.6724
  -5958714.75549  -4634819.73947  21448834.1484   21448827.8164
       326.2344
   8228601.07948   6401491.08345  22066848.9144   22066842.7304
     -2549.6564
  -4578349.87048  -3561466.41944  23378061.6884   23378056.1334
      2854.6094
  10178433.15947   7917835.89843  24053952.0004   24053947.2774
     -2815.0314
  -9646217.40849  -7505281.84947  21128714.6724   21128708.3364
      1418.2664
 04  9  8 15 53 45.0000000  0  6G 1G11G14G20G22G25
  -9866448.28249  -7676965.56147  21506841.7504   21506837.3484
      1746.2034
  -5963538.80249  -4638578.75847  21447916.0084   21447909.7814
       316.7974
   8266866.63448   6431308.38045  22074130.7034   22074124.3674
     -2552.6094
  -4621159.16648  -3594824.30944  23369915.5004   23369909.9964
      2853.2034
  10220675.62947   7950752.03443  24061990.8594   24061985.3484
     -2817.5314
  -9667428.18549  -7521809.71247  21124678.1094   21124672.0784
      1409.7344
 04  9  8 15 54  0.0000000  0  6G 1G11G14G20G22G25
  -9892606.74349  -7697348.76447  21501863.9224   21501859.2544
      1741.5634
  -5968225.24449  -4642230.53347  21447024.4924   21447018.2894
       308.0944
   8305172.55848   6461157.12846  22081419.8444   22081413.9804
     -2554.8594
  -4663952.52948  -3628169.79344  23361771.7814   23361766.6684
      2852.5164
  10262952.22547   7983694.79343  24070035.5314   24070030.0124
     -2819.2814
  -9688514.36849  -7538240.50747  21120665.5474   21120659.9654
      1401.8134
 04  9  8 15 54 15.0000000  0  6G 1G11G14G20G22G25
  -9918693.02249  -7717675.72847  21496900.0004   21496895.8164
      1736.5164
  -5972778.96949  -4645778.90147  21446158.0474   21446151.8634
       299.0164
   8343513.83048   6491033.43345  22088715.7114   22088710.0744
     -2557.3914
  -4706734.49948  -3661506.36444  23353630.6884   23353625.4534
      2851.6724
  10305258.08048   8016660.35243  24078086.3364   24078080.5554
     -2821.4374
  -9709480.61149  -7554577.82247  21116675.6644   21116670.1994
      1393.6254
 04  9  8 15 54 30.0000000  0  6G 1G11G14G20G22G25
  -9944704.19749  -7737944.16447  21491950.0234   21491945.5784
      1731.7504
  -5977196.94549  -4649221.49047  21445317.5314   21445311.1564
       290.2034
   8381893.14548   6520939.37145  22096019.2734   22096013.7464
     -2559.6564
  -4749502.03348  -3694831.70944  23345492.7114   23345486.8554
      2850.8594
  10347596.11948   8049650.95743  24086143.2344   24086138.1914
     -2823.3914
  -9730323.82449  -7570819.27847  21112709.2504   21112704.0354
      1385.6094
 04  9  8 15 54 45.0000000  0  6G 1G11G14G20G22G25
  -9970642.47049  -7758155.79147  21487014.1094   21487009.8134
      1726.6094
  -5981481.38649  -4652560.02747  21444502.1564   21444495.8094
       280.9844
   8420308.09348   6550873.08246  22103329.6644   22103323.5664
     -2562.3124
  -4792257.24548  -3728147.47244  23337356.6334   23337351.4184
      2849.7814
  10389963.94848   8082664.80243  24094205.9144   24094199.2584
     -2825.6564
  -9751046.26149  -7586966.63347  21108766.0164   21108760.5704
      1377.2814
 04  9  8 15 55  0.0000000  0  6G 1G11G14G20G22G25
  -9996508.59449  -7778311.20347  21482091.8444   21482087.2624
      1721.8284
  -5985632.82349  -4655794.91347  21443712.1644   21443705.4064
       272.1414
   8458757.82948   6580833.90846  22110646.2814   22110640.5704
     -2564.5944
  -4835000.70448  -3761454.05744  23329222.6724   23329216.9924
      2849.0314
  10432360.85648   8115701.32243  24102273.4694   24102267.1294
     -2827.5624
  -9771648.26349  -7603020.13047  21104845.6174   21104840.1764
      1369.3134
 04  9  8 15 55 15.0000000  0  6G 1G11G14G20G22G25
 -10022303.32249  -7798410.98447  21477183.2734   21477178.5824
      1717.3444
  -5989652.10049  -4658926.82447  21442947.2424   21442940.8484
       263.5944
   8497241.34948   6610821.04245  22117969.2344   22117963.3714
     -2566.5944
  -4877733.08948  -3794751.99044  23321091.0164   23321085.6214
      2848.5004
  10474786.04248   8148759.84443  24110346.4384   24110340.4414
     -2829.2814
  -9792130.46949  -7618980.27847  21100947.8204   21100942.4064
      1361.4844
 04  9  8 15 55 30.0000000  0  6G 1G11G14G20G22G25
 -10048025.84649  -7818454.50047  21472288.7504   21472284.0554
      1712.2664
  -5993538.40349  -4661955.12647  21442207.7664   21442201.2974
       254.5164
   8535759.29248   6640835.01045  22125299.0634   22125293.2504
     -2569.1414
  -4920453.36548  -3828040.53444  23312961.5864   23312956.0234
      2847.4694
  10517240.29348   8181840.99543  24118426.1414   24118419.2154
     -2831.4224
  -9812491.93849  -7634846.34847  21097073.2504   21097067.5354
      1353.2344
 04  9  8 15 55 45.0000000  0  6G 1G11G14G20G22G25
 -10073673.06549  -7838439.33647  21467407.5554   21467403.2154
      1707.1564
  -5997288.51449  -4664877.30547  21441493.7344   21441487.5554
       245.3444
   8574314.60149   6670878.08345  22132635.7894   22132629.8134
     -2571.6874
  -4963158.34648  -3861317.13044  23304835.0394   23304829.2974
      2846.4064
  10559726.67648   8214947.21643  24126511.3984   24126503.8914
     -2833.5624
  -9832729.48349  -7650615.85247  21093222.4224   21093216.7934
      1344.9384
 04  9  8 15 56  0.0000000  0  6G 1G11G14G20G22G25
 -10099247.62149  -7858367.55447  21462541.2504   21462537.0824
      1702.3134
  -6000905.02949  -4667695.37347  21440805.9924   21440799.1604
       236.4384
   8612904.28848   6700947.95745  22139979.3674   22139973.8244
     -2574.0944
  -5005850.46548  -3894583.70143  23296710.9144   23296705.5084
      2845.5004
  10602242.45447   8248076.32943  24134601.5864   24134594.7074
     -2835.6094
  -9852845.66549  -7666290.78447  21089394.1804   21089388.6524
      1336.7664
 04  9  8 15 56 15.0000000  0  6G 1G11G14G20G22G25
 -10124749.25649  -7878238.94647  21457688.6414   21457684.1724
      1697.6884
  -6004387.71549  -4670409.16447  21440142.9694   21440136.7464
       227.7034
   8651528.47249   6731044.70045  22147329.2504   22147323.3794
     -2576.0624
  -5048529.29948  -3927839.92344  23288589.3834   23288583.9884
      2844.7504
  10644787.86747   8281228.53343  24142697.2424   24142690.7504
     -2837.3284
  -9872840.15949  -7681870.90947  21085589.3364   21085583.8364
      1328.8914
 04  9  8 15 56 30.0000000  0  6G 1G11G14G20G22G25
 -10150177.01449  -7898052.77247  21452849.8594   21452845.1564
      1692.5944
  -6007735.54749  -4673017.87647  21439505.8674   21439499.5554
       218.5474
   8690187.96949   6761168.96845  22154686.0784   22154680.1724
     -2578.5784
  -5091193.79148  -3961084.97844  23280470.3674   23280465.1724
      2843.6564
  10687363.78747   8314404.54443  24150799.1644   24150792.8164
     -2839.5004
  -9892711.66249  -7697355.18447  21081807.7114   21081802.1954
      1320.5634
 04  9  8 15 56 45.0000000  0  6G 1G11G14G20G22G25
 -10175531.80749  -7917809.73847  21448025.2424   21448020.5984
      1687.9844
  -6010949.44849  -4675522.21447  21438894.3754   21438888.1844
       209.9224
   8728881.61849   6791319.85345  22162049.0784   22162043.3364
     -2580.6254
  -5133844.76048  -3994319.48144  23272354.1804   23272349.0514
      2843.0314
  10729969.22147   8347603.49843  24158906.5554   24158900.9884
     -2841.2344
  -9912461.04849  -7712744.31247  21078049.6724   21078044.1024
      1312.6094
 04  9  8 15 57  0.0000000  0  6G 1G11G14G20G22G25
 -10200813.86949  -7937510.04847  21443213.9384   21443209.5204
      1682.8284
  -6014029.80049  -4677922.51447  21438308.3524   21438302.1454
       200.6884
   8767609.00949   6821497.01445  22169419.0234   22169413.2154
     -2583.1724
  -5176482.26348  -4027543.51843  23264240.7664   23264234.9494
      2841.8284
  10772603.77646   8380825.18843  24167019.2114   24167014.0084
     -2843.4374
  -9932088.44649  -7728038.38447  21074314.5704   21074309.0474
      1304.2034
 04  9  8 15 57 15.0000000  0  6G 1G11G14G20G22G25
 -10226022.21649  -7957152.90547  21438416.9384   21438412.1454
      1678.2034
  -6016975.34849  -4680217.75247  21437747.5554   21437741.1054
       191.9844
   8806370.85949   6851701.03445  22176795.0164   22176789.1254
     -2585.2194
  -5219105.20248  -4060756.20544  23256129.6094   23256124.2504
      2841.1564
  10815268.44646   8414070.33643  24175138.1724   24175132.8634
     -2845.1724
  -9951592.82849  -7743236.59747  21070603.1024   21070597.8054
      1296.2664
 04  9  8 15 57 30.0000000  0  6G 1G11G14G20G22G25
 -10251160.11949  -7976740.87247  21433633.4844   21433628.2344
      1673.5164
  -6019789.14449  -4682410.33147  21437212.1724   21437205.9614
       183.1254
   8845163.79349   6881929.26845  22184176.7274   22184170.8954
     -2587.2664
  -5261716.73148  -4093959.97844  23248021.2274   23248015.3954
      2840.3914
  10857959.96046   8447336.38243  24183262.0234   24183257.4694
     -2847.0314
  -9970977.16049  -7758341.26447  21066914.6884   21066908.9774
      1288.2504
 04  9  8 15 57 45.0000000  0  6G 1G11G14G20G22G25
 -10276226.51549  -7996273.12347  21428863.5394   21428858.5004
      1668.6414
  -6022470.33749  -4684499.57647  21436701.9924   21436695.4694
       174.2344
   8883988.72549   6912182.44545  22191565.2274   22191558.8324
     -2589.4534
  -5304315.58048  -4127153.87244  23239915.0394   23239908.7894
      2839.3914
  10900679.33847   8480624.18043  24191391.8674   24191387.1484
     -2848.9694
  -9990240.30049  -7773351.49747  21063248.7734   21063243.1884
      1280.1254
 04  9  8 15 58  0.0000000  0  6G 1G11G14G20G22G25
 -10301217.58149  -8015746.66447  21424107.8204   21424103.2384
      1663.5004
  -6025014.99549  -4686482.43847  21436218.0234   21436211.3834
       165.0164
   8922849.23949   6942463.34245  22198959.6644   22198954.0864
     -2591.9694
  -5346897.82648  -4160334.85544  23231811.9614   23231805.7854
      2838.1414
  10943430.44647   8513936.67343  24199527.5314   24199522.5394
     -2851.2504
 -10009378.30249  -7788264.22347  21059606.9534   21059601.7974
      1271.5944
 04  9  8 15 58 15.0000000  0  6G 1G11G14G20G22G25
 -10326132.97149  -8035161.24247  21419366.6254   21419361.5784
      1658.8594
  -6027422.79049  -4688358.65047  21435759.5784   21435753.1174
       156.3754
   8961745.39549   6972772.02245  22206361.8754   22206355.6294
     -2593.8594
  -5389462.97548  -4193502.50844  23223711.5634   23223706.6604
      2837.4844
  10986213.41947   8547273.99543  24207669.2194   24207663.2664
     -2852.9064
 -10028390.77649  -7803079.12947  21055988.7814   21055983.4344
      1263.7194
 04  9  8 15 58 30.0000000  0  6G 1G11G14G20G22G25
 -10350976.32949  -8054519.69547  21414639.3984   21414634.5274
      1653.9384
  -6029697.47049  -4690131.13947  21435326.6024   21435320.4024
       147.2034
   9000673.37049   7003105.49545  22213769.7974   22213763.4064
     -2596.2034
  -5432014.48348  -4226659.51543  23215614.2974   23215609.0354
      2836.4224
  11029024.58547   8580633.28043  24215815.6954   24215810.4304
     -2855.0004
 -10047281.21649  -7817798.95047  21052394.0864   21052388.6174
      1255.4064
 04  9  8 15 58 45.0000000  0  6G 1G11G14G20G22G25
 -10375748.82649  -8073822.92647  21409924.8674   21409920.1604
      1649.1724
  -6031840.10149  -4691800.72947  21434919.1564   21434912.4024
       138.5164
   9039631.81049   7033462.69745  22221183.5164   22221177.2114
     -2598.1094
  -5474553.32548  -4259806.65744  23207519.3284   23207514.4774
      2835.5314
  11071862.73647   8614013.61143  24223967.0784   24223961.7384
     -2856.6874
 -10066050.71949  -7832424.53047  21048822.5634   21048816.9224
      1247.3754
 04  9  8 15 59  0.0000000  0  6G 1G11G14G20G22G25
 -10400448.45249  -8093069.38247  21405224.7664   21405219.9924
      1644.2194
  -6033848.51749  -4693365.73347  21434536.4614   21434530.2384
       129.3914
   9078622.65449   7063845.16445  22228602.8364   22228597.0704
     -2600.5004
  -5517077.43148  -4292942.31543  23199427.5314   23199421.9144
      2834.4384
  11114729.82746   8647416.47043  24232125.0234   24232118.6804
     -2858.8754
 -10084696.92349  -7846954.03147  21045274.2344   21045269.1844
      1238.9384
 04  9  8 15 59 15.0000000  0  6G 1G11G14G20G22G25
 -10425073.99249  -8112258.10447  21400538.8054   21400533.6994
      1639.1884
  -6035721.60049  -4694825.28447  21434180.1954   21434173.9264
       120.2814
   9117646.79349   7094253.56245  22236028.9774   22236022.5944
     -2602.7664
  -5559585.35148  -4326065.38444  23191338.0314   23191333.0554
      2833.2814
  11157626.93746   8680842.73843  24240287.9304   24240282.1294
     -2860.8754
 -10103218.63049  -7861386.52747  21041749.7274   21041743.5944
      1230.6254
 04  9  8 15 59 30.0000000  0  6G 1G11G14G20G22G25
 -10449628.03349  -8131391.11947  21395866.0944   21395861.4614
      1634.3284
  -6037461.80849  -4696181.30147  21433849.3754   21433843.1054
       111.4064
   9156701.48349   7124685.78045  22243460.8444   22243454.9694
     -2604.8444
  -5602079.57248  -4359177.74744  23183251.7584   23183246.2234
      2832.2814
  11200551.53947   8714290.41043  24248455.8524   24248450.5164
     -2862.7034
 -10121618.28149  -7875723.90847  21038248.4844   21038242.8204
      1222.3284
 04  9  8 15 59 45.0000000  0  6G 1G11G14G20G22G25
 -10474108.64349  -8150466.89847  21391207.4534   21391202.9694
      1629.5164
  -6039067.36549  -4697432.39347  21433543.9454   21433537.2814
       102.5164
   9195788.52549   7155143.19745  22250898.7584   22250892.8164
     -2606.8914
  -5644557.95348  -4392277.79144  23175168.9064   23175163.4064
      2831.2974
  11243505.50147   8747760.96443  24256629.3284   24256624.4264
     -2864.5944
 -10139893.95949  -7889964.69347  21034770.9774   21034765.3404
      1214.1884
 04  9  8 16  0  0.0000000  0  6G 1G11G14G20G22G25
 -10498519.30049  -8169488.17947  21386562.5164   21386557.3984
      1624.6414
  -6040541.66249  -4698581.20747  21433263.2114   21433256.5594
        93.5474
   9234904.06149   7185622.81745  22258341.9774   22258335.9924
     -2609.0164
  -5687023.96848  -4425368.18243  23167087.8444   23167082.2584
      2830.3134
  11286485.16847   8781251.52543  24264808.6564   24264803.1094
     -2866.5474
 -10158048.93849  -7904111.42847  21031315.8444   21031310.1294
      1205.8914
 04  9  8 16  0 15.0000000  0  6G 1G11G14G20G22G25
 -10522855.40049  -8188451.35947  21381931.5164   21381926.0904
      1619.9534
  -6041880.08449  -4699624.14847  21433008.3754   21433002.4654
        84.6564
   9274052.69549   7216128.23245  22265791.9384   22265785.7854
     -2610.9694
  -5729472.69948  -4458445.09944  23159010.0634   23159004.4264
      2829.3284
  11329495.17447   8814765.76443  24272993.1954   24272987.4144
     -2868.3914
 -10176078.45249  -7918160.39247  21027884.8444   21027879.3834
      1197.8134
 04  9  8 16  0 30.0000000  0  6G 1G11G14G20G22G25
 -10547120.07449  -8207358.88147  21377313.9144   21377309.1414
      1615.1724
  -6043085.70249  -4700563.59546  21432778.9844   21432772.5354
        75.8284
   9313231.13349   7246656.85845  22273247.1174   22273241.2624
     -2613.0164
  -5771907.22148  -4491510.95944  23150934.8984   23150929.6684
      2828.4064
  11372532.43147   8848301.22242  24281183.1644   24281177.7544
     -2870.2034
 -10193985.45049  -7932113.89447  21024477.2734   21024471.6844
      1189.6414
 04  9  8 16  0 45.0000000  0  6G 1G11G14G20G22G25
 -10571313.43349  -8226210.83547  21372710.1804   21372705.3554
      1610.6254
  -6044158.58149  -4701399.61547  21432574.5394   21432568.8324
        67.2034
   9352439.03349   7277208.46645  22280708.6954   22280702.8834
     -2614.7814
  -5814327.41248  -4524565.65344  23142862.9384   23142857.3754
      2827.6414
  11415596.72047   8881857.74942  24289377.9534   24289372.9844
     -2871.7974
 -10211769.95349  -7945971.94247  21021092.8984   21021087.6994
      1181.6564
 04  9  8 16  1  0.0000000  0  6G 1G11G14G20G22G25
 -10595435.64249  -8245007.35646  21368119.6024   21368114.7974
      1605.7974
  -6045098.91149  -4702132.34947  21432395.7114   21432389.7384
        58.2504
   9391676.01649   7307782.71745  22288174.5394   22288169.2774
     -2616.7194
  -5856733.30848  -4557609.19444  23134793.1254   23134787.4844
      2826.5314
  11458687.76048   8915435.13743  24297578.1884   24297572.6134
     -2873.6254
 -10229431.99149  -7959734.55847  21017732.0084   21017727.2504
      1173.4384
 04  9  8 16  1 15.0000000  0  6G 1G11G14G20G22G25
 -10619485.96549  -8263747.85347  21363542.9064   21363538.3444
      1601.0474
  -6045905.96549  -4702761.22847  21432242.3594   21432235.4614
        49.4224
   9430942.56949   7338380.02045  22295647.0554   22295641.6724
     -2618.7034
  -5899124.00548  -4590640.89344  23126726.1094   23126721.0744
      2825.6414
  11501806.19047   8949033.86443  24305783.2504   24305777.7344
     -2875.4694
 -10246970.72149  -7973401.09747  21014394.4144   21014388.9844
      1165.2344
 04  9  8 16  1 30.0000000  0  6G 1G11G14G20G22G25
 -10643463.81549  -8282431.88647  21358980.1724   21358975.1484
      1596.0474
  -6046578.99949  -4703285.67547  21432114.2584   21432107.8364
        40.3284
   9470239.25249   7369000.78846  22303124.6564   22303119.2274
     -2620.8914
  -5941498.83648  -4623660.24344  23118662.7974   23118657.1884
      2824.2974
  11544952.71347   8982654.44043  24313993.7974   24313987.7424
     -2877.4534
 -10264385.54649  -7986971.08947  21011080.7274   21011075.1844
      1156.7974
 04  9  8 16  1 45.0000000  0  6G 1G11G14G20G22G25
 -10667369.43349  -8301059.62447  21354431.2344   21354426.5004
      1591.2344
  -6047118.45849  -4703706.04147  21432011.5944   21432005.1564
        31.4534
   9509565.55249   7399644.64045  22310608.7194   22310602.7344
     -2622.7974
  -5983857.77148  -4656667.18544  23110602.3364   23110597.0234
      2823.3134
  11588127.01347   9016296.71042  24322209.6094   24322204.6294
     -2879.2344
 -10281676.56949  -8000444.60647  21007790.0164   21007784.8324
      1148.5314
 04  9  8 16  2  0.0000000  0  5G 1G11G14G20G25
 -10691201.95649  -8319630.41647  21349896.0784   21349891.1174
      1586.5314
  -6047523.30549  -4704021.51446  21431934.4454   21431928.2384
        22.6094
   9548922.27749   7430312.20845  22318097.9064   22318091.9774
     -2624.6724
  -6026199.79748  -4689660.97344  23102544.6484   23102539.1724
      2822.4064
 -10298842.78849  -8013820.88647  21004523.9454   21004518.2234
      1140.3754
 04  9  8 16  2 15.0000000  0  5G 1G11G14G20G25
 -10714963.66749  -8338146.02147  21345374.3204   21345369.8524
      1581.5474
  -6047795.96449  -4704233.99547  21431882.2584   21431876.4144
        13.6414
   9588306.79449   7461001.42145  22325592.5944   22325586.6094
     -2626.7194
  -6068527.11248  -4722643.28344  23094490.0234   23094484.0864
      2821.2034
 -10315886.28849  -8027101.52947  21001280.5864   21001275.2424
      1131.9844
 04  9  8 16  2 30.0000000  0  5G 1G11G14G20G25
 -10738653.83849  -8356605.88247  21340866.2814   21340861.2814
      1576.9064
  -6047935.58849  -4704342.79946  21431856.1414   21431849.7934
         4.8444
   9627719.68749   7491712.75045  22333092.9614   22333086.9304
     -2628.5164
  -6110838.81048  -4755613.42744  23086438.4454   23086432.5744
      2820.1884
 -10332806.22349  -8040285.88547  20998060.5554   20998055.2664
      1123.8754
 04  9  8 16  2 45.0000000  0  5G 1G11G14G20G25
 -10762271.67449  -8375009.38247  21336371.9384   21336367.2624
      1572.1414
  -6047941.37249  -4704347.31847  21431855.0394   21431849.2194
        -4.1254
   9667161.52249   7522446.62445  22340598.3674   22340592.3404
     -2630.4064
  -6153133.87148  -4788570.61244  23078389.8594   23078384.2544
      2819.1094
 -10349601.90549  -8053373.43947  20994864.1884   20994858.6024
      1115.4844
 04  9  8 16  3  0.0000000  0  5G 1G11G14G20G25
 -10785815.71949  -8393355.37647  21331891.6564   21331886.7624
      1567.4384
  -6047811.75549  -4704246.32447  21431879.7424   21431873.5124
       -12.9064
   9706633.77649   7553204.21745  22348109.3524   22348103.8914
     -2632.2344
  -6195410.69448  -4821513.58644  23070344.6884   23070339.2154
      2818.0944
 -10366271.66049  -8066362.83847  20991692.0944   20991686.7344
      1107.3284
 04  9  8 16  3 15.0000000  0  5G 1G11G14G20G25
 -10809287.43649  -8411645.01647  21327424.8984   21327420.1094
      1562.2194
  -6047548.28149  -4704041.02747  21431929.9694   21431923.7544
       -22.1564
   9746134.76649   7583984.18945  22355626.2734   22355620.8444
     -2634.4534
  -6237670.50348  -4854443.26744  23062303.8134   23062297.7664
      2816.6564
 -10382816.65449  -8079255.03047  20988543.7504   20988538.2194
      1098.7814
 04  9  8 16  3 30.0000000  0  5G 1G11G14G20G25
 -10832683.83449  -8429875.97447  21322973.1954   21322968.0554
      1557.3914
  -6047148.10549  -4703729.21647  21432006.1334   21431999.8484
       -31.0784
   9785667.18249   7614788.63945  22363149.5234   22363143.9264
     -2636.3594
  -6279910.24848  -4887357.35844  23054265.3204   23054259.4534
      2815.4534
 -10399233.98149  -8092047.75347  20985420.0944   20985414.3364
      1090.4384
 04  9  8 16  3 45.0000000  0  5G 1G11G14G20G25
 -10856007.15349  -8448049.97147  21318534.6564   21318530.2384
      1552.4384
  -6046613.29249  -4703312.48247  21432107.9304   21432101.2234
       -40.1254
   9825228.70649   7645615.79045  22370677.4304   22370671.7854
     -2638.4064
  -6322131.94648  -4920257.36644  23046230.8054   23046224.6914
      2814.1094
 -10415525.69849  -8104742.58447  20982319.7664   20982314.3984
      1081.9384
 04  9  8 16  4  0.0000000  0  5G 1G11G14G20G25
 -10879258.36549  -8466167.80147  21314110.0164   21314105.3404
      1547.7814
  -6045944.93249  -4702791.69547  21432235.0084   21432228.7624
       -48.9064
   9864818.11549   7676464.66345  22378211.1024   22378205.1484
     -2640.0474
  -6364336.36248  -4953143.93044  23038199.6414   23038193.7974
      2813.1884
 -10431692.62649  -8117340.19347  20979243.1174   20979237.9024
      1073.7974
 04  9  8 16  4 15.0000000  0  5G 1G11G14G20G25
 -10902440.46849  -8484231.76347  21309698.7894   21309694.4414
      1543.1884
  -6045145.88949  -4702169.07147  21432386.9924   21432380.6954
       -57.6564
   9904432.34149   7707332.87745  22385749.5864   22385743.7854
     -2641.7974
  -6406526.41548  -4986019.29044  23030170.9614   23030164.9964
      2812.2344
 -10447737.73749  -8129842.87047  20976189.8134   20976184.5824
      1065.6094
 04  9  8 16  4 30.0000000  0  5G 1G11G14G20G25
 -10925549.66849  -8502238.91447  21305301.3054   21305296.3754
      1538.1724
  -6044212.46749  -4701441.73947  21432564.4454   21432558.0474
       -66.7194
   9944074.95349   7738223.20145  22393293.2114   22393287.5554
     -2643.7664
  -6448698.15748  -5018880.38244  23022145.9614   23022140.1454
      2810.8754
 -10463656.96949  -8142247.46847  20973160.3594   20973155.0394
      1057.0784
 04  9  8 16  4 45.0000000  0  5G 1G11G14G20G25
 -10948584.13249  -8520187.84047  21300917.6414   21300913.1134
      1532.9534
  -6043142.69749  -4700608.15947  21432768.1414   21432762.2584
       -76.0164
   9983747.61449   7769136.94545  22400842.0164   22400836.8444
     -2646.0314
  -6490849.51848  -5051725.59944  23014124.8984   23014119.4924
      2809.2194
 -10479448.52749  -8154552.57947  20970155.3364   20970150.1294
      1048.2974
 04  9  8 16  5  0.0000000  0  5G 1G11G14G20G25
 -10971545.01749  -8538079.42547  21296548.4534   21296543.3484
      1528.2194
  -6041937.76149  -4699669.26047  21432997.5394   21432991.3984
       -84.8444
  10023448.97649   7800073.04845  22408397.5004   22408391.5164
     -2647.7664
  -6532981.57648  -5084555.76044  23006107.4534   23006101.5234
      2808.0944
 -10495113.52449  -8166759.06447  20967174.0234   20967168.8524
      1040.0474
 04  9  8 16  5 15.0000000  0  5G 1G11G14G20G25
 -10994431.80449  -8555913.27547  21292193.3134   21292188.2584
      1523.2504
  -6040597.22149  -4698624.69647  21433252.6024   21433246.2584
       -93.9694
  10063179.42549   7831031.82245  22415958.3284   22415952.2304
     -2649.7504
  -6575093.55748  -5117370.28944  22998093.5704   22998088.0124
      2806.7344
 -10510651.28149  -8178866.41147  20964217.5084   20964212.4064
      1031.4844
 04  9  8 16  5 30.0000000  0  5G 1G11G14G20G25
 -11017244.81849  -8573689.63547  21287851.6884   21287847.3484
      1518.4844
  -6039121.39049  -4697474.71347  21433533.8524   21433527.6764
      -102.8594
  10102938.46849   7862012.88145  22423524.1724   22423517.9574
     -2651.4374
  -6617185.60348  -5150169.28144  22990083.9304   22990078.7234
      2805.5164
 -10526062.04249  -8190874.79447  20961284.8364   20961279.7384
      1023.2814
 04  9  8 16  5 45.0000000  0  5G 1G11G14G20G25
 -11039986.40849  -8591410.34147  21283524.3594   21283520.2304
      1513.7034
  -6037512.54849  -4696221.07647  21433839.7194   21433833.6764
      -111.6564
  10142723.50549   7893014.18845  22431094.6024   22431089.0274
     -2653.2034
  -6659259.89948  -5182954.43444  22982077.4454   22982071.6134
      2804.3444
 -10541348.05949  -8202785.96747  20958376.3204   20958370.5984
      1014.9384
 04  9  8 16  6  0.0000000  0  5G 1G11G14G20G25
 -11062653.44549  -8609072.95947  21279210.9534   21279206.0084
      1508.7344
  -6035767.67449  -4694861.44147  21434171.7894   21434166.1484
      -120.7814
  10182537.47749   7924038.04045  22438670.9774   22438664.9064
     -2655.1254
  -6701313.11848  -5215723.16744  22974075.1254   22974069.4144
      2802.9224
 -10556506.01649  -8214597.36547  20955491.8364   20955486.6804
      1006.3594
 04  9  8 16  6 15.0000000  0  5G 1G11G14G20G25
 -11085246.12949  -8626677.63347  21274911.6564   21274907.0234
      1503.9694
  -6033886.93549  -4693395.94347  21434529.6094   21434523.4694
      -129.6414
  10222380.13349   7955084.24845  22446252.9454   22446247.2464
     -2656.8754
  -6743345.35848  -5248475.56045  22966076.5784   22966070.9224
      2801.7664
 -10571536.10649  -8226309.11947  20952631.5474   20952626.2274
       998.0004
 04  9  8 16  6 30.0000000  0  5G 1G11G14G20G25
 -11107767.92249  -8644227.06647  21270626.0004   21270621.4844
      1498.9694
  -6031873.92649  -4691827.38047  21434912.5784   21434906.6564
      -138.6564
  10262247.83349   7986149.97445  22453839.7274   22453833.9024
     -2658.7504
  -6785359.85348  -5281214.11444  22958081.5164   22958076.0864
      2800.3914
 -10586441.54049  -8237923.72747  20949795.2114   20949790.2194
       989.5164
 04  9  8 16  6 45.0000000  0  5G 1G11G14G20G25
 -11130215.61749  -8661718.76847  21266354.2504   21266349.4614
      1494.0314
  -6029725.24049  -4690153.08947  21435321.5784   21435315.6994
      -147.8124
  10302143.58549   8017237.55345  22461431.5634   22461425.6604
     -2660.6564
  -6827353.19747  -5313936.19644  22950090.1254   22950084.4264
      2798.8134
 -10601219.16649  -8249438.75247  20946983.3914   20946977.9414
       980.9064
 04  9  8 16  7  0.0000000  0  5G 1G11G14G20G25
 -11152590.70949  -8679153.90047  21262096.5394   21262091.8754
      1489.3284
  -6027442.51649  -4688374.34947  21435756.2814   21435750.1954
      -156.6254
  10342065.79049   8048345.73945  22469028.6024   22469023.0394
     -2662.2974
  -6869326.75848  -5346642.86744  22942102.7194   22942097.3244
      2797.6724
 -10615870.32649  -8260855.24147  20944194.9694   20944189.9964
       972.6254
 04  9  8 16  7 15.0000000  0  5G 1G11G14G20G25
 -11174894.84249  -8696533.72847  21257852.1024   21257847.7234
      1484.5944
  -6025027.33649  -4686492.40147  21436215.7034   21436209.4734
      -165.4064
  10382012.67549   8079473.16745  22476630.1724   22476624.7894
     -2663.9224
  -6911281.98248  -5379335.24444  22934119.2194   22934113.3364
      2796.3914
 -10630396.64349  -8272174.43847  20941430.8204   20941425.7344
       964.2504
 04  9  8 16  7 30.0000000  0  5G 1G11G14G20G25
 -11197124.34349  -8713855.40847  21253621.8984   21253616.6094
      1479.5164
  -6022476.00549  -4684504.36747  21436701.0864   21436695.1024
      -174.5624
  10421987.57849   8110622.43045  22484237.4384   22484231.0704
     -2665.9224
  -6953215.02848  -5412010.32744  22926139.5704   22926133.5634
      2794.8444
 -10644794.31349  -8283393.40047  20938691.1884   20938685.8204
       955.6094
 04  9  8 16  7 45.0000000  0  5G 1G11G14G20G25
 -11219281.31449  -8731120.56247  21249405.6724   21249400.7504
      1474.7194
  -6019790.66149  -4682411.90747  21437212.2504   21437206.3594
      -183.4844
  10461988.29849   8141791.80245  22491849.0634   22491843.0274
     -2667.5164
  -6995127.78948  -5444669.62244  22918163.6484   22918158.0124
      2793.5314
 -10659065.36049  -8294513.69747  20935975.4384   20935970.2774
       947.2504
 04  9  8 16  8  0.0000000  0  5G 1G11G14G20G25
 -11241366.79049  -8748330.00947  21245203.0474   21245197.7464
      1469.9384
  -6016972.50049  -4680215.94247  21437748.6804   21437742.7194
      -192.3594
  10502013.68449   8172980.39745  22499465.8754   22499459.9694
     -2669.1874
  -7037021.21448  -5477313.85544  22910191.8364   22910185.9144
      2792.2344
 -10673210.66949  -8305536.00047  20933283.8914   20933278.1914
       938.8284
 04  9  8 16  8 15.0000000  0  5G 1G11G14G20G25
 -11263380.16349  -8765483.28547  21241014.1884   21241008.8674
      1465.2194
  -6014020.80249  -4677915.92947  21438310.1884   21438304.3754
      -201.1564
  10542064.20849   8204188.57045  22507086.6804   22507081.0904
     -2670.8124
  -7078894.44748  -5509942.34444  22902223.5474   22902217.6484
      2790.9064
 -10687229.52849  -8316459.78647  20930615.7664   20930610.2154
       930.4224
 04  9  8 16  8 30.0000000  0  6G 1G11G14G20G23G25
 -11285322.44849  -8782581.16447  21236838.7114   21236833.2774
      1460.4384
  -6010936.63849  -4675512.70747  21438896.8834   21438891.3364
      -210.0164
  10582138.67749   8235415.40445  22514712.4454   22514706.6174
     -2672.4694
  -7120748.29748  -5542555.73144  22894259.4844   22894253.4614
      2789.6254
   -122674.97556    -78114.98353  24251855.3834   24251849.7274
      2946.4534
 -10701122.82049  -8327285.72247  20927972.5864   20927966.6724
       922.0634
 04  9  8 16  8 45.0000000  0  6G 1G11G14G20G23G25
 -11307191.09249  -8799621.66147  21232677.3284   21232672.1954
      1455.4064
  -6007717.46449  -4673004.27147  21439509.7274   21439503.8164
      -219.1874
  10622239.39349   8266662.69445  22522343.9304   22522337.7464
     -2674.3754
  -7162579.99048  -5575151.84644  22886298.3834   22886292.9884
      2787.8914
   -166855.64147   -112541.46743  24243448.5004   24243441.8914
      2944.3134
 -10714888.07249  -8338011.88347  20925352.6254   20925347.2274
       913.3284
 04  9  8 16  9  0.0000000  0  6G 1G11G14G20G23G25
 -11328988.67849  -8816606.77447  21228529.3754   21228524.3634
      1450.8444
  -6004365.72649  -4670392.53447  21440147.3054   21440141.4494
      -227.7814
  10662363.83649   8297928.48045  22529979.4144   22529973.7894
     -2675.6724
  -7204391.92048  -5607732.57445  22878341.7344   22878336.4804
      2786.8444
   -211009.89047   -146947.34643  24235046.4454   24235039.3164
      2942.7194
 -10728527.51949  -8348640.01647  20922757.0474   20922751.7584
       905.1724
 04  9  8 16  9 15.0000000  0  6G 1G11G14G20G23G25
 -11350715.68049  -8833536.90347  21224394.5314   21224390.1524
      1446.2034
  -6000882.04249  -4667677.98847  21440810.4534   21440804.9694
      -236.5474
  10702511.31549   8329212.19945  22537619.1414   22537613.9804
     -2677.1874
  -7246184.46648  -5640298.19044  22870389.1644   22870383.7504
      2785.6094
   -255138.02446   -181332.87543  24226648.5234   24226642.3054
      2940.9694
 -10742041.77849  -8359170.60747  20920185.5704   20920179.7854
       896.8444
 04  9  8 16  9 30.0000000  0  6G 1G11G14G20G23G25
 -11372372.41349  -8850412.26847  21220273.2344   21220268.5944
      1441.2034
  -5997266.71749  -4664860.86147  21441498.4384   21441492.5164
      -245.5944
  10742681.24249   8360513.41945  22545263.4614   22545257.5824
     -2678.9694
  -7287957.63948  -5672848.69444  22862439.8134   22862434.5314
      2783.9844
   -299240.32047   -215698.26743  24218256.6174   24218249.4184
      2939.0004
 -10755430.93849  -8369603.71047  20917637.6334   20917632.0164
       888.2194
 04  9  8 16  9 45.0000000  0  6G 1G11G14G20G23G25
 -11393959.76149  -8867233.56547  21216165.4064   21216160.5984
      1436.9534
  -5993520.65449  -4661941.86347  21442211.4454   21442205.3874
      -254.0474
  10782872.58549   8391831.33645  22552911.3054   22552905.5634
     -2680.0314
  -7329712.10348  -5705384.64244  22854494.1174   22854489.0084
      2783.1094
   -343317.59847   -250044.20543  24209868.4064   24209862.1454
      2937.7034
 -10768695.99049  -8379940.10547  20915113.5784   20915107.9344
       880.2814
 04  9  8 16 10  0.0000000  0  6G 1G11G14G20G23G25
 -11415478.40649  -8884001.32647  21212070.6884   21212065.4924
      1432.3284
  -5989644.57849  -4658921.54947  21442948.8284   21442942.9184
      -262.7664
  10823084.60449   8423165.35845  22560563.0634   22560557.8794
     -2681.5474
  -7371448.38948  -5737906.42044  22846552.1644   22846546.5824
      2781.7034
   -387370.40947   -284371.01643  24201484.8834   24201479.4064
      2935.9694
 -10781837.44349  -8390180.18747  20912612.6174   20912607.1254
       871.9844
 04  9  8 16 10 15.0000000  0  6G 1G11G14G20G23G25
 -11436927.36549  -8900714.79247  21207988.8444   21207983.9694
      1427.6414
  -5985637.45349  -4655799.11847  21443711.5234   21443705.4694
      -271.4844
  10863318.02249   8454516.05545  22568219.7344   22568214.1684
     -2682.8444
  -7413165.42347  -5770413.17444  22838613.4144   22838608.3364
      2780.6094
   -431397.67347   -318677.96643  24193107.5944   24193101.3054
      2934.3134
 -10794854.09849  -8400323.03747  20910135.7584   20910130.0234
       863.6564
 04  9  8 16 10 30.0000000  0  6G 1G11G14G20G23G25
 -11458302.17349  -8917370.48647  21203921.7734   21203916.6994
      1422.6414
  -5981494.90049  -4652571.17247  21444499.6884   21444493.5554
      -280.5314
  10903577.29449   8485886.88345  22575880.7034   22575875.1954
     -2684.6414
  -7454858.43547  -5802901.23744  22830679.5164   22830674.4964
      2778.9064
   -475394.99747   -352961.56943  24184734.8524   24184728.8134
      2932.3594
 -10807741.49949  -8410365.16947  20907683.2664   20907677.9654
       855.0474
 04  9  8 16 10 45.0000000  0  6G 1G11G14G20G23G25
 -11479607.26249  -8933971.84247  21199867.3204   21199862.6954
      1417.8594
  -5977221.42649  -4649241.20947  21445312.9774   21445307.0944
      -289.3914
  10943857.72849   8517274.21445  22583545.4144   22583540.6804
     -2686.2034
  -7496531.82848  -5835374.00544  22822749.9384   22822744.1414
      2777.4694
   -519366.62947   -387225.16143  24176367.7114   24176361.1954
      2930.3594
 -10820503.90149  -8420309.88647  20905254.6644   20905249.2274
       846.5004
 04  9  8 16 11  0.0000000  0  6G 1G11G14G20G23G25
 -11500839.23249  -8950516.22247  21195827.1024   21195821.8364
      1413.1094
  -5972813.68749  -4645806.61947  21446151.1334   21446145.4384
      -298.2034
  10984162.54449   8548680.55145  22591215.5944   22591210.3404
     -2687.7034
  -7538181.91148  -5867828.60544  22814823.6024   22814818.1294
      2775.9534
   -563309.10648   -421466.02743  24168005.7194   24167999.1724
      2928.6414
 -10833137.88249  -8430154.54847  20902850.5004   20902845.0514
       838.0944
 04  9  8 16 11 15.0000000  0  6G 1G11G14G20G23G25
 -11521999.91549  -8967005.05647  21191800.0784   21191795.2774
      1408.2034
  -5968273.42049  -4642268.74747  21447015.3134   21447009.7974
      -307.2504
  11024489.81549   8580104.36445  22598889.4694   22598884.1374
     -2689.3914
  -7579810.34248  -5900266.33044  22806902.4144   22806897.0704
      2774.3594
   -607224.05248   -455685.44043  24159649.3134   24159642.5474
      2926.6094
 -10845645.21349  -8439900.53047  20900470.3834   20900465.4304
       829.4844
 04  9  8 16 11 30.0000000  0  6G 1G11G14G20G23G25
 -11543090.91249  -8983439.59447  21187786.8524   21187781.7814
      1403.5634
  -5963602.27349  -4638628.89847  21447904.6254   21447898.3134
      -315.9224
  11064837.81349   8611544.34745  22606568.0234   22606562.2894
     -2690.6724
  -7621418.45448  -5932688.22844  22798984.3444   22798978.7344
      2773.0944
   -651113.08048   -489884.64943  24151297.7814   24151290.4264
      2924.9694
 -10858027.49949  -8449549.05747  20898114.4144   20898108.8094
       821.1564
 04  9  8 16 11 45.0000000  0  6G 1G11G14G20G23G25
 -11564111.25649  -8999819.06847  21183786.7424   21183781.6414
      1398.9694
  -5958799.29149  -4634886.32747  21448818.5084   21448812.5164
      -324.6414
  11105207.33249   8643001.09445  22614250.1484   22614244.4614
     -2692.0004
  -7663005.07647  -5965093.38844  22791070.5234   22791065.5864
      2771.6724
   -694975.25548   -524062.91943  24142950.5944   24142942.6564
      2923.1884
 -10870283.62149  -8459099.26047  20895781.9384   20895776.4534
       812.7664
 04  9  8 16 12  0.0000000  0  6G 1G11G14G20G23G25
 -11585059.09949  -9016142.06447  21179800.3524   21179795.5124
      1394.2344
  -5953862.73749  -4631039.66147  21449757.6724   21449752.0084
      -333.4224
  11145600.15149   8674475.99045  22621936.1254   22621930.9534
     -2693.5004
  -7704568.20048  -5997480.22544  22783161.0554   22783155.9414
      2770.1724
   -738808.43548   -558218.63143  24134610.0634   24134602.0944
      2921.3134
 -10882411.57149  -8468549.61647  20893473.9614   20893468.3324
       804.3594
 04  9  8 16 12 15.0000000  0  6G 1G11G14G20G23G25
 -11605937.40649  -9032410.85947  21175827.5554   21175822.4734
      1389.7344
  -5948795.52349  -4627091.18947  21450721.7974   21450716.0514
      -342.0624
  11186013.22649   8705966.68345  22629626.6724   22629621.2034
     -2694.7344
  -7746110.58848  -6029850.89844  22775256.4694   22775251.1414
      2769.0004
   -782615.55948   -592354.02743  24126273.2814   24126265.7464
      2919.7974
 -10894414.31649  -8477902.38747  20891189.9454   20891184.1334
       796.1564
 04  9  8 16 12 30.0000000  0  6G 1G11G14G20G23G25
 -11626744.04149  -9048623.81047  21171868.1094   21171863.2974
      1384.8754
  -5943595.43249  -4623039.18447  21451711.6884   21451705.7974
      -350.9064
  11226448.42848   8737474.60545  22637321.3204   22637315.7894
     -2696.2344
  -7787629.80148  -6062203.53944  22767355.5164   22767350.1134
      2767.3914
   -826394.21248   -626467.23943  24117942.6254   24117935.1804
      2917.8284
 -10906289.68849  -8487155.93047  20888930.2194   20888924.4184
       787.6414
 04  9  8 16 12 45.0000000  0  6G 1G11G14G20G23G25
 -11647480.83349  -9064782.35247  21167921.9614   21167917.0394
      1380.1254
  -5938264.36649  -4618885.11947  21452726.2194   21452720.2274
      -359.7664
  11266903.80148   8768998.24045  22645019.3364   22645013.7424
     -2697.7034
  -7829127.58148  -6094539.45844  22759458.6884   22759452.9224
      2765.7974
   -870146.19648   -660559.66243  24109616.6254   24109609.1914
      2915.8754
 -10918039.30749  -8496311.45947  20886694.6644   20886689.0784
       779.0784
 04  9  8 16 13  0.0000000  0  6G 1G11G14G20G23G25
 -11668148.49249  -9080886.99747  21163988.9694   21163984.0474
      1375.5474
  -5932803.28249  -4614629.72747  21453765.3754   21453759.8674
      -368.4064
  11307378.40648   8800536.87645  22652721.5704   22652715.9264
     -2698.9534
  -7870604.52948  -6126859.14144  22751565.9454   22751560.0904
      2764.4224
   -913872.37747   -694632.00843  24101295.8524   24101288.4184
      2914.2664
 -10929663.99449  -8505369.65447  20884482.1334   20884476.0824
       770.7974
 04  9  8 16 13 15.0000000  0  6G 1G11G14G20G23G25
 -11688746.76649  -9096937.60247  21160069.1024   21160064.1844
      1370.9534
  -5927211.83949  -4610272.76947  21454829.2424   21454823.4344
      -377.0164
  11347872.40148   8832090.60945  22660427.6334   22660422.2074
     -2700.2194
  -7912060.11648  -6159162.18444  22743677.2504   22743671.4654
      2763.0004
   -957572.25547   -728683.81643  24092979.5084   24092973.1024
      2912.4534
 -10941163.24549  -8514330.10047  20882294.1174   20882288.2584
       762.4694
 04  9  8 16 13 30.0000000  0  6G 1G11G14G20G23G25
 -11709270.16249  -9112929.84947  21156163.7034   21156158.6954
      1366.0474
  -5921484.55349  -4605809.95447  21455919.2734   21455913.3984
      -386.0314
  11388391.16848   8863663.64045  22668137.7814   22668132.5234
     -2701.7194
  -7953488.65148  -6191444.15744  22735793.3054   22735787.7274
      2761.3134
  -1001240.23447   -762710.80943  24084668.8914   24084663.0744
      2910.4694
 -10952531.45549  -8523188.43547  20880130.5704   20880124.7344
       753.8754
 04  9  8 16 13 45.0000000  0  6G 1G11G14G20G23G25
 -11729722.09949  -9128866.42247  21152271.8674   21152266.8204
      1361.0784
  -5915625.02549  -4601244.09947  21457034.4774   21457028.4884
      -395.0314
  11428931.09948   8895253.16545  22675852.8134   22675847.1524
     -2703.3594
  -7994893.36148  -6223707.57844  22727914.5944   22727908.7774
      2759.5634
  -1044879.74247   -796715.59343  24076364.7664   24076358.8754
      2908.3754
 -10963772.06549  -8531947.35447  20877991.7274   20877985.9844
       745.1414
 04  9  8 16 14  0.0000000  0  6G 1G11G14G20G23G25
 -11750101.97749  -9144746.83447  21148393.3914   21148389.0664
      1355.9534
  -5909632.54249  -4596574.64147  21458174.6644   21458168.8444
      -404.2504
  11469492.68548   8926859.57945  22683570.7734   22683565.0944
     -2705.1094
  -8036273.27148  -6255951.64345  22720040.0474   22720034.5784
      2757.5784
  -1088490.02647   -830697.62243  24068066.2114   24068059.9224
      2906.1414
 -10974884.39549  -8540606.30047  20875877.1804   20875871.3404
       736.2664
 04  9  8 16 14 15.0000000  0  6G 1G11G14G20G23G25
 -11770410.22649  -9160571.42947  21144528.9924   21144524.2114
      1351.9384
  -5903507.61649  -4591801.98047  21459340.1414   21459334.2704
      -412.3754
  11510075.41048   8958482.46145  22691293.8524   22691288.5704
     -2705.7504
  -8077628.75348  -6288176.67845  22712170.4774   22712164.4574
      2756.6254
  -1132071.31347   -864657.08043  24059772.5704   24059766.0274
      2904.8594
 -10985868.74449  -8549165.52447  20873786.6884   20873780.7894
       728.4224
 04  9  8 16 14 30.0000000  0  6G 1G11G14G20G23G25
 -11790648.77449  -9176341.72247  21140677.8284   21140673.1684
      1346.9534
  -5897252.18049  -4586927.63646  21460530.6644   21460524.3984
      -421.3284
  11550677.29148   8990120.27245  22699020.2034   22699014.6254
     -2707.3914
  -8118961.46648  -6320383.97844  22704305.1094   22704299.1884
      2754.7974
  -1175625.49647   -898595.35143  24051485.1564   24051477.9694
      2902.7034
 -10996726.92649  -8557626.44647  20871720.5634   20871714.9884
       719.7034
 04  9  8 16 14 45.0000000  0  6G 1G11G14G20G23G25
 -11810815.20249  -9192055.82247  21136840.4144   21136835.3914
      1342.3444
  -5890863.81649  -4581949.70447  21461746.2344   21461740.1454
      -430.1094
  11591300.38748   9021774.60145  22706750.3204   22706744.7894
     -2708.7194
  -8160268.93648  -6352571.60745  22696444.7814   22696438.7664
      2753.2664
  -1219150.17747   -932510.65742  24043202.6484   24043195.5354
      2900.9384
 -11007456.68549  -8565987.28747  20869678.6564   20869672.8984
       711.2814
 04  9  8 16 15  0.0000000  0  6G 1G11G14G20G23G25
 -11830911.19749  -9207715.02347  21133015.9614   21133010.9804
      1337.3754
  -5884344.40249  -4576869.65147  21462986.5554   21462980.3484
      -438.9224
  11631943.01548   9053444.15645  22714484.1564   22714478.9924
     -2710.1094
  -8201552.61448  -6384740.69445  22688588.7424   22688582.6764
      2751.4384
  -1262646.97647   -966404.25643  24034925.8444   24034918.4104
      2898.8754
 -11018059.69249  -8574249.36747  20867661.1804   20867655.3164
       702.6414
 04  9  8 16 15 15.0000000  0  6G 1G11G14G20G23G25
 -11850934.09749  -9223317.26947  21129205.8914   21129201.0784
      1332.2344
  -5877691.21249  -4571685.35947  21464252.5704   21464246.5004
      -448.2034
  11672607.65748   9085130.86145  22722222.8134   22722218.0044
     -2711.9064
  -8242809.53148  -6416888.93645  22680737.8674   22680732.0234
      2749.3444
  -1306112.96947  -1000273.81243  24026653.9304   24026647.0474
      2896.4534
 -11028533.13049  -8582410.47947  20865668.1174   20865662.2504
       693.6564
 04  9  8 16 15 30.0000000  0  6G 1G11G14G20G23G25
 -11870886.98649  -9238864.96647  21125408.9224   21125404.1254
      1327.8754
  -5870907.30749  -4566399.20546  21465543.8594   21465537.3794
      -456.5624
  11713291.06548   9116832.20545  22729964.6024   22729958.9384
     -2712.8594
  -8284042.54648  -6449018.53845  22672891.3754   22672885.3914
      2748.1094
  -1349551.22147  -1034121.73542  24018387.8134   24018380.6764
      2895.0634
 -11038879.96149  -8590472.93047  20863699.0864   20863693.6374
       685.5634
 04  9  8 16 15 45.0000000  0  6G 1G11G14G20G23G25
 -11890769.87649  -9254358.11347  21121625.3284   21121620.6454
      1323.0944
  -5863992.72749  -4561011.23346  21466859.5084   21466853.3594
      -465.4224
  11753993.21048   9148548.12845  22737709.9064   22737704.6524
     -2714.1874
  -8325251.40548  -6481129.32945  22665049.3364   22665043.6804
      2746.2974
  -1392961.53747  -1067947.94943  24010127.6954   24010120.3094
      2892.8754
 -11049100.03849  -8598436.62647  20861754.2114   20861748.8324
       676.9844
 04  9  8 16 16  0.0000000  0  6G 1G11G14G20G23G25
 -11910582.83249  -9269796.76647  21117854.9694   21117850.0594
      1318.3134
  -5856947.74849  -4555521.64747  21468200.3364   21468194.2624
      -474.1724
  11794713.89548   9180278.51445  22745459.1254   22745453.6724
     -2715.5624
  -8366436.07749  -6513221.26845  22657212.2344   22657206.0004
      2744.5944
  -1436344.01947  -1101752.45543  24001871.4454   24001865.2424
      2891.0944
 -11059193.44749  -8606301.61347  20859833.4454   20859827.5204
       668.5164
 04  9  8 16 16 15.0000000  0  6G 1G11G14G20G23G25
 -11930325.45149  -9285180.61747  21114098.3204   21114093.2664
      1313.6884
  -5849771.96449  -4549930.14147  21469566.0004   21469559.9884
      -482.8914
  11835453.37448   9212023.53545  22753211.3444   22753205.8524
     -2716.7504
  -8407595.90148  -6545293.86545  22649380.1484   22649373.8094
      2743.0784
  -1479698.06447  -1135534.81743  23993621.5314   23993615.1804
      2889.2194
 -11069159.65849  -8614067.49347  20857936.8914   20857931.1724
       660.0314
 04  9  8 16 16 30.0000000  0  6G 1G11G14G20G23G25
 -11949995.16549  -9300507.66447  21110355.2034   21110349.8984
      1308.8134
  -5842462.84849  -4544234.72847  21470956.6024   21470950.9414
      -491.7504
  11876214.01348   9243785.05145  22760967.6484   22760962.2234
     -2718.1414
  -8448728.12249  -6577344.92245  22641552.7034   22641546.9414
      2741.1414
  -1523021.15447  -1169293.04243  23985377.7894   23985370.6414
      2887.1414
 -11078996.17449  -8621732.30747  20856065.0944   20856059.0234
       651.3914
 04  9  8 16 16 45.0000000  0  6G 1G11G14G20G23G25
 -11969593.58949  -9315779.15047  21106625.9844   21106620.5664
      1304.1724
  -5835022.04549  -4538436.71347  21472372.7344   21472366.6524
      -500.4224
  11916994.14448   9275561.75345  22768727.8984   22768722.8364
     -2719.2814
  -8489834.21349  -6609375.61845  22633730.2894   22633724.4734
      2739.5474
  -1566314.77448  -1203028.31143  23977139.6174   23977132.8444
      2885.2664
 -11088704.49849  -8629297.22747  20854217.2974   20854212.0004
       642.9064
 04  9  8 16 17  0.0000000  0  6G 1G11G14G20G23G25
 -11989120.45649  -9330994.87447  21102909.9534   21102904.9534
      1299.2664
  -5827449.22849  -4532535.83247  21473813.8834   21473807.7234
      -509.3914
  11957793.74948   9307353.62545  22776491.9844   22776486.4224
     -2720.7344
  -8530913.62549  -6641385.55945  22625913.5554   22625907.1524
      2737.5634
  -1609578.53547  -1236740.30643  23968906.1724   23968899.4884
      2883.1254
 -11098284.34349  -8636762.03847  20852394.6564   20852389.0084
       634.2344
 04  9  8 16 17 15.0000000  0  6G 1G11G14G20G23G25
 -12008576.56149  -9346155.46447  21099207.3364   21099202.3204
      1294.7194
  -5819745.44249  -4526532.88947  21475279.6334   21475273.2114
      -517.9844
  11998612.00048   9339160.02645  22784259.9614   22784254.0514
     -2721.8444
  -8571966.94649  -6673375.15145  22618101.1094   22618095.0744
      2736.0004
  -1652813.19047  -1270429.64343  23960679.1644   23960672.8984
      2881.3134
 -11107736.34149  -8644127.22747  20850596.2504   20850590.1524
       625.8134
 04  9  8 16 17 30.0000000  0  6G 1G11G14G20G23G25
 -12027959.42749  -9361258.98647  21095519.0944   21095514.2344
      1289.6724
  -5811908.14549  -4520425.90847  21476770.9844   21476765.0704
      -526.9064
  12039451.26448   9370982.80445  22792030.9064   22792025.5354
     -2723.4374
  -8612991.44549  -6705342.27745  22610294.5704   22610288.2814
      2733.9694
  -1696016.11048  -1304094.24043  23952457.7504   23952450.7934
      2879.0784
 -11117058.00749  -8651390.85647  20848822.1174   20848816.0164
       617.1254
 04  9  8 16 17 45.0000000  0  6G 1G11G14G20G23G25
 -12047269.63549  -9376305.89247  21091844.3594   21091839.9384
      1285.0314
  -5803938.02649  -4514215.43447  21478287.9844   21478281.5084
      -535.6724
  12080310.87848   9402821.44945  22799805.8754   22799800.5354
     -2724.5784
  -8653987.46049  -6737287.20845  22602493.1484   22602487.4534
      2732.1564
  -1739187.73747  -1337734.41843  23944242.1334   23944236.0084
      2877.1884
 -11126249.75649  -8658553.26747  20847073.1564   20847067.3954
       608.5164
 04  9  8 16 18  0.0000000  0  6G 1G11G14G20G23G25
 -12066510.43949  -9391298.71947  21088182.8524   21088178.2344
      1280.6724
  -5795838.33649  -4507904.00546  21479829.1024   21479822.9344
      -544.0314
  12121187.39648   9434673.25745  22807584.7344   22807578.9574
     -2725.4064
  -8694958.03249  -6769212.31445  22594696.6174   22594690.9304
      2730.8134
  -1782331.39547  -1371352.81743  23936032.7034   23936026.3984
      2875.6254
 -11135314.94149  -8665617.03647  20845347.7584   20845342.3524
       600.4844
 04  9  8 16 18 15.0000000  0  6G 1G11G14G20G23G25
 -12085679.90149  -9406235.95947  21084535.0554   21084530.5784
      1275.5314
  -5787607.16949  -4501490.12047  21481395.2504   21481389.2734
      -553.1414
  12162082.67848   9466539.68545  22815366.7114   22815361.3754
     -2726.9534
  -8735901.02249  -6801115.93545  22586905.3204   22586899.3954
      2728.5944
  -1825444.86947  -1404947.72943  23927828.1024   23927822.0204
      2873.2504
 -11144251.32049  -8672580.44947  20843647.1954   20843642.0394
       591.4064
 04  9  8 16 18 30.0000000  0  6G 1G11G14G20G23G25
 -12104776.78949  -9421116.63747  21080901.4454   21080896.0274
      1270.7194
  -5779243.45749  -4494972.94947  21482987.2424   21482980.6844
      -561.9844
  12202997.77348   9498421.53945  22823152.3364   22823147.2774
     -2728.2974
  -8776815.02549  -6832996.97045  22579119.5474   22579114.0354
      2726.6564
  -1868526.84748  -1438518.08743  23919629.6954   23919623.2034
      2871.1094
 -11153057.80549  -8679442.64547  20841971.5474   20841966.2894
       582.8284
 04  9  8 16 18 45.0000000  0  6G 1G11G14G20G23G25
 -12123799.93249  -9435939.86647  21077281.1414   21077276.3874
      1265.6564
  -5770746.06749  -4488351.62047  21484604.0474   21484597.5004
      -571.0944
  12243933.83848   9530319.75245  22830942.3204   22830937.7034
     -2729.8594
  -8817698.68549  -6864854.34945  22571339.6644   22571333.5864
      2724.4694
  -1911576.10348  -1472062.95543  23911437.7344   23911430.9574
      2868.7664
 -11161733.16049  -8686202.66947  20840320.8204   20840315.1684
       573.8444
 04  9  8 16 19  0.0000000  0  6G 1G11G14G20G23G25
 -12142750.90949  -9450706.85447  21073674.9614   21073670.1094
      1261.0314
  -5762116.56249  -4481627.34447  21486246.3204   21486240.2344
      -579.6564
  12284889.12848   9562232.92545  22838736.4304   22838730.4844
     -2730.9374
  -8858553.27949  -6896689.09645  22563565.4534   22563559.8364
      2722.6564
  -1954594.19948  -1505583.51443  23903252.1254   23903244.5704
      2866.9384
 -11170278.85949  -8692861.65547  20838694.5164   20838689.1914
       565.4384
 04  9  8 16 19 15.0000000  0  6G 1G11G14G20G23G25
 -12161631.53149  -9465419.01947  21070082.2504   21070077.2624
      1256.2814
  -5753356.81349  -4474801.57247  21487913.2584   21487906.8134
      -588.3914
  12325861.65548   9594159.55545  22846533.1334   22846527.3754
     -2732.1254
  -8899380.35149  -6928502.37645  22555796.3444   22555790.3324
      2720.7504
  -1997582.74947  -1539081.08943  23895071.4454   23895064.7304
      2864.8134
 -11178696.78949  -8699421.07647  20837092.6254   20837086.8714
       556.8134
 04  9  8 16 19 30.0000000  0  6G 1G11G14G20G23G25
 -12180436.55249  -9480072.27647  21066503.7664   21066498.7544
      1251.1254
  -5744461.69149  -4467870.31247  21489605.8284   21489599.7194
      -597.5624
  12366856.63448   9626103.66945  22854333.8754   22854328.2734
     -2733.7664
  -8940174.54149  -6960290.05345  22548033.7194   22548027.2544
      2718.4694
  -2040536.49648  -1572551.48443  23886897.6334   23886891.1024
      2862.3914
 -11186981.74649  -8705876.88047  20835516.1564   20835510.4694
       547.8134
 04  9  8 16 19 45.0000000  0  6G 1G11G14G20G23G25
 -12199167.51249  -9494667.82547  21062939.1094   21062934.4924
      1246.4064
  -5735432.76549  -4460834.80147  21491324.0554   21491317.9654
      -606.2194
  12407872.36348   9658063.93845  22862139.3914   22862133.4264
     -2734.9694
  -8980937.16349  -6992053.12545  22540276.9534   22540270.5044
      2716.5634
  -2083456.80148  -1605995.85143  23878730.3444   23878723.5864
      2860.3914
 -11195135.12549  -8712230.15947  20833964.6954   20833958.8364
       539.3134
 04  9  8 16 20  0.0000000  0  6G 1G11G14G20G23G25
 -12217826.67349  -9509207.43347  21059388.5704   21059383.5474
      1241.5634
  -5726272.33049  -4453696.80747  21493067.3834   21493060.8244
      -615.0474
  12448906.39848   9690038.49145  22869947.7664   22869942.7154
     -2736.2344
  -9021670.26149  -7023793.18145  22532525.1414   22532519.3874
      2714.5634
  -2126345.86547  -1639415.87543  23870568.5944   23870561.3524
      2858.1884
 -11203159.03849  -8718482.55247  20832438.0164   20832431.9184
       530.5944
 04  9  8 16 20 15.0000000  0  6G 1G11G14G20G23G25
 -12236412.89049  -9523690.19747  21055851.8054   21055847.0944
      1236.6564
  -5716979.45949  -4446455.61747  21494835.5634   21494829.3874
      -623.9694
  12489959.85248   9722028.16945  22877760.0084   22877754.5704
     -2737.5314
  -9062372.41849  -7055509.13845  22524779.8444   22524774.0554
      2712.4534
  -2169202.53648  -1672810.66543  23862413.4844   23862406.5664
      2856.1094
 -11211052.34949  -8724633.18247  20830935.6094   20830930.0274
       521.8594
 04  9  8 16 20 30.0000000  0  6G 1G11G14G20G23G25
 -12254926.42149  -9538116.32847  21052328.7274   21052323.5824
      1231.7664
  -5707554.28849  -4439111.33747  21496629.0784   21496623.4614
      -632.7814
  12531032.24048   9754032.60645  22885575.6804   22885569.9964
     -2738.8124
  -9103043.72049  -7087201.06245  22517040.6254   22517034.1374
      2710.3594
  -2212026.92348  -1706180.32343  23854264.0634   23854257.2274
      2853.8284
 -11218815.19649  -8730682.15347  20829458.5474   20829452.8164
       513.0784
 04  9  8 16 20 45.0000000  0  6G 1G11G14G20G23G25
 -12273370.42049  -9552488.25747  21048819.0784   21048813.9694
      1227.1414
  -5698000.12949  -4431666.54147  21498447.3204   21498440.9614
      -641.3594
  12572120.30648   9786049.25845  22893394.5394   22893389.5164
     -2739.8594
  -9143687.02449  -7118871.14945  22509305.8444   22509300.1054
      2708.5004
  -2254822.11048  -1739527.17943  23846120.7664   23846113.6174
      2851.8754
 -11226450.80849  -8736631.96947  20828005.1884   20827999.7274
       504.7034
 04  9  8 16 21  0.0000000  0  6G 1G11G14G20G23G25
 -12291739.76849  -9566802.02747  21045323.1564   21045318.6524
      1222.1414
  -5688311.81649  -4424117.22647  21500290.7664   21500285.1174
      -650.4224
  12613229.06748   9818082.02145  22901217.2034   22901212.3404
     -2741.2664
  -9184297.05449  -7150515.33045  22501578.3914   22501572.3714
      2706.1414
  -2297582.89548  -1772847.27943  23837982.8284   23837976.1844
      2849.5314
 -11233954.05849  -8742478.65847  20826577.6484   20826572.0314
       495.7344
 04  9  8 16 21 15.0000000  0  6G 1G11G14G20G23G25
 -12310036.48349  -9581059.20447  21041841.4924   21041836.5864
      1217.3914
  -5678491.68349  -4416465.17147  21502159.5004   21502153.4454
      -658.9224
  12654356.42848   9850129.28145  22909043.5474   22909038.7624
     -2742.3914
  -9224875.57549  -7182134.95045  22493856.1484   22493850.1884
      2704.3444
  -2340311.19847  -1806142.05443  23829852.2504   23829845.0474
      2847.5634
 -11241326.87249  -8748223.70847  20825174.5084   20825168.2234
       487.2664
 04  9  8 16 21 30.0000000  0  6G 1G11G14G20G23G25
 -12328260.75849  -9595259.92847  21038373.8914   21038368.5124
      1212.6094
  -5668539.79749  -4408710.46047  21504053.2584   21504047.6524
      -667.7664
  12695502.10747   9882190.83044  22916873.3984   22916868.4734
     -2743.5314
  -9265422.50249  -7213729.93945  22486140.5164   22486135.2734
      2702.1414
  -2383007.00748  -1839411.49743  23821727.4844   23821720.6334
      2845.3914
 -11248569.27049  -8753867.13447  20823796.5784   20823790.8364
       478.5634
 04  9  8 16 21 45.0000000  0  6G 1G11G14G20G23G25
 -12346412.47349  -9609404.12047  21034919.6094   21034914.6254
      1207.5634
  -5658456.06049  -4400853.00347  21505971.9924   21505966.3954
      -676.7814
  12736666.00548   9914266.56844  22924706.4384   22924701.3754
     -2745.0314
  -9305937.57749  -7245300.12445  22478430.6254   22478425.0554
      2699.7504
  -2425670.15848  -1872655.47543  23813608.4224   23813601.6374
      2843.0164
 -11255681.28349  -8759408.95747  20822442.9774   20822437.3054
       469.6724
 04  9  8 16 22  0.0000000  0  6G 1G11G14G20G23G25
 -12364491.64649  -9623491.77648  21031479.1804   21031473.7854
      1202.8914
  -5648240.56449  -4392892.88647  21507916.0234   21507910.4104
      -685.3594
  12777848.04748   9946356.44745  22932543.4534   22932538.3984
     -2746.0624
  -9346420.47849  -7276845.23145  22470726.6954   22470721.4454
      2697.7504
  -2468300.50247  -1905873.90643  23805497.1174   23805489.6484
      2840.9384
 -11262662.69149  -8764849.02047  20821114.6484   20821109.0044
       461.0944
 04  9  8 16 22 15.0000000  0  6G 1G11G14G20G23G25
 -12382498.97349  -9637523.45347  21028052.6644   21028047.9224
      1198.2664
  -5637894.17749  -4384830.77847  21509884.9384   21509879.5164
      -694.0004
  12819047.50448   9978459.90145  22940383.2114   22940377.2274
     -2747.0784
  -9386871.75148  -7308365.68545  22463029.3204   22463023.6334
      2695.8284
  -2510898.71647  -1939067.30643  23797390.9614   23797383.6644
      2838.9064
 -11269514.19349  -8770187.83847  20819810.9144   20819805.1454
       452.5314
 04  9  8 16 22 30.0000000  0  6G 1G11G14G20G23G25
 -12400434.65949  -9651499.30647  21024639.2974   21024634.3284
      1193.4064
  -5627417.22549  -4376666.92547  21511878.9774   21511873.1334
      -702.6874
  12860263.98548  10010576.60944  22948226.7894   22948220.3204
     -2748.2194
  -9427291.37948  -7339861.51045  22455337.7664   22455332.1174
      2693.7034
  -2553464.97347  -1972235.81243  23789290.7894   23789283.2194
      2836.7194
 -11276235.99049  -8775425.60647  20818531.8364   20818525.6884
       443.8754
 04  9  8 16 22 45.0000000  0  6G 1G11G14G20G23G25
 -12418299.63749  -9665420.06047  21021239.9454   21021234.6134
      1188.4694
  -5616810.69549  -4368402.11147  21513897.1954   21513891.5164
      -711.5624
  12901496.49148  10042705.81344  22956073.0394   22956067.2624
     -2749.5314
  -9467679.97449  -7371333.13745  22447651.5164   22447646.6954
      2691.3134
  -2596000.12147  -2005380.06943  23781195.9064   23781189.7504
      2834.5474
 -11282829.03649  -8780563.04747  20817277.0474   20817271.1254
       435.0634
 04  9  8 16 23  0.0000000  0  6G 1G11G14G20G23G25
 -12436091.96849  -9679284.20747  21017854.1644   21017848.8714
      1183.7034
  -5606072.65449  -4360034.80447  21515940.3914   21515934.6094
      -720.2814
  12942746.81647  10074848.89944  22963922.6564   22963917.2034
     -2750.7344
  -9508035.39949  -7402778.90545  22439972.7584   22439966.8834
      2689.1724
  -2638501.93848  -2038498.35643  23773108.7344   23773101.5044
      2832.2194
 -11289291.40449  -8785598.64847  20816047.2114   20816041.5124
       426.4534
 04  9  8 16 23 15.0000000  0  6G 1G11G14G20G23G25
 -12453811.10149  -9693091.32647  21014482.2734   21014476.9774
      1178.9844
  -5595202.55849  -4351564.60647  21518009.1174   21518003.2344
      -728.9224
  12984015.38648  10107006.18845  22971775.8674   22971770.2704
     -2751.7194
  -9548356.91448  -7434198.25845  22432299.7734   22432294.3014
      2687.1414
  -2680969.93147  -2071590.28043  23765026.6484   23765019.9924
      2830.2194
 -11295622.42949  -8790531.91247  20814842.6254   20814837.1414
       417.7664
 04  9  8 16 23 30.0000000  0  6G 1G11G14G20G23G25
 -12471458.28149  -9706842.36347  21011124.6334   21011119.0984
      1174.0164
  -5584201.81749  -4342992.61047  21520102.2664   21520096.5634
      -737.8444
  13025300.90248  10139176.70144  22979632.4224   22979626.5044
     -2753.0624
  -9588645.51048  -7465591.96645  22424632.8134   22424627.9264
      2684.7344
  -2723405.18148  -2104656.71343  23756952.1724   23756944.9024
      2827.8594
 -11301823.20949  -8795363.68747  20813662.2814   20813656.6884
       409.0314
 04  9  8 16 23 45.0000000  0  6G 1G11G14G20G23G25
 -12489033.01249  -9720536.95147  21007780.0944   21007774.8094
      1169.6564
  -5573070.15549  -4334318.59147  21522220.7274   21522214.9654
      -746.0784
  13066603.73348  10171360.68944  22987491.7034   22987486.1254
     -2753.6874
  -9628900.47949  -7496959.46745  22416972.9224   22416967.2734
      2682.9844
  -2765807.27048  -2137697.28143  23748882.9844   23748876.0394
      2826.1254
 -11307893.40649  -8800093.69547  20812507.3754   20812502.0554
       400.7344
 04  9  8 16 24  0.0000000  0  6G 1G11G14G20G23G25
 -12506540.63449  -9734179.24047  21004448.0474   21004442.8874
      1164.6724
  -5561812.83649  -4325546.67247  21524362.9694   21524356.6524
      -755.0004
  13107918.32048  10203553.85245  22995353.5704   22995348.3914
     -2755.0164
  -9669126.92149  -7528304.75145  22409317.6564   22409312.5824
      2680.4064
  -2808181.21248  -2170715.90643  23740819.5314   23740812.4574
      2823.6414
 -11313838.24449  -8804726.04447  20811376.2194   20811370.6374
       391.7974
 04  9  8 16 24 15.0000000  0  6G 1G11G14G20G23G25
 -12523974.77949  -9747764.28847  21001130.5864   21001124.9024
      1160.0474
  -5550423.65649  -4316672.00447  21526530.0864   21526524.1564
      -763.4224
  13149251.02148  10235761.12345  23003219.8204   23003214.2774
     -2755.8284
  -9709318.19649  -7559622.62245  22401669.7504   22401664.1214
      2678.4844
  -2850520.68848  -2203707.70743  23732763.0944   23732755.7154
      2821.6884
 -11319651.49249  -8809255.83847  20810270.0164   20810264.4384
       383.4384
 04  9  8 16 24 30.0000000  0  6G 1G11G14G20G23G25
 -12541335.66249  -9761292.23047  20997826.7584   20997821.4884
      1154.8134
  -5538902.92649  -4307694.81447  21528722.6724   21528716.9494
      -772.6254
  13190601.58348  10267982.31345  23011088.0394   23011082.7664
     -2757.3754
  -9749474.34449  -7590913.13045  22394028.5084   22394022.6254
      2675.7974
  -2892825.78648  -2236672.72743  23724712.0554   23724705.1804
      2819.1094
 -11325333.13749  -8813683.10047  20809188.9774   20809183.0594
       374.2344
 04  9  8 16 24 45.0000000  0  6G 1G11G14G20G23G25
 -12558623.93149  -9774763.59647  20994536.8984   20994531.6454
      1150.2974
  -5527251.17449  -4298615.53447  21530939.6724   21530933.9224
      -781.0944
  13231969.32548  10300216.90944  23018960.1254   23018954.8014
     -2758.2974
  -9789595.60849  -7622176.43645  22386393.7194   22386388.1294
      2673.7194
  -2935096.92648  -2269611.28543  23716668.3204   23716662.2154
      2817.0784
 -11330883.76549  -8818008.25347  20808132.4844   20808126.7854
       365.7974
 04  9  8 16 25  0.0000000  0  6G 1G11G14G20G23G25
 -12575844.14849  -9788181.94147  20991260.0314   20991255.0314
      1145.6094
  -5515473.08949  -4289437.81647  21533180.8594   21533175.1764
      -789.5164
  13273349.43148  10332461.11344  23026834.2814   23026829.0744
     -2759.1564
  -9829686.42549  -7653416.03245  22378764.9924   22378758.6174
      2671.6254
  -2977338.61048  -2302526.87944  23708629.9304   23708623.8364
      2815.0314
 -11336308.01849  -8822234.94047  20807100.3524   20807094.7774
       357.2344
 04  9  8 16 25 15.0000000  0  6G 1G11G14G20G23G25
 -12592989.33749  -9801541.82547  20987997.4534   20987992.2544
      1140.3134
  -5503561.89349  -4280156.37747  21535447.9844   21535441.9144
      -798.6724
  13314748.71948  10364720.26744  23034712.3364   23034707.0944
     -2760.7664
  -9869739.61949  -7684626.30445  22371142.7114   22371136.9304
      2668.6564
  -3019543.86148  -2335414.07844  23700598.5554   23700592.6374
      2812.2504
 -11341598.77949  -8826357.60847  20806093.5864   20806087.6684
       348.0634
 04  9  8 16 25 30.0000000  0  6G 1G11G14G20G23G25
 -12610059.71449  -9814843.41347  20984749.1484   20984743.7894
      1135.7664
  -5491517.88149  -4270771.44447  21537739.5474   21537733.7274
      -807.0784
  13356166.95648  10396994.19944  23042594.0864   23042588.6724
     -2761.6414
  -9909755.12949  -7715807.21345  22363528.1414   22363522.7194
      2666.6564
  -3061712.78848  -2368272.97544  23692574.3984   23692567.6094
      2810.2504
 -11346756.23249  -8830376.40647  20805111.8524   20805106.1564
       339.6094
 04  9  8 16 25 45.0000000  0  6G 1G11G14G20G23G25
 -12627060.42949  -9828090.71847  20981513.7034   20981508.7194
      1131.0634
  -5479346.22549  -4261287.03847  21540055.7584   21540050.2304
      -815.7504
  13397598.87248  10429278.79144  23050478.3054   23050472.7894
     -2762.5474
  -9949737.84949  -7746962.57645  22355919.8284   22355913.3444
      2664.3594
  -3103850.31748  -2401107.40344  23684555.8984   23684548.9534
      2808.0314
 -11351785.53249  -8834295.32847  20804155.1024   20804149.3164
       330.9694
 04  9  8 16 26  0.0000000  0  6G 1G11G14G20G23G25
 -12643988.23349  -9841281.21247  20978292.6724   20978287.0704
      1126.0944
  -5467043.84349  -4251700.78047  21542396.7504   21542391.0904
      -824.5784
  13439047.67847  10461576.52544  23058365.9454   23058360.6524
     -2763.8124
  -9989684.33049  -7778089.70045  22348318.3834   22348312.0164
      2661.8594
  -3145953.27348  -2433914.87844  23676544.3674   23676536.5984
      2805.6254
 -11356683.48649  -8838111.92147  20803222.9924   20803217.1484
       322.1414
 04  9  8 16 26 15.0000000  0  6G 1G11G14G20G23G25
 -12660842.74949  -9854414.60547  20975085.5234   20975080.4224
      1121.0634
  -5454610.39648  -4242012.39147  21544762.6954   21544756.8484
      -833.3124
  13480513.61148  10493887.61244  23066256.5784   23066251.3524
     -2765.0164
 -10029593.82549  -7809188.00945  22340723.7034   22340717.3914
      2659.3754
  -3188021.04148  -2466694.94444  23668538.4224   23668531.0354
      2803.2034
 -11361449.74149  -8841825.88347  20802315.8914   20802310.2504
       313.2504
 04  9  8 16 26 30.0000000  0  6G 1G11G14G20G23G25
 -12677624.77849  -9867491.49747  20971891.7424   20971886.8954
      1116.2974
  -5442046.78149  -4232222.57147  21547154.0634   21547147.8134
      -841.9694
  13521995.71648  10526211.29744  23074150.7974   23074144.7234
     -2766.0944
 -10069466.97549  -7840257.98345  22333135.7734   22333129.8244
      2656.9384
  -3230054.39848  -2499448.17443  23660539.5784   23660532.5394
      2800.9844
 -11366085.07049  -8845437.82847  20801433.9454   20801428.0044
       304.5634
 04  9  8 16 26 45.0000000  0  6G 1G11G14G20G23G25
 -12694337.88349  -9880514.68947  20968711.2344   20968706.4064
      1111.7194
  -5429356.55849  -4222334.09747  21549568.6564   21549562.6454
      -850.4224
  13563490.52948  10558544.88844  23082047.0394   23082041.3874
     -2766.9224
 -10109307.09949  -7871302.22745  22325554.8914   22325548.9344
      2654.7034
  -3272056.79748  -2532177.29044  23652546.9694   23652539.7774
      2798.9534
 -11370592.96849  -8848950.47447  20800576.0474   20800569.9454
       296.0944
 04  9  8 16 27  0.0000000  0  6G 1G11G14G20G23G25
 -12710979.58948  -9893482.25347  20965544.7114   20965539.2974
      1107.1724
  -5416537.38848  -4212345.14447  21552008.1174   21552002.1604
      -858.8754
  13605000.34948  10590890.18244  23089945.8674   23089940.0004
     -2767.6564
 -10149111.55149  -7902318.67545  22317980.4694   22317973.9494
      2652.5474
  -3314025.67348  -2564880.29344  23644560.3914   23644553.1484
      2796.9384
 -11374970.96949  -8852361.90947  20799743.0234   20799736.9924
       287.6254
 04  9  8 16 27 15.0000000  0  6G 1G11G14G20G23G25
 -12727550.84348  -9906394.91847  20962391.2734   20962386.1994
      1102.4064
  -5403590.39148  -4202256.58547  21554471.5234   21554465.8794
      -867.4064
  13646524.00147  10623246.23844  23097847.1804   23097841.8444
     -2768.7664
 -10188880.85749  -7933307.73945  22310412.2584   22310406.3984
      2650.1254
  -3355961.82548  -2597557.76044  23636580.6254   23636573.1684
      2794.6414
 -11379219.91849  -8855672.77747  20798934.4774   20798928.6684
       278.9384
 04  9  8 16 27 30.0000000  0  6G 1G11G14G20G23G25
 -12744047.70649  -9919249.61647  20959251.9384   20959246.6524
      1097.3284
  -5390511.55949  -4192065.30547  21556960.5864   21556954.3954
      -876.3594
  13688065.45548  10655616.15944  23105752.6094   23105747.5204
     -2770.0474
 -10228610.90349  -7964266.20445  22302852.0634   22302845.7424
      2647.3914
  -3397861.14548  -2630206.55144  23628607.8204   23628600.6254
      2792.0784
 -11383335.98549  -8858880.09347  20798151.2974   20798145.1844
       269.9534
 04  9  8 16 27 45.0000000  0  6G 1G11G14G20G23G25
 -12760473.46649  -9932048.90747  20956126.2274   20956120.8524
      1092.6094
  -5377304.39549  -4181774.01947  21559473.8364   21559467.5904
      -884.7504
  13729621.17447  10687997.21044  23113660.6564   23113654.9304
     -2770.8754
 -10268304.81249  -7995196.52545  22295298.3524   22295292.0904
      2645.0634
  -3439727.04148  -2662829.31344  23620639.7114   23620633.5514
      2789.8914
 -11387322.30849  -8861986.32247  20797392.8134   20797386.8364
       261.4384
 04  9  8 16 28  0.0000000  0  6G 1G11G14G20G23G25
 -12776827.02849  -9944791.93547  20953014.0944   20953008.8794
      1087.6254
  -5363967.95049  -4171381.99247  21562012.0704   21562005.5904
      -893.5004
  13771192.26347  10720390.24544  23121571.3134   23121565.5394
     -2772.0944
 -10307961.27449  -8026097.65945  22287752.1254   22287745.9414
      2642.3134
  -3481558.22748  -2695424.99644  23612679.8444   23612673.2584
      2787.3914
 -11391177.82449  -8864990.61747  20796658.6484   20796653.0164
       252.5474
 04  9  8 16 28 15.0000000  0  6G 1G11G14G20G23G25
 -12793111.79249  -9957481.35847  20949915.2034   20949910.1294
      1083.2814
  -5350505.74249  -4160891.98147  21564573.4384   21564567.6094
      -901.6724
  13812775.14047  10752792.47244  23129483.8364   23129478.4064
     -2772.5944
 -10347583.31849  -8056971.97645  22280212.2974   22280206.6954
      2640.3284
  -3523358.08548  -2727996.31144  23604726.1174   23604719.5904
      2785.6094
 -11394905.92749  -8867895.62947  20795949.5004   20795943.8874
       244.2974
 04  9  8 16 28 30.0000000  0  6G 1G11G14G20G23G25
 -12809325.34649  -9970115.28447  20946830.2504   20946824.8554
      1078.1414
  -5336915.37949  -4150302.09147  21567159.9304   21567153.5904
      -910.6724
  13854372.29547  10785205.81244  23137399.8754   23137394.9964
     -2774.0004
 -10387168.28549  -8087817.38845  22272679.5314   22272673.5744
      2637.3914
  -3565124.01048  -2760541.16844  23596778.0394   23596770.8874
      2782.9064
 -11398504.20549  -8870699.47447  20795264.6724   20795259.2424
       235.1564
 04  9  8 16 28 45.0000000  0  6G 1G11G14G20G23G25
 -12825457.96249  -9982686.15147  20943759.9454   20943755.0164
      1073.1254
  -5323187.24349  -4139604.86347  21569772.3524   21569765.5904
      -919.4844
  13895993.23848  10817637.68344  23145320.2034   23145314.7974
     -2775.3124
 -10426706.26149  -8118626.19445  22265155.4224   22265149.5744
      2634.6254
  -3606846.18348  -2793051.94144  23588838.7974   23588831.9924
      2780.3444
 -11401962.97949  -8873394.63447  20794606.3984   20794601.3404
       226.3284
 04  9  8 16 29  0.0000000  0  6G 1G11G14G20G23G25
 -12841518.49249  -9995200.84847  20940703.9614   20940698.2974
      1068.3754
  -5309330.37649  -4128807.30047  21572408.9694   21572403.0164
      -928.1564
  13937629.05948  10850081.15544  23153243.1334   23153238.1684
     -2776.2034
 -10466205.82149  -8149405.05845  22257639.2894   22257632.7974
      2632.0634
  -3648533.33748  -2825535.43844  23580905.8674   23580899.0824
      2778.0164
 -11405290.97749  -8875987.86947  20793973.2194   20793967.8914
       217.5004
 04  9  8 16 29 15.0000000  0  6G 1G11G14G20G23G25
 -12857506.81349 -10007659.27547  20937661.3054   20937656.0594
      1063.2814
  -5295344.68849  -4117909.37747  21575070.3524   21575064.1524
      -936.8284
  13979279.73348  10882536.19744  23161169.0784   23161163.8794
     -2777.4064
 -10505666.67349  -8180153.75245  22250130.0704   22250123.4494
      2629.2344
  -3690185.26848  -2857991.45644  23572979.5634   23572973.2464
      2775.4224
 -11408488.05149  -8878479.09747  20793364.6644   20793359.0274
       208.6094
 04  9  8 16 29 30.0000000  0  6G 1G11G14G20G23G25
 -12873421.69249 -10020060.47447  20934632.7584   20934627.7384
      1058.4384
  -5281228.90049  -4106910.07347  21577756.3984   21577750.4694
      -945.3284
  14020946.48848  10915003.76644  23169097.8134   23169092.6174
     -2778.4224
 -10545087.13149  -8210870.99445  22242628.4144   22242622.1914
      2626.6094
  -3731800.63548  -2890419.01644  23565059.8364   23565053.2774
      2773.0634
 -11411553.10249  -8880867.44447  20792781.5784   20792775.4024
       199.9224
 04  9  8 16 29 45.0000000  0  6G 1G11G14G20G23G25
 -12889265.44049 -10032406.24247  20931618.0084   20931612.4494
      1053.8754
  -5266985.48849  -4095811.32947  21580467.0474   21580461.1334
      -953.7664
  14062626.85447  10947481.95944  23177029.5164   23177024.2774
     -2779.1254
 -10584469.40049  -8241558.48045  22235134.2344   22235128.3364
      2624.2504
  -3773381.74948  -2922819.88043  23557147.5704   23557140.7424
      2770.9384
 -11414488.39249  -8883154.68247  20792223.2344   20792217.2034
       191.3754
 04  9  8 16 30  0.0000000  0  6G 1G11G14G20G23G25
 -12905036.75449 -10044695.58147  20928616.6024   20928611.9224
      1048.9224
  -5252613.24949  -4084612.18546  21583202.0634   21583196.0784
      -962.5314
  14104322.09047  10979971.70644  23184963.9534   23184958.8714
     -2780.2344
 -10623811.89849  -8272214.95845  22227647.9694   22227641.8834
      2621.4384
  -3814927.08748  -2955192.85343  23549242.0004   23549235.1644
      2768.4694
 -11417292.54149  -8885339.73047  20791689.3674   20791683.6094
       182.5164
 04  9  8 16 30 15.0000000  0  6G 1G11G14G20G23G25
 -12920737.50149 -10056929.91947  20925629.0634   20925623.5904
      1044.3134
  -5238114.22149  -4073314.25947  21585960.9694   21585955.2504
      -970.9064
  14146030.28248  11012471.56844  23192901.1724   23192895.8444
     -2781.0474
 -10663116.23249  -8302841.71346  22220168.3674   22220162.2424
      2618.9064
  -3856438.45148  -2987539.36143  23541341.8364   23541335.2384
      2766.2194
 -11419967.39049  -8887424.03447  20791180.4534   20791174.8484
       173.9064
 04  9  8 16 30 30.0000000  0  6G 1G11G14G20G23G25
 -12936365.82549 -10069107.82947  20922654.9384   20922649.5274
      1039.5164
  -5223486.77349  -4061916.24747  21588744.5944   21588738.2114
      -979.3594
  14187753.14748  11044982.85744  23200840.2734   23200835.1294
     -2781.9534
 -10702380.32549  -8333437.10245  22212696.5234   22212690.6994
      2616.3444
  -3897913.86148  -3019857.84443  23533449.2974   23533442.6644
      2764.0004
 -11422511.10249  -8889406.14147  20790696.3524   20790691.0314
       165.3134
 04  9  8 16 30 45.0000000  0  6G 1G11G14G20G23G25
 -12951922.46948 -10081229.88347  20919694.6804   20919688.9964
      1034.6414
  -5208731.71348  -4050418.81247  21591552.6954   21591546.4344
      -988.0474
  14229489.94447  11077505.02644  23208782.5394   23208777.0434
     -2783.0624
 -10741604.64749  -8364001.49946  22205232.4454   22205226.6724
      2613.4694
  -3939354.04648  -3052148.86443  23525563.7894   23525556.7464
      2761.3914
 -11424924.48149  -8891286.68847  20790236.8834   20790231.8054
       156.4694
 04  9  8 16 31  0.0000000  0  6G 1G11G14G20G23G25
 -12967409.06849 -10093297.36447  20916747.7974   20916742.4024
      1029.9064
  -5193850.73848  -4038823.25947  21594383.8054   21594377.6254
      -996.4534
  14271238.79148  11110036.55144  23216726.8054   23216721.8094
     -2783.8754
 -10780790.56249  -8394535.96946  22197775.4844   22197769.7894
      2610.9384
  -3980760.47848  -3084413.59143  23517684.3524   23517677.8324
      2759.1414
 -11427209.13449  -8893066.94547  20789802.5314   20789796.5594
       147.8914
 04  9  8 16 31 15.0000000  0  6G 1G11G14G20G23G25
 -12982825.28649 -10105309.99247  20913813.8364   20913808.8554
      1025.5474
  -5178843.47848  -4027129.29947  21597239.6724   21597234.3014
     -1004.5004
  14313000.06548  11142577.79344  23224674.0704   23224668.7734
     -2784.2034
 -10819937.51849  -8425040.07645  22190326.0864   22190320.0204
      2608.7034
  -4022132.69148  -3116651.65144  23509811.8914   23509805.5904
      2757.1884
 -11429364.80849  -8894746.68947  20789392.2814   20789386.5204
       139.6254
 04  9  8 16 31 30.0000000  0  6G 1G11G14G20G23G25
 -12998172.26249 -10117268.65947  20910893.2274   20910888.1294
      1020.5784
  -5163711.44749  -4015338.11047  21600119.4304   21600113.2854
     -1013.1724
  14354772.58348  11175127.77444  23232623.2424   23232617.6994
     -2785.4064
 -10859046.34149  -8455514.47245  22182883.9844   22182877.9104
      2605.7504
  -4063471.78048  -3148863.90544  23501945.3524   23501939.0984
      2754.6094
 -11431392.46849  -8896326.68347  20789006.2424   20789000.4804
       130.6724
 04  9  8 16 31 45.0000000  0  6G 1G11G14G20G23G25
 -13013449.58348 -10129173.07347  20907986.3204   20907980.7934
      1016.2194
  -5148454.29448  -4003449.43847  21603022.6484   21603016.7664
     -1021.2194
  14396556.54648  11207686.67844  23240574.0474   23240569.4924
     -2786.0314
 -10898116.36249  -8485958.63645  22175449.4694   22175443.1524
      2603.4534
  -4104777.18148  -3181049.92543  23494084.9924   23494078.2774
      2752.5944
 -11433291.76949  -8897806.65747  20788644.5634   20788639.1724
       122.3914
 04  9  8 16 32  0.0000000  0  6G 1G11G14G20G23G25
 -13028658.40949 -10141024.09847  20905092.0474   20905086.6134
      1011.7034
  -5133073.11249  -3991464.11547  21605949.5944   21605943.7624
     -1029.4844
  14438350.75148  11240253.56044  23248527.4694   23248523.1024
     -2786.5624
 -10937148.45449  -8516373.24845  22168021.7894   22168015.8054
      2600.8914
  -4146050.01548  -3213210.53244  23486230.5314   23486224.6644
      2750.5164
 -11435063.92549  -8899187.55747  20788307.7114   20788301.7114
       113.9384
 04  9  8 16 32 15.0000000  0  6G 1G11G14G20G23G25
 -13043797.50849 -10152820.78747  20902211.2114   20902205.9454
      1006.9064
  -5117566.85448  -3979381.32447  21608900.2274   21608894.8284
     -1038.0164
  14480156.38248  11272829.36244  23256483.0004   23256477.7664
     -2787.4844
 -10976141.20049  -8546757.18845  22160601.3674   22160595.6254
      2598.1094
  -4187288.88348  -3245344.66943  23478383.0164   23478376.4694
      2748.0474
 -11436707.70249  -8900468.42047  20787994.8594   20787988.9494
       105.2504
 04  9  8 16 32 30.0000000  0  6G 1G11G14G20G23G25
 -13058867.09549 -10164563.31847  20899343.5474   20899338.3634
      1002.4844
  -5101935.73948  -3967201.24347  21611875.0864   21611869.1884
     -1046.1094
  14521973.12148  11305413.80044  23264440.2114   23264435.1724
     -2788.0474
 -11015094.54949  -8577110.44446  22153188.8054   22153183.0984
      2595.6724
  -4228493.88548  -3277452.42944  23470542.4144   23470535.6844
      2746.0634
 -11438223.36549  -8901649.45547  20787706.6954   20787700.4574
        96.9844
 04  9  8 16 32 45.0000000  0  6G 1G11G14G20G23G25
 -13073869.26249 -10176253.30847  20896488.6484   20896483.5554
       998.0474
  -5086182.19349  -3954925.75147  21614872.7194   21614867.1764
     -1054.1564
  14563798.77348  11338005.19644  23272399.5784   23272394.5824
     -2788.5944
 -11054010.34249  -8607434.41946  22145783.5784   22145777.9654
      2593.2194
  -4269667.03148  -3309535.35044  23462706.7664   23462700.1764
      2743.9384
 -11439612.95149  -8902732.24347  20787441.9224   20787435.8444
        88.5634
 04  9  8 16 33  0.0000000  0  6G 1G11G14G20G23G25
 -13088802.27349 -10187889.42547  20893646.8674   20893642.0634
       993.2344
  -5070304.56049  -3942553.59447  21617894.1484   21617888.2584
     -1062.6874
  14605635.00148  11370604.82844  23280361.0474   23280356.0634
     -2789.4694
 -11092886.55949  -8637727.57246  22138386.1174   22138380.1484
      2590.4384
  -4310806.70448  -3341592.19843  23454878.3984   23454871.2274
      2741.5474
 -11440874.73749  -8903715.46347  20787202.0474   20787196.0784
        79.7814
 04  9  8 16 33 15.0000000  0  6G 1G11G14G20G23G25
 -13103665.46249 -10199471.12447  20890818.6414   20890813.6724
       988.5164
  -5054302.18049  -3930084.21247  21620939.4224   21620933.5664
     -1071.0474
  14647482.51348  11403213.25544  23288323.8914   23288319.4614
     -2790.2814
 -11131722.21449  -8667989.11146  22130995.3444   22130989.6024
      2587.6564
  -4351911.84248  -3373622.14643  23447056.3674   23447049.1954
      2739.1564
 -11442007.93949  -8904598.47447  20786986.1174   20786980.8364
        71.2344
 04  9  8 16 33 30.0000000  0  6G 1G11G14G20G23G25
 -13118460.90448 -10211000.03447  20888002.9774   20887998.2464
       984.0164
  -5038177.18849  -3917519.29446  21624007.6254   21624001.6564
     -1079.2504
  14689338.99248  11435828.66344  23296289.0554   23296284.3914
     -2790.9224
 -11170519.09049  -8698220.44246  22123612.7974   22123607.2464
      2585.0784
  -4392984.57848  -3405626.83643  23439240.7974   23439233.6134
      2737.0164
 -11443014.76049  -8905383.01347  20786794.7894   20786788.8554
        62.7814
 04  9  8 16 33 45.0000000  0  6G 1G11G14G20G23G25
 -13133186.46449 -10222474.48147  20885200.8284   20885196.1214
       979.3284
  -5021927.66649  -3904857.32847  21627099.7664   21627094.0354
     -1087.4844
  14731206.60548  11468452.75244  23304256.3834   23304251.5004
     -2791.5314
 -11209274.93049  -8728419.78346  22116237.4224   22116231.5354
      2582.2664
  -4434022.62448  -3437604.48643  23431431.4614   23431423.5784
      2734.6414
 -11443892.99749  -8906067.35447  20786627.6254   20786621.8284
        54.1564
 04  9  8 16 34  0.0000000  0  6G 1G11G14G20G23G25
 -13147841.34749 -10233893.87147  20882412.4614   20882407.3754
       974.5314
  -5005552.98149  -3892097.85247  21630215.6414   21630210.1454
     -1095.9224
  14773085.94648  11501085.96644  23312225.8674   23312220.5784
     -2792.4534
 -11247988.59149  -8758586.26646  22108870.8204   22108865.1024
      2579.4224
  -4475025.08348  -3469554.40644  23423628.7584   23423621.7384
      2732.2344
 -11444641.92149  -8906650.92747  20786484.8984   20786479.4454
        45.5784
 04  9  8 16 34 15.0000000  0  6G 1G11G14G20G23G25
 -13162424.66749 -10245257.49247  20879637.2734   20879631.7704
       969.7194
  -4989052.32249  -3879240.20247  21633355.7734   21633350.3484
     -1104.3124
  14814977.95148  11533729.08044  23320197.4384   23320192.3834
     -2793.3444
 -11286658.94249  -8788719.00146  22101511.8754   22101506.2934
      2576.4844
  -4515990.98648  -3501475.85644  23415833.2504   23415826.4344
      2729.7974
 -11445260.61049  -8907133.01647  20786367.2734   20786361.8094
        36.7664
 04  9  8 16 34 30.0000000  0  6G 1G11G14G20G23G25
 -13176938.17749 -10256566.71247  20876875.0554   20876870.1684
       965.1724
  -4972427.61949  -3866285.90547  21636519.5234   21636513.3444
     -1112.5004
  14856880.79348  11566380.60643  23328171.2344   23328166.1954
     -2793.8754
 -11325287.52549  -8818819.19246  22094161.0944   22094155.6954
      2573.8594
  -4556922.00348  -3533370.11044  23408044.6414   23408037.2424
      2727.5944
 -11445750.92449  -8907515.09247  20786273.7894   20786268.2154
        28.3134
 04  9  8 16 34 45.0000000  0  6G 1G11G14G20G23G25
 -13191382.39949 -10267821.94547  20874126.5394   20874121.5944
       960.5784
  -4955679.45749  -3853235.39447  21639706.6174   21639700.7894
     -1120.6874
  14898793.88548  11599040.12644  23336147.1254   23336142.1094
     -2794.5944
 -11363874.54949  -8848887.00046  22086818.2274   22086812.8014
      2571.0634
  -4597818.51848  -3565237.48244  23400262.2894   23400255.7894
      2725.1724
 -11446113.30949  -8907797.47147  20786205.3054   20786199.0234
        19.8284
 04  9  8 16 35  0.0000000  0  6G 1G11G14G20G23G25
 -13205759.79149 -10279025.09747  20871390.6804   20871386.0514
       956.2664
  -4938810.62849  -3840090.85947  21642916.5864   21642910.6884
     -1128.5624
  14940714.69148  11631705.68444  23344124.1644   23344119.3754
     -2794.9064
 -11402422.13249  -8878924.06646  22079482.7734   22079477.1414
      2568.5314
  -4638682.93448  -3597079.84944  23392486.4144   23392479.4344
      2723.2814
 -11446350.17349  -8907982.02547  20786160.1024   20786154.2074
        11.6254
 04  9  8 16 35 15.0000000  0  6G 1G11G14G20G23G25
 -13220070.34749 -10290176.18647  20868667.4924   20868662.1844
       951.7664
  -4921821.00049  -3826852.19547  21646149.8524   21646143.8444
     -1136.6874
  14982643.10848  11664377.13444  23352103.2664   23352097.9964
     -2795.5784
 -11440930.09049  -8908930.26346  22072154.5944   22072149.0314
      2565.8284
  -4679515.07448  -3628897.06244  23384715.7584   23384709.3094
      2720.9694
 -11446461.73049  -8908068.96047  20786138.5944   20786132.8364
         3.1564
 04  9  8 16 35 30.0000000  0  6G 1G11G14G20G23G25
 -13234312.01649 -10301273.58447  20865957.6884   20865952.3714
       946.9534
  -4904708.63149  -3813517.89647  21649406.2034   21649399.9184
     -1145.1254
  15024581.06748  11697056.03443  23360083.2274   23360078.3954
     -2796.3124
 -11479396.05549  -8938903.73246  22064835.1334   22064829.0594
      2562.7344
  -4720312.81648  -3660687.48144  23376952.0554   23376945.5044
      2718.5004
 -11446445.86949  -8908056.61547  20786141.5084   20786135.6604
        -5.4844
 04  9  8 16 35 45.0000000  0  6G 1G11G14G20G23G25
 -13248484.91949 -10312317.40147  20863260.4614   20863255.0204
       942.5164
  -4887473.87649  -3800088.22747  21652685.7274   21652680.2624
     -1153.0314
  15066528.36148  11729742.22044  23368066.1414   23368061.1564
     -2796.7814
 -11517819.93449  -8968844.41046  22057523.3754   22057517.8484
      2560.1724
  -4761076.25248  -3692451.15544  23369195.4144   23369188.0204
      2716.4064
 -11446302.90149  -8907945.19547  20786168.8674   20786163.6094
       -13.7194
 04  9  8 16 36  0.0000000  0  6G 1G11G14G20G23G25
 -13262588.61148 -10323307.28447  20860576.6724   20860571.8164
       938.1094
  -4870116.39349  -3786562.92047  21655988.5944   21655983.0554
     -1161.1254
  15108485.43848  11762436.01744  23376050.9304   23376045.3204
     -2797.2504
 -11556200.96849  -8998751.69446  22050219.4844   22050214.0004
      2557.4384
  -4801804.83648  -3724187.68144  23361444.6644   23361437.1484
      2714.2194
 -11446032.08748  -8907734.17747  20786220.4924   20786214.3754
       -22.1724
 04  9  8 16 36 15.0000000  0  6G 1G11G14G20G23G25
 -13276624.76048 -10334244.54547  20857905.5234   20857900.9384
       933.2664
  -4852637.97249  -3772943.38147  21659314.9614   21659308.9344
     -1169.4844
  15150450.47748  11795136.01344  23384036.0864   23384031.0274
     -2798.1724
 -11594540.61849  -9028626.73946  22042923.4774   22042917.7274
      2554.3444
  -4842500.06448  -3755898.22344  23353700.3984   23353692.6684
      2711.6884
 -11445635.15848  -8907424.88047  20786295.7894   20786290.1884
       -30.7664
 04  9  8 16 36 30.0000000  0  6G 1G11G14G20G23G25
 -13290591.25148 -10345127.50947  20855247.8984   20855242.8444
       928.4844
  -4835036.74949  -3759228.14947  21662664.1804   21662658.5124
     -1177.8594
  15192425.53648  11827843.81543  23392023.9224   23392018.6484
     -2798.9694
 -11632836.41449  -9058467.60546  22035636.4614   22035630.7934
      2551.2504
  -4883159.73248  -3787581.04844  23345963.7034   23345955.8634
      2709.1094
 -11445110.13048  -8907015.77447  20786395.6564   20786390.2774
       -39.6254
 04  9  8 16 36 45.0000000  0  6G 1G11G14G20G23G25
 -13304487.41548 -10355955.68047  20852603.5704   20852598.2974
       924.2034
  -4817312.09549  -3745416.75247  21666037.1334   21666031.3524
     -1185.6564
  15234411.25348  11860559.92443  23400013.4844   23400008.1884
     -2799.3284
 -11671087.52649  -9088273.66346  22028357.4064   22028351.5354
      2548.7194
  -4923783.09148  -3819235.57344  23338233.2274   23338225.3674
      2707.1884
 -11444456.44848  -8906506.41947  20786520.2584   20786514.4024
       -47.7344
 04  9  8 16 37  0.0000000  0  6G 1G11G14G20G23G25
 -13318316.45248 -10366731.55047  20849971.7344   20849966.7194
       919.6414
  -4799467.29349  -3731511.72047  21669433.3204   21669427.2704
     -1193.7504
  15276404.41348  11893281.84943  23408004.7584   23407998.7074
     -2799.8914
 -11709296.75449  -9118047.08346  22021086.3284   22021080.7074
      2545.7664
  -4964373.23848  -3850864.23144  23330508.6484   23330500.7154
      2704.8134
 -11443677.12049  -8905899.15047  20786668.4304   20786662.7384
       -56.2974
 04  9  8 16 37 15.0000000  0  6G 1G11G14G20G23G25
 -13332076.68549 -10377453.79547  20847353.4144   20847348.4064
       915.0784
  -4781500.84749  -3717511.90347  21672852.1724   21672846.0514
     -1201.8594
  15318406.48948  11926010.71543  23415997.8754   23415992.3834
     -2800.4694
 -11747462.27249  -9147786.43546  22013823.6414   22013818.4694
      2542.8444
  -5004928.30948  -3882465.55744  23322790.9924   23322783.5744
      2702.4534
 -11442770.50649  -8905192.69647  20786840.9924   20786835.5314
       -64.7344
 04  9  8 16 37 30.0000000  0  6G 1G11G14G20G23G25
 -13345766.34649 -10388121.06547  20844748.5004   20844743.3054
       910.2974
  -4763411.12349  -3703416.03447  21676294.5084   21676288.6564
     -1210.0314
  15360419.25648  11958747.90943  23423992.0864   23423986.8634
     -2801.1254
 -11785581.95449  -9177490.08246  22006569.8754   22006564.1604
      2539.7814
  -5045446.49448  -3914038.10944  23315080.9384   23315074.1094
      2700.0004
 -11441734.86049  -8904385.69447  20787038.2114   20787032.3794
       -73.3124
 04  9  8 16 37 45.0000000  0  6G 1G11G14G20G23G25
 -13359385.62049 -10398733.48247  20842156.9534   20842152.1294
       905.7034
  -4745198.35049  -3689224.28347  21679760.2664   21679753.8754
     -1218.2664
  15402442.60348  11991493.33543  23431988.7504   23431984.4494
     -2801.8284
 -11823655.70749  -9207157.94146  21999324.9304   21999318.8164
      2536.7194
  -5085927.90348  -3945582.02244  23307377.6724   23307370.9844
      2697.6724
 -11440570.46749  -8903478.37547  20787259.8204   20787253.6484
       -81.8754
 04  9  8 16 38  0.0000000  0  6G 1G11G14G20G23G25
 -13372936.81649 -10409292.84347  20839577.9844   20839573.0514
       901.3284
  -4726865.05449  -3674938.60247  21683248.9144   21683242.5664
     -1226.0624
  15444474.02448  12024245.08643  23439986.3134   23439982.1024
     -2802.2034
 -11861685.61949  -9236791.62646  21992087.7734   21992081.9844
      2534.0474
  -5126374.78348  -3977099.04644  23299680.5394   23299674.1054
      2695.5474
 -11439279.81849  -8902472.67047  20787505.3524   20787499.3714
       -90.0314
 04  9  8 16 38 15.0000000  0  6G 1G11G14G20G23G25
 -13386420.27849 -10419799.43247  20837012.0474   20837006.6294
       896.5944
  -4708411.75049  -3660559.41247  21686760.4144   21686754.5234
     -1234.2664
  15486513.18648  12057002.84043  23447986.6804   23447981.8484
     -2802.9374
 -11899671.72749  -9266391.19046  21984859.5234   21984853.8204
      2530.8284
  -5166787.31348  -4008589.28044  23291990.2274   23291983.8954
      2692.9694
 -11437863.09149  -8901368.72547  20787775.1254   20787769.5004
       -98.6874
 04  9  8 16 38 30.0000000  0  6G 1G11G14G20G23G25
 -13399832.42749 -10430250.45847  20834459.7114   20834455.3134
       891.8444
  -4689834.97249  -3646084.01746  21690295.4144   21690289.0664
     -1242.4064
  15528563.48348  12089769.27943  23455988.3444   23455983.9064
     -2803.6254
 -11937610.12749  -9295953.55746  21977639.6484   21977634.2114
      2527.7664
  -5207161.90848  -4040049.98744  23284307.6484   23284300.2154
      2690.5164
 -11436316.83749  -8900163.85247  20788069.0864   20788063.2934
      -107.2504
 04  9  8 16 38 45.0000000  0  6G 1G11G14G20G23G25
 -13413176.91649 -10440648.75547  20831921.0004   20831915.8674
       887.3284
  -4671138.54549  -3631515.37947  21693853.0944   21693847.1804
     -1250.5004
  15570621.24948  12122541.53043  23463991.8204   23463987.2304
     -2804.2034
 -11975504.27749  -9325481.46746  21970429.1174   21970423.6524
      2524.6884
  -5247502.03447  -4071483.81044  23276630.3594   23276623.5864
      2688.1094
 -11434644.63949  -8898860.84947  20788387.0084   20788382.0474
      -115.7194
 04  9  8 16 39  0.0000000  0  6G 1G11G14G20G23G25
 -13426451.75449 -10450992.77947  20829394.4924   20829389.3914
       882.7974
  -4652320.66149  -3616852.11246  21697433.7584   21697428.0744
     -1258.4064
  15612688.19948  12155320.95043  23471996.9144   23471992.2664
     -2804.6254
 -12013352.04649  -9354973.22346  21963227.1564   21963220.7424
      2521.7974
  -5287805.61847  -4102889.17044  23268961.1024   23268954.0634
      2685.7194
 -11432844.56449  -8897458.20147  20788729.8674   20788724.6134
      -124.2034
 04  9  8 16 39 15.0000000  0  6G 1G11G14G20G23G25
 -13439656.51349 -10461282.20047  20826881.7424   20826876.8164
       878.1094
  -4633381.02249  -3602093.96246  21701038.1954   21701032.0204
     -1266.5314
  15654764.88548  12188107.92743  23480004.1414   23479998.8674
     -2805.2664
 -12051152.59549  -9384428.19146  21956033.6414   21956027.4694
      2518.6094
  -5328072.18947  -4134265.67544  23261298.9614   23261292.1484
      2683.4064
 -11430916.24549  -8895955.60547  20789096.7894   20789090.5984
      -132.6564
 04  9  8 16 39 30.0000000  0  6G 1G11G14G20G23G25
 -13452794.78149 -10471519.80247  20824381.5864   20824376.2894
       873.4064
  -4614323.21849  -3587243.74146  21704664.5784   21704658.8984
     -1274.7034
  15696847.72148  12220899.71243  23488012.5084   23488007.8284
     -2805.9374
 -12088909.20049  -9413848.91246  21948848.3834   21948842.3794
      2515.4224
  -5368305.11747  -4165615.97644  23253643.0634   23253635.7974
      2680.8444
 -11428863.34649  -8894355.94947  20789487.6174   20789481.8054
      -141.1874
 04  9  8 16 39 45.0000000  0  6G 1G11G14G20G23G25
 -13465863.07749 -10481702.88947  20821894.6644   20821889.4414
       869.0004
  -4595144.08849  -3572298.97646  21708314.4454   21708308.2504
     -1282.5944
  15738940.19348  12253698.99843  23496022.1564   23496017.0864
     -2806.3124
 -12126618.03349  -9443232.41246  21941672.9694   21941667.2774
      2512.3754
  -5408500.87347  -4196937.30144  23245994.1334   23245986.5904
      2678.5474
 -11426682.38849  -8892656.50247  20789902.5314   20789896.8134
      -149.5164
 04  9  8 16 40  0.0000000  0  6G 1G11G14G20G23G25
 -13478858.77849 -10491829.39047  20819421.6954   20819416.5274
       863.9534
  -4575841.05649  -3557257.66446  21711987.7584   21711981.3984
     -1291.0474
  15781044.79048  12286507.73843  23504034.6954   23504029.3444
     -2807.3594
 -12164276.33349  -9472576.53346  21934506.8284   21934501.0354
      2508.8914
  -5448656.74547  -4228227.55144  23238353.1954   23238345.7854
      2675.6564
 -11424370.76949  -8890855.23147  20790342.2344   20790336.7854
      -158.5004
 04  9  8 16 40 15.0000000  0  6G 1G11G14G20G23G25
 -13491787.30649 -10501903.57147  20816961.6174   20816956.8014
       859.6254
  -4556419.72049  -3542124.17446  21715683.6954   21715677.0044
     -1298.8124
  15823155.88548  12319321.56343  23512048.5784   23512042.3524
     -2807.6874
 -12201889.06549  -9501885.14746  21927349.3834   21927343.6134
      2505.9064
  -5488778.09148  -4259490.93144  23230717.4064   23230710.1214
      2673.5314
 -11421933.97349  -8888956.43447  20790806.1174   20790800.6644
      -166.7194
 04  9  8 16 40 30.0000000  0  6G 1G11G14G20G23G25
 -13504646.33748 -10511923.59047  20814514.4924   20814509.3834
       855.1414
  -4536877.89249  -3526896.78946  21719402.0394   21719395.6914
     -1306.6564
  15865275.88248  12352142.29943  23520063.3834   23520058.1884
     -2808.1564
 -12239453.75349  -9531156.32246  21920200.7664   21920194.7734
      2502.9224
  -5528862.50347  -4290725.49544  23223089.1094   23223082.2384
      2671.2504
 -11419369.62549  -8886958.23747  20791293.8134   20791288.2274
      -175.0474
 04  9  8 16 40 45.0000000  0  6G 1G11G14G20G23G25
 -13517441.26449 -10521893.65947  20812079.8524   20812074.6294
       850.6884
  -4517221.15749  -3511579.86046  21723142.6804   21723136.7424
     -1314.4374
  15907399.34548  12384965.71943  23528079.0164   23528074.4734
     -2808.4844
 -12276975.64749  -9560394.15346  21913060.7664   21913054.7234
      2499.8284
  -5568915.17548  -4321935.34044  23215467.8134   23215460.5084
      2668.9384
 -11416683.20549  -8884864.92247  20791805.2584   20791799.6994
      -183.3444
 04  9  8 16 41  0.0000000  0  6G 1G11G14G20G23G25
 -13530167.27548 -10531810.03147  20809658.0864   20809653.1254
       846.0314
  -4497444.85649  -3496169.77046  21726905.8674   21726899.7704
     -1322.3914
  15949530.87048  12417795.46443  23536096.0944   23536092.2154
     -2809.1414
 -12314449.57049  -9589594.61146  21905929.8834   21905923.6214
      2496.6414
  -5608931.24748  -4353116.67544  23207853.4614   23207845.8714
      2666.5634
 -11413869.97948  -8882672.80847  20792340.5944   20792335.0554
      -191.7814
 04  9  8 16 41 15.0000000  0  6G 1G11G14G20G23G25
 -13542825.78249 -10541673.79747  20807249.0864   20807244.3204
       841.5944
  -4477550.41649  -3480667.62346  21730691.3754   21730685.6524
     -1330.2974
  15991669.16947  12450630.49643  23544114.6644   23544110.8284
     -2809.5624
 -12351876.46649  -9618758.40746  21898807.7034   21898801.7854
      2493.4844
  -5648912.03648  -4384270.51244  23200245.1254   23200237.3674
      2664.1414
 -11410931.35549  -8880382.97147  20792899.6804   20792893.9454
      -200.1564
 04  9  8 16 41 30.0000000  0  6G 1G11G14G20G23G25
 -13555416.45149 -10551484.70647  20804853.1564   20804848.2234
       837.0784
  -4457537.80649  -3465073.39246  21734499.8984   21734493.9614
     -1338.1564
  16033814.39547  12483470.89043  23552134.7274   23552130.4574
     -2809.9844
 -12389255.95849  -9647885.28446  21891694.2974   21891688.2344
      2490.3284
  -5688857.12148  -4415396.52744  23192643.5004   23192635.8874
      2661.7344
 -11407867.08849  -8877995.23447  20793483.1484   20793477.1374
      -208.5164
 04  9  8 16 41 45.0000000  0  6G 1G11G14G20G23G25
 -13567938.06949 -10561241.80547  20802470.7034   20802465.5084
       832.3284
  -4437405.84149  -3449386.16046  21738330.8674   21738325.2234
     -1346.2344
  16075967.73848  12516317.62243  23560157.1724   23560151.9264
     -2810.6414
 -12426586.45949  -9676973.97146  21884590.6954   21884584.6684
      2486.8754
  -5728765.11248  -4446493.63844  23185049.8754   23185042.3594
      2659.1414
 -11404675.93849  -8875508.63447  20794090.3914   20794084.4184
      -217.1254
 04  9  8 16 42  0.0000000  0  6G 1G11G14G20G23G25
 -13580392.74149 -10570946.74047  20800100.6024   20800095.4224
       827.9844
  -4417156.76749  -3433607.67146  21742184.4064   21742178.6054
     -1353.9224
  16118127.10048  12549169.04443  23568179.1254   23568174.4734
     -2810.9224
 -12463869.80649  -9706025.92446  21877496.0084   21877490.1294
      2483.9064
  -5768638.03748  -4477563.40244  23177462.2814   23177454.6294
      2656.8914
 -11401359.95649  -8872924.73647  20794721.1254   20794715.5394
      -225.2974
 04  9  8 16 42 15.0000000  0  6G 1G11G14G20G23G25
 -13592779.36349 -10580598.65347  20797743.1094   20797738.6954
       823.5944
  -4396789.74549  -3417737.27946  21746060.4064   21746054.1684
     -1361.6724
  16160293.52447  12582025.98443  23576203.4384   23576198.4964
     -2811.2664
 -12501104.54249  -9735039.99846  21870410.7194   21870404.3404
      2480.7974
  -5808474.73948  -4508604.96744  23169881.0554   23169873.7274
      2654.6414
 -11397918.27549  -8870242.91247  20795376.3204   20795370.2814
      -233.5784
 04  9  8 16 42 30.0000000  0  6G 1G11G14G20G23G25
 -13605100.18849 -10590199.29047  20795398.8984   20795393.8324
       819.1884
  -4376307.15749  -3401776.83546  21749957.1254   21749952.0434
     -1369.3284
  16202464.71447  12614886.60943  23584228.1724   23584223.9574
     -2811.5784
 -12538292.69549  -9764017.77046  21863333.7424   21863327.7424
      2477.5784
  -5848277.25948  -4539619.90144  23162306.8674   23162299.3634
      2652.3444
 -11394353.25349  -8867464.97447  20796054.3444   20796048.6374
      -241.8124
 04  9  8 16 42 45.0000000  0  6G 1G11G14G20G23G25
 -13617352.81049 -10599746.79048  20793067.2734   20793062.0084
       814.3284
  -4355706.68049  -3385724.53446  21753878.2114   21753871.9804
     -1377.5004
  16244642.91647  12647752.70243  23592254.6804   23592249.8914
     -2812.4224
 -12575431.54549  -9792957.12846  21856266.4224   21856260.1374
      2474.0474
  -5888043.18547  -4570606.29744  23154739.6954   23154732.0904
      2649.6724
 -11390662.41049  -8864588.98647  20796756.6644   20796751.3634
      -250.4844
 04  9  8 16 43  0.0000000  0  6G 1G11G14G20G23G25
 -13629535.93149 -10609240.11847  20790749.0784   20790743.9264
       809.8594
  -4334987.29949  -3369579.57446  21757820.4614   21757814.4144
     -1385.3594
  16286829.49748  12680625.34943  23600281.9614   23600277.5744
     -2812.7974
 -12612519.47249  -9821856.80846  21849208.7974   21849202.9804
      2470.7194
  -5927771.03347  -4601563.03744  23147179.7584   23147172.4184
      2647.1254
 -11386844.43549  -8861613.93547  20797483.2424   20797477.5744
      -258.8284
 04  9  8 16 43 15.0000000  0  6G 1G11G14G20G23G25
 -13641651.60949 -10618680.90847  20788443.2424   20788438.1884
       805.5634
  -4314151.17249  -3353343.64346  21761785.6174   21761779.6294
     -1392.8914
  16329022.25448  12713502.78343  23608311.7974   23608306.6884
     -2813.0004
 -12649558.24149  -9850718.17246  21842160.4614   21842154.8364
      2467.7034
  -5967462.89148  -4632491.73344  23139626.5234   23139618.8874
      2645.0004
 -11382901.46649  -8858541.49448  20798233.6174   20798228.3284
      -266.9844
 04  9  8 16 43 30.0000000  0  6G 1G11G14G20G23G25
 -13653704.19149 -10628072.51947  20786149.9384   20786144.8244
       801.2814
  -4293202.80649  -3337020.26047  21765771.9224   21765766.3834
     -1400.4224
  16371216.81048  12746381.62443  23616341.1174   23616336.0824
     -2813.1564
 -12686552.01449  -9879544.48146  21835120.7584   21835114.5704
      2464.6414
  -6007122.91148  -4663395.62544  23132079.3914   23132072.0984
      2642.8754
 -11378837.92849  -8855375.10547  20799007.1414   20799001.2584
      -275.0314
 04  9  8 16 43 45.0000000  0  6G 1G11G14G20G23G25
 -13665689.62349 -10637411.81247  20783869.0634   20783863.9774
       796.7664
  -4272138.13249  -3320606.23147  21769780.3984   21769775.0354
     -1408.3124
  16413417.17848  12779265.01243  23624371.1564   23624366.5084
     -2813.6414
 -12723496.46049  -9908332.35146  21828090.4774   21828084.7154
      2461.1564
  -6046746.99548  -4694271.50044  23124539.2114   23124531.9104
      2640.3444
 -11374649.86049  -8852111.66547  20799803.8594   20799798.3594
      -283.4374
 04  9  8 16 44  0.0000000  0  6G 1G11G14G20G23G25
 -13677608.25449 -10646699.06347  20781600.8594   20781596.1644
       792.2344
  -4250957.89549  -3304102.15847  21773811.1724   21773805.2384
     -1415.9694
  16455622.86947  12812152.50543  23632402.8754   23632397.6644
     -2814.0474
 -12760391.64949  -9937081.83946  21821069.6174   21821063.6024
      2457.9064
  -6086335.41347  -4725119.61844  23117005.6024   23116998.5274
      2637.9224
 -11370337.70649  -8848751.54948  20800624.8204   20800618.9224
      -291.6874
 04  9  8 16 44 15.0000000  0  6G 1G11G14G20G23G25
 -13689461.02449 -10655934.97247  20779345.6024   20779340.1954
       788.0784
  -4229663.09449  -3287508.83546  21777863.2974   21777857.5984
     -1423.4064
  16497833.00248  12845043.50443  23640435.0164   23640429.9964
     -2814.1094
 -12797238.15249  -9965793.38946  21814058.0704   21814051.9454
      2454.9224
  -6125888.99547  -4755940.56344  23109478.7344   23109472.1914
      2635.7664
 -11365902.35149  -8845295.43147  20801468.4924   20801462.7814
      -299.7344
 04  9  8 16 44 30.0000000  0  6G 1G11G14G20G23G25
 -13701246.66449 -10665118.58047  20777102.6564   20777097.5594
       783.5784
  -4208252.65949  -3270825.39246  21781937.6484   21781932.1334
     -1431.1414
  16540048.76148  12877938.87843  23648468.4774   23648463.5594
     -2814.4694
 -12834034.41549  -9994465.78646  21807055.4534   21807049.6024
      2451.5164
  -6165406.34047  -4786733.27344  23101959.3914   23101951.8794
      2633.3444
 -11361342.52949  -8841742.32347  20802336.6174   20802330.5394
      -308.0164
 04  9  8 16 44 45.0000000  0  6G 1G11G14G20G23G25
 -13712966.32249 -10674250.78047  20774872.5234   20774867.0744
       778.9224
  -4186727.92749  -3254052.88047  21786033.6024   21786028.0664
     -1439.0004
  16582268.90848  12910837.64543  23656502.5314   23656498.1454
     -2814.9064
 -12870781.33949 -10023099.74346  21800063.1564   21800056.8984
      2447.9694
  -6204888.51547  -4817498.58344  23094446.4224   23094439.0704
      2630.8284
 -11356659.50249  -8838093.21247  20803227.3914   20803221.7854
      -316.5004
 04  9  8 16 45  0.0000000  0  6G 1G11G14G20G23G25
 -13724621.43649 -10683332.69147  20772654.7664   20772649.4344
       774.8594
  -4165090.50049  -3237192.56346  21790151.1484   21790145.4224
     -1446.2664
  16624492.04148  12943738.75643  23664537.7504   23664532.8524
     -2815.0164
 -12907480.09949 -10051696.17746  21793078.8054   21793073.1994
      2444.9694
  -6244336.86247  -4848237.54144  23086939.3134   23086931.4694
      2628.7664
 -11351854.78849  -8834349.28347  20804141.7344   20804135.9614
      -324.3594
 04  9  8 16 45 15.0000000  0  6G 1G11G14G20G23G25
 -13736210.92449 -10692363.45847  20770449.3054   20770444.0084
       770.1564
  -4143339.50149  -3220243.74846  21794290.0474   21794284.2894
     -1454.0944
  16666719.18447  12976643.01143  23672572.7424   23672568.3524
     -2815.5784
 -12944129.26349 -10080253.96146  21786105.2734   21786099.0554
      2441.3284
  -6283750.07047  -4878949.10144  23079438.9384   23079431.3954
      2626.0474
 -11346927.49449  -8830509.82847  20805079.3134   20805073.6994
      -332.8594
 04  9  8 16 45 30.0000000  0  6G 1G11G14G20G23G25
 -13747734.27249 -10701342.69247  20768256.2734   20768251.1604
       765.9534
  -4121474.51849  -3203206.10646  21798450.9694   21798444.9384
     -1461.5314
  16708950.82247  13009550.75443  23680609.4614   23680604.9184
     -2815.6094
 -12980728.11049 -10108772.53646  21779140.4384   21779134.6134
      2438.2034
  -6323127.61547  -4909632.88344  23071945.7274   23071938.1524
      2623.9694
 -11341876.96449  -8826574.34947  20806040.2194   20806034.6374
      -340.8284
 04  9  8 16 45 45.0000000  0  6G 1G11G14G20G23G25
 -13759192.67849 -10710271.32348  20766075.7344   20766070.6214
       761.8284
  -4099496.88749  -3186080.68746  21802633.0234   21802627.6954
     -1468.9064
  16751185.65948  13042460.98443  23688646.7424   23688642.2704
     -2815.7344
 -13017277.54349 -10137252.59846  21772185.6804   21772179.3914
      2435.0474
  -6362470.63447  -4940289.74444  23064458.7274   23064451.0634
      2621.7504
 -11336704.52649  -8822543.88147  20807024.6804   20807018.6684
      -348.8444
 04  9  8 16 46  0.0000000  0  6G 1G11G14G20G23G25
 -13770585.11149 -10719148.54547  20763907.8674   20763903.0634
       757.6094
  -4077405.82949  -3168866.88546  21806837.0084   21806831.6054
     -1476.2814
  16793424.63347  13075374.42843  23696684.9384   23696680.0124
     -2815.8124
 -13053776.26749 -10165693.16146  21765240.3524   21765234.3794
      2431.7974
  -6401777.99448  -4970918.83344  23056978.9534   23056970.5124
      2619.5164
 -11331409.14549  -8818417.60747  20808032.3284   20808026.5784
      -356.8284
 04  9  8 16 46 15.0000000  0  6G 1G11G14G20G23G25
 -13781912.54549 -10727975.11147  20761752.1564   20761746.8404
       752.8594
  -4055202.52049  -3151565.62746  21811062.2734   21811056.6024
     -1484.0314
  16835666.76747  13108290.35043  23704723.4304   23704718.6684
     -2816.3914
 -13090224.80249 -10194094.60746  21758304.1094   21758298.0864
      2428.0784
  -6441050.64448  -5001520.87544  23049505.7504   23049497.8444
      2616.7814
 -11325991.88849  -8814196.37147  20809063.2114   20809057.3834
      -365.3594
 04  9  8 16 46 30.0000000  0  6G 1G11G14G20G23G25
 -13793173.15949 -10736749.61747  20759609.6414   20759604.6604
       748.5314
  -4032885.12949  -3134175.46246  21815309.1564   21815303.8324
     -1491.5944
  16877913.89648  13141210.15643  23712762.5474   23712757.9064
     -2816.7504
 -13126621.11849 -10222455.36746  21751378.1644   21751372.4344
      2424.6564
  -6480286.55448  -5032094.28644  23042039.4304   23042031.5314
      2614.4694
 -11320451.01249  -8809878.80047  20810117.7734   20810112.4144
      -373.5314
 04  9  8 16 46 45.0000000  0  6G 1G11G14G20G23G25
 -13804370.29349 -10745474.65247  20757478.7114   20757473.6214
       744.5164
  -4010457.21449  -3116699.16946  21819576.9774   21819571.3794
     -1498.7194
  16920162.50847  13174131.12543  23720802.6564   23720797.6604
     -2816.4534
 -13162968.23349 -10250777.77746  21744461.3364   21744455.5904
      2421.6564
  -6519488.90348  -5062641.55144  23034579.2664   23034571.5984
      2612.4694
 -11314789.89149  -8805467.53447  20811194.9454   20811189.0744
      -381.2344
 04  9  8 16 47  0.0000000  0  6G 1G11G14G20G23G25
 -13815501.48749 -10754148.31647  20755360.6644   20755355.6844
       740.0164
  -3987916.49649  -3099134.98846  21823866.6724   21823861.0084
     -1506.4534
  16962415.17247  13207055.24943  23728842.2344   23728837.9734
     -2816.9374
 -13199263.41849 -10279059.73246  21737554.9534   21737549.1374
      2418.0004
  -6558655.25548  -5093160.75445  23027126.2344   23027118.5554
      2610.0474
 -11309006.17549  -8800960.74347  20812295.5394   20812289.5394
      -389.5624
 04  9  8 16 47 15.0000000  0  6G 1G11G14G20G23G25
 -13826568.96149 -10762772.32847  20753254.7504   20753249.5944
       735.3594
  -3965265.46849  -3081484.85646  21828176.6564   21828170.9344
     -1514.0314
  17004669.53747  13239980.66443  23736883.3594   23736879.3874
     -2817.3594
 -13235508.63549 -10307302.76146  21730657.7584   21730651.8674
      2414.3754
  -6597787.61348  -5123653.47944  23019679.3914   23019672.0394
      2607.3914
 -11303102.17849  -8796360.23447  20813418.7504   20813413.3714
      -397.9534
 04  9  8 16 47 30.0000000  0  6G 1G11G14G20G23G25
 -13837569.01449 -10771343.79847  20751161.6644   20751156.4024
       731.1414
  -3942500.51249  -3063745.93646  21832508.4384   21832502.7774
     -1521.4534
  17046929.25647  13272910.27843  23744925.0084   23744920.6644
     -2817.4224
 -13271699.82749 -10335503.67946  21723770.8054   21723764.4774
      2410.9534
  -6636882.25348  -5154116.82544  23012239.9614   23012232.3834
      2605.0634
 -11297074.15449  -8791663.06947  20814566.3364   20814560.7304
      -405.9064
 04  9  8 16 47 45.0000000  0  6G 1G11G14G20G23G25
 -13848505.76249 -10779865.94047  20749080.4144   20749075.1374
       727.0634
  -3919626.04849  -3045921.68846  21836861.3524   21836855.6844
     -1528.4694
  17089190.15247  13305840.84243  23752966.4064   23752962.3284
     -2817.3124
 -13307840.99949 -10363665.62646  21716893.0004   21716887.5594
      2407.8754
  -6675943.21448  -5184553.90644  23004806.9454   23004799.0204
      2603.0784
 -11290926.47049  -8786872.67147  20815735.8054   20815730.3404
      -413.7344
 04  9  8 16 48  0.0000000  0  6G 1G11G14G20G23G25
 -13859379.72149 -10788339.13947  20747011.2194   20747005.8954
       722.6724
  -3896642.63549  -3028012.55346  21841234.9534   21841229.0944
     -1535.9844
  17131451.72347  13338771.88242  23761009.1024   23761004.5474
     -2817.5314
 -13343932.23049 -10391788.65946  21710025.4384   21710019.2194
      2404.2974
  -6714970.78548  -5214964.98444  22997380.2344   22997372.8014
      2600.5314
 -11284659.62549  -8781989.40147  20816928.7584   20816923.1994
      -421.9224
 04  9  8 16 48 15.0000000  0  6G 1G11G14G20G23G25
 -13870188.80349 -10796761.81047  20744954.2194   20744948.6454
       718.4064
  -3873548.51749  -3010017.14446  21845629.7194   21845623.8984
     -1543.4224
  17173715.91547  13371704.96942  23769052.0164   23769047.2114
     -2817.7814
 -13379971.19849 -10419870.96146  21703167.3204   21703161.2114
      2400.7504
  -6753962.88947  -5245348.41445  22989960.1564   22989952.6374
      2598.1724
 -11278271.56749  -8777011.70047  20818144.0864   20818138.5234
      -430.0164
 04  9  8 16 48 30.0000000  0  6G 1G11G14G20G23G25
 -13880933.20849 -10805134.05947  20742909.3204   20742904.2344
       714.0784
  -3850343.97649  -2991935.69646  21850045.5394   21850039.2034
     -1550.6724
  17215982.55847  13404639.98542  23777094.7504   23777090.0904
     -2817.8444
 -13415957.79549 -10447912.46146  21696319.1094   21696313.0944
      2397.3444
  -6792919.69348  -5275704.35044  22982546.6884   22982539.5274
      2595.9064
 -11271762.61649  -8771939.79047  20819382.7664   20819377.1214
      -437.9374
 04  9  8 16 48 45.0000000  0  6G 1G11G14G20G23G25
 -13891616.16149 -10813458.44047  20740876.4454   20740870.8754
       710.1564
  -3827032.37749  -2973770.83346  21854481.5234   21854475.5474
     -1557.6254
  17258248.36948  13437574.33042  23785137.7194   23785133.2464
     -2817.6414
 -13451894.93349 -10475915.41646  21689480.9454   21689474.8524
      2394.1564
  -6831844.21647  -5306035.15744  22975140.2114   22975132.9384
      2593.7974
 -11265136.01349  -8766776.20847  20820643.5554   20820637.6954
      -445.6564
 04  9  8 16 49  0.0000000  0  6G 1G11G14G20G23G25
 -13902235.88349 -10821733.54147  20738855.6954   20738850.1804
       705.8914
  -3803612.09648  -2955521.27646  21858938.1804   21858932.2584
     -1564.8754
  17300515.26347  13470509.54542  23793180.8754   23793176.4774
     -2817.7814
 -13487780.46649 -10503878.17247  21682652.1484   21682646.2544
      2390.6564
  -6870734.52648  -5336339.27045  22967739.1724   22967731.8874
      2591.6414
 -11258390.00149  -8761519.56947  20821927.3984   20821921.3714
      -453.6724
 04  9  8 16 49 15.0000000  0  6G 1G11G14G20G23G25
 -13912794.94049 -10829961.39047  20736846.5004   20736841.2464
       701.5634
  -3780085.94048  -2937189.24346  21863415.3284   21863409.0824
     -1572.2814
  17342780.48848  13503443.43943  23801223.5004   23801219.2074
     -2817.8754
 -13523616.67648 -10531802.49346  21675832.5554   21675826.3244
      2387.0784
  -6909593.12248  -5366618.68944  22960344.9144   22960337.5164
      2589.1414
 -11251527.22049  -8756171.96047  20823233.4924   20823227.7934
      -461.7664
 04  9  8 16 49 30.0000000  0  6G 1G11G14G20G23G25
 -13923290.42349 -10838139.67947  20734849.1884   20734843.6054
       697.3754
  -3756451.14848  -2918772.52946  21867912.6804   21867906.4734
     -1579.5474
  17385046.88347  13536378.26942  23809266.4924   23809262.2274
     -2817.9694
 -13559400.40848 -10559685.90247  21669023.1174   21669017.0594
      2383.5944
  -6948416.98048  -5396871.02344  22952957.0234   22952949.0474
      2586.9064
 -11244544.91349  -8750731.19547  20824562.3444   20824556.2544
      -469.7034
 04  9  8 16 49 45.0000000  0  6G 1G11G14G20G23G25
 -13933722.67149 -10846268.69947  20732863.9454   20732858.7544
       693.1414
  -3732708.47648  -2900271.75846  21872430.7424   21872425.1214
     -1586.6564
  17427314.01847  13569313.65042  23817309.7664   23817305.5984
     -2818.0474
 -13595131.74148 -10587528.49547  21662223.6954   21662217.7074
      2380.1884
  -6987206.43148  -5427096.54344  22945575.2194   22945567.8634
      2584.5784
 -11237443.52549  -8745197.64247  20825913.4534   20825908.1454
      -477.5784
 04  9  8 16 50  0.0000000  0  6G 1G11G14G20G23G25
 -13944090.82349 -10854347.77247  20730891.0704   20730885.6954
       689.3754
  -3708857.00848  -2881686.21846  21876969.6254   21876963.9264
     -1593.4224
  17469582.74247  13602250.29142  23825353.4224   23825349.3714
     -2817.6094
 -13630809.53849 -10615329.36747  21655434.6094   21655428.8014
      2377.1094
  -7025960.52248  -5457294.52944  22938200.5164   22938193.4654
      2582.7974
 -11230222.17049  -8739570.61847  20827288.0704   20827282.5234
      -485.1254
 04  9  8 16 50 15.0000000  0  6G 1G11G14G20G23G25
 -13954400.03849 -10862380.92147  20728929.0944   20728924.1724
       685.1094
  -3684902.13148  -2863020.09246  21881527.7974   21881522.2504
     -1600.6414
  17511847.85047  13635184.12542  23833396.6954   23833392.7194
     -2817.7974
 -13666438.67849 -10643092.32547  21648654.5864   21648648.7934
      2373.4534
  -7064684.34648  -5487468.91544  22930831.6484   22930824.2464
      2580.4384
 -11222886.13449  -8733854.22147  20828684.0634   20828678.5824
      -493.0624
 04  9  8 16 50 30.0000000  0  6G 1G11G14G20G23G25
 -13964645.40449 -10870364.31547  20726979.4454   20726974.0824
       680.7814
  -3660839.11849  -2844269.70446  21886107.0554   21886101.8094
     -1608.0004
  17554114.30047  13668118.97942  23841438.9614   23841435.8754
     -2817.8914
 -13702013.88149 -10670813.25347  21641884.9454   21641879.1644
      2369.7344
  -7103372.74848  -5517615.70545  22923469.7034   22923461.4884
      2577.8914
 -11215430.56149  -8728044.68347  20830102.5314   20830096.5394
      -501.1874
 04  9  8 16 50 45.0000000  0  6G 1G11G14G20G23G25
 -13974828.12149 -10878298.90347  20725041.6644   20725036.3954
       676.6094
  -3636669.41048  -2825436.18146  21890706.2114   21890700.4384
     -1615.0314
  17596380.86848  13701053.94543  23849482.6954   23849478.4104
     -2817.8754
 -13737536.00749 -10698492.83047  21635125.2814   21635119.6334
      2366.2344
  -7142026.90148  -5547735.80544  22916114.0784   22916105.8594
      2575.6254
 -11207856.83249  -8722143.08047  20831543.5784   20831537.8554
      -509.0164
 04  9  8 16 51  0.0000000  0  6G 1G11G14G20G23G25
 -13984946.94549 -10886183.69947  20723116.2034   20723111.0904
       672.4534
  -3612391.81449  -2806518.58146  21895326.1804   21895320.6724
     -1622.0784
  17638648.62848  13733989.80842  23857525.7424   23857521.7734
     -2817.9534
 -13773003.60749 -10726129.91847  21628376.1094   21628369.7934
      2362.6564
  -7180645.49248  -5577828.19144  22908765.3754   22908757.5744
      2573.3594
 -11200163.74949  -8716148.46847  20833007.2974   20833001.9574
      -516.8444
 04  9  8 16 51 15.0000000  0  6G 1G11G14G20G23G25
 -13995001.39549 -10894018.33347  20721203.1094   20721197.7074
       668.0634
  -3588006.18249  -2787516.81246  21899966.8444   21899961.3054
     -1629.3914
  17680918.16847  13766927.09542  23865569.4774   23865565.0514
     -2818.1254
 -13808415.91649 -10753723.90947  21621637.2504   21621631.2894
      2358.9224
  -7219227.84348  -5607892.35144  22901422.8674   22901415.6484
      2570.9384
 -11192350.93949  -8710060.56647  20834494.4774   20834488.5164
      -524.8914
 04  9  8 16 51 30.0000000  0  6G 1G11G14G20G23G25
 -14004991.58649 -10901802.89347  20719301.7344   20719296.5984
       663.8134
  -3563512.74849  -2768431.03846  21904627.9694   21904622.1994
     -1636.5784
  17723189.38847  13799865.66242  23873613.2274   23873609.0864
     -2818.2034
 -13843772.61149 -10781274.57847  21614909.1174   21614903.2544
      2355.2344
  -7257774.04448  -5637928.32844  22894087.9304   22894081.0164
      2568.5164
 -11184418.43649  -8703879.39747  20836003.6174   20835997.9344
      -532.8914
 04  9  8 16 51 45.0000000  0  6G 1G11G14G20G23G25
 -14014917.29149 -10909537.20547  20717413.3834   20717408.2114
       659.4844
  -3538911.48749  -2749261.23746  21909309.2034   21909303.0394
     -1643.7974
  17765462.46347  13832805.71742  23881657.5634   23881653.0704
     -2818.2664
 -13879073.18549 -10808781.51747  21608191.5164   21608185.6024
      2351.5004
  -7296283.64848  -5667935.78445  22886759.6884   22886752.5474
      2566.0004
 -11176366.10749  -8697604.85047  20837535.9844   20837530.1644
      -540.8914
 04  9  8 16 52  0.0000000  0  6G 1G11G14G20G23G25
 -14024778.16249 -10917221.00547  20715536.7584   20715531.2974
       655.4694
  -3514202.22249  -2730007.27946  21914011.1724   21914005.0984
     -1650.7344
  17807737.69447  13865747.37842  23889701.8444   23889697.8524
     -2818.1724
 -13914317.04149 -10836244.25247  21601484.8594   21601479.1804
      2347.9694
  -7334756.31348  -5697914.47645  22879438.7034   22879431.4104
      2563.8284
 -11168193.73949  -8691236.77247  20839091.1644   20839085.8404
      -548.6564
 04  9  8 16 52 15.0000000  0  6G 1G11G14G20G23G25
 -14034576.82049 -10924856.31447  20713672.0634   20713666.8634
       651.2504
  -3489387.74549  -2710671.33346  21918733.1804   21918727.4344
     -1657.6414
  17850012.34147  13898688.62242  23897747.5394   23897742.2774
     -2818.1874
 -13949506.61949 -10863664.69647  21594788.5394   21594782.4024
      2344.2664
  -7373194.57348  -5727866.33145  22872123.8674   22872117.1604
      2561.5314
 -11159904.12749  -8684777.33747  20840668.3674   20840663.0664
      -556.4534
 04  9  8 16 52 30.0000000  0  6G 1G11G14G20G23G25
 -14044312.03049 -10932442.18447  20711819.9454   20711814.1174
       646.9844
  -3464467.01149  -2691252.60046  21923475.7344   21923469.7114
     -1664.9534
  17892287.63147  13931630.38342  23905792.0084   23905786.7504
     -2818.3284
 -13984640.15349 -10891041.47447  21588102.6564   21588096.7154
      2340.4844
  -7411597.02348  -5757790.29745  22864816.7424   22864809.0554
      2559.0164
 -11151496.00649  -8678225.55547  20842268.7034   20842262.9734
      -564.4844
 04  9  8 16 52 45.0000000  0  6G 1G11G14G20G23G25
 -14053984.12349 -10939978.88647  20709978.8204   20709973.2894
       642.8754
  -3439440.63149  -2671751.53546  21928237.8284   21928232.0274
     -1671.7504
  17934563.18047  13964572.32642  23913837.0004   23913831.5824
     -2818.1874
 -14019717.86549 -10918374.74647  21581427.9304   21581421.9884
      2336.8594
  -7449963.93848  -5787686.57645  22857515.4774   22857508.3284
      2556.8134
 -11142969.83449  -8671581.78647  20843891.3204   20843885.5204
      -572.2194
 04  9  8 16 53  0.0000000  0  6G 1G11G14G20G23G25
 -14063594.82549 -10947467.75047  20708150.0474   20708144.6844
       638.5004
  -3414310.51049  -2652169.63846  21933019.9224   21933014.0004
     -1678.9374
  17976837.25847  13997513.14442  23921881.4924   23921875.6254
     -2818.3914
 -14054741.10649 -10945665.58347  21574763.0554   21574756.8754
      2332.9224
  -7488296.93648  -5817556.43345  22850221.0084   22850214.0824
      2554.2974
 -11134327.31649  -8664847.36747  20845535.6414   20845530.5084
      -580.1874
 04  9  8 16 53 15.0000000  0  6G 1G11G14G20G23G25
 -14073143.45349 -10954908.23247  20706333.2114   20706328.0204
       634.4064
  -3389076.05249  -2632506.43946  21937822.3054   21937816.3594
     -1685.8444
  18019110.55847  14030453.33542  23929925.6094   23929920.1024
     -2818.3444
 -14089708.88849 -10972913.19747  21568108.9844   21568103.0354
      2329.1564
  -7526595.17648  -5847399.19345  22842932.9844   22842925.7424
      2551.8914
 -11125567.96349  -8658021.89148  20847202.7034   20847197.0704
      -587.9844
 04  9  8 16 53 30.0000000  0  6G 1G11G14G20G23G25
 -14082629.51249 -10962299.97147  20704528.0004   20704522.7894
       630.2814
  -3363737.15249  -2612761.84246  21942643.9144   21942638.2974
     -1692.7814
  18061383.40147  14063393.15542  23937969.5394   23937965.1524
     -2818.2194
 -14124620.48549 -11000117.03347  21561465.1484   21561459.8834
      2325.5004
  -7564858.14448  -5877214.45345  22835651.6564   22835644.2034
      2549.6564
 -11116691.46549  -8651105.14347  20848891.7344   20848886.1914
      -595.7504
 04  9  8 16 53 45.0000000  0  6G 1G11G14G20G23G25
 -14092052.75449 -10969642.75848  20702734.9304   20702729.9304
       626.3754
  -3338293.65948  -2592935.77246  21947485.4384   21947479.8874
     -1699.4694
  18103656.09147  14096332.88342  23946013.9384   23946008.8554
     -2817.8754
 -14159475.37848 -11027276.68947  21554832.4614   21554826.6684
      2322.0634
  -7603085.50248  -5907002.00345  22828377.3984   22828370.2544
      2547.5314
 -11107697.67749  -8644097.01347  20850603.4304   20850597.7974
      -603.2034
 04  9  8 16 54  0.0000000  0  6G 1G11G14G20G23G25
 -14101413.19149 -10976936.60947  20700953.5554   20700948.1644
       621.9694
  -3312745.74148  -2573028.31446  21952347.1804   21952341.3164
     -1706.6414
  18145928.62147  14129272.49842  23954058.0554   23954053.5944
     -2818.1724
 -14194273.18649 -11054391.85947  21548210.8754   21548204.6214
      2317.9694
  -7641277.13648  -5936761.67645  22821109.9534   22821102.2894
      2544.9064
 -11098586.52249  -8636997.40847  20852337.0554   20852331.1844
      -611.2664
 04  9  8 16 54 15.0000000  0  6G 1G11G14G20G23G25
 -14110713.85449 -10984183.86847  20699183.6334   20699178.8054
       617.9694
  -3287096.67049  -2553042.03446  21957228.0164   21957222.3834
     -1713.4374
  18188197.85248  14162209.50142  23962101.9614   23962097.3364
     -2817.9534
 -14229016.69249 -11081464.71347  21541599.3204   21541593.4344
      2314.3284
  -7679435.95748  -5966495.80645  22813848.1414   22813841.1884
      2542.7814
 -11089361.25449  -8629808.89247  20854092.6954   20854086.8134
      -618.9064
 04  9  8 16 54 30.0000000  0  6G 1G11G14G20G23G25
 -14119952.11749 -10991382.52047  20697425.7814   20697420.5514
       613.5634
  -3261344.09049  -2532975.10946  21962128.8594   21962122.9534
     -1720.5474
  18230466.37547  14195145.98642  23970145.6094   23970140.6764
     -2818.1414
 -14263702.88648 -11108492.91947  21534998.7504   21534993.0554
      2310.2034
  -7717559.19448  -5996202.19945  22806593.5394   22806586.5274
      2540.0474
 -11080019.30949  -8622529.46447  20855870.3984   20855864.9774
      -626.9534
 04  9  8 16 54 45.0000000  0  6G 1G11G14G20G23G25
 -14129127.09149 -10998531.84747  20695679.6954   20695674.7934
       609.5944
  -3235487.15848  -2512826.87346  21967049.5864   21967043.9304
     -1727.2664
  18272735.19247  14228082.66842  23978188.5314   23978184.3094
     -2817.8284
 -14298330.61348 -11135475.55047  21528409.1024   21528403.4534
      2306.5784
  -7755645.96648  -6025880.17245  22799345.4614   22799338.2304
      2537.9534
 -11070559.82449  -8615158.43047  20857670.4064   20857664.7034
      -634.5314
 04  9  8 16 55  0.0000000  0  6G 1G11G14G20G23G25
 -14138239.90349 -11005632.74847  20693945.5084   20693940.5124
       605.4224
  -3209527.40648  -2492598.51146  21971989.2974   21971983.3874
     -1734.0164
  18315003.00947  14261018.64142  23986232.4454   23986228.2734
     -2817.7034
 -14332900.77748 -11162413.33547  21521830.5394   21521825.0594
      2302.6724
  -7793697.25748  -6055530.50845  22792105.1024   22792097.8244
      2535.5004
 -11060984.18049  -8607696.88647  20859492.6024   20859486.7304
      -642.2344
 04  9  8 16 55 15.0000000  0  6G 1G11G14G20G23G25
 -14147290.53849 -11012685.18747  20692223.1254   20692218.3554
       601.7344
  -3183464.81749  -2472290.00746  21976948.7114   21976942.5904
     -1740.5004
  18357269.94347  14293953.86442  23994275.5474   23994270.5944
     -2817.3754
 -14367412.98348 -11189305.95147  21515263.3204   21515257.5594
      2299.2814
  -7831712.95748  -6085153.10445  22784870.8594   22784863.5474
      2533.5784
 -11051292.26449  -8600144.75847  20861337.0084   20861330.9414
      -649.6414
 04  9  8 16 55 30.0000000  0  6G 1G11G14G20G23G25
 -14156279.87749 -11019689.86547  20690512.6954   20690507.3874
       597.3754
  -3157300.62348  -2451902.35646  21981927.4144   21981922.0664
     -1747.4224
  18399534.98047  14326887.63342  24002318.5704   24002313.1524
     -2817.4694
 -14401867.74648 -11216153.81846  21508706.9534   21508700.8794
      2295.1414
  -7869693.76548  -6114748.50245  22777643.6174   22777635.9024
      2531.0784
 -11041485.18049  -8592502.86947  20863203.1334   20863197.4884
      -657.4374
 04  9  8 16 55 45.0000000  0  6G 1G11G14G20G23G25
 -14165206.73449 -11026645.86147  20688813.7274   20688808.6484
       593.4384
  -3131033.73648  -2431434.65746  21986926.1484   21986920.6334
     -1754.1094
  18441799.30047  14359820.81042  24010361.2114   24010355.9304
     -2817.1564
 -14436263.60548 -11242955.77547  21502161.5234   21502155.6844
      2291.5004
  -7907638.53849  -6144315.84145  22770422.7664   22770415.0004
      2528.8444
 -11031561.85449  -8584770.41747  20865091.0474   20865085.5594
      -665.0624
 04  9  8 16 56  0.0000000  0  6G 1G11G14G20G23G25
 -14174072.29449 -11033554.08747  20687127.2894   20687121.9384
       588.9534
  -3104665.53248  -2410888.01846  21991943.7034   21991938.0474
     -1761.3444
  18484061.68746  14392752.49642  24018402.9924   24018398.3594
     -2817.5004
 -14470601.45248 -11269712.54347  21495626.9924   21495620.9264
      2287.1414
  -7945548.26848  -6173855.86645  22763208.6644   22763201.0124
      2526.0314
 -11021523.45449  -8576948.28947  20867001.9534   20866995.7854
      -673.1564
 04  9  8 16 56 15.0000000  0  6G 1G11G14G20G23G25
 -14182873.97849 -11040412.53947  20685452.0234   20685447.1454
       584.5784
  -3078193.83948  -2390260.75246  21996981.0084   21996975.5904
     -1768.3124
  18526324.74247  14425684.70343  24026446.5004   24026441.1524
     -2817.5944
 -14504878.45748 -11296421.88247  21489104.2504   21489098.7854
      2283.0004
  -7983420.33648  -6203366.53845  22756001.7974   22755994.6454
      2523.4384
 -11011367.62149  -8569034.64948  20868934.4614   20868928.8674
      -681.0004
 04  9  8 16 56 30.0000000  0  6G 1G11G14G20G23G25
 -14191614.79649 -11047223.56247  20683789.0394   20683783.8914
       580.8754
  -3051621.69549  -2369555.19846  22002037.7424   22002032.1524
     -1774.6874
  18568585.44447  14458615.09043  24034487.7504   24034482.7234
     -2817.2034
 -14539097.36048 -11323085.97346  21482592.7504   21482586.6914
      2279.4224
  -8021257.62948  -6232850.13045  22748801.7194   22748794.2344
      2521.5474
 -11001097.29249  -8561031.81048  20870888.6644   20870883.6564
      -688.3284
 04  9  8 16 56 45.0000000  0  6G 1G11G14G20G23G25
 -14200293.42549 -11053986.13947  20682137.0784   20682131.8054
       576.3754
  -3024948.01949  -2348770.53946  22007113.3284   22007107.8404
     -1781.8284
  18610845.04247  14491544.58242  24042529.3364   24042524.8874
     -2817.4374
 -14573256.42248 -11349703.41746  21476092.5704   21476086.3444
      2275.1254
  -8059058.67648  -6262305.46345  22741608.3054   22741600.7894
      2518.7504
 -10990711.26049  -8552938.80447  20872865.1334   20872859.5044
      -696.4224
 04  9  8 16 57  0.0000000  0  6G 1G11G14G20G23G25
 -14208912.05149 -11060701.94647  20680497.2814   20680491.9574
       572.6254
  -2998175.13049  -2327908.57046  22012208.5314   22012202.4384
     -1788.0784
  18653101.37846  14524471.55342  24050570.7274   24050565.9494
     -2816.9224
 -14607357.58948 -11376275.75046  21469603.5394   21469597.7384
      2271.5474
  -8096825.70248  -6291734.29545  22734421.2734   22734413.9384
      2516.7504
 -10980211.96949  -8544757.53348  20874863.2424   20874857.4844
      -703.6874
 04  9  8 16 57 15.0000000  0  6G 1G11G14G20G23G25
 -14217467.35449 -11067368.41547  20678869.0314   20678863.2974
       568.5314
  -2971300.05148  -2306966.96546  22017322.2974   22017316.7974
     -1794.7814
  18695357.60547  14557398.46142  24058611.7194   24058607.3324
     -2816.8444
 -14641397.29548 -11402800.18446  21463125.7734   21463120.0784
      2267.5004
  -8134555.12148  -6321133.82145  22727241.4694   22727233.7894
      2514.2664
 -10969596.18749  -8536485.50447  20876883.2344   20876877.5274
      -711.3284
 04  9  8 16 57 30.0000000  0  6G 1G11G14G20G23G25
 -14225959.52549 -11073985.69147  20677253.0234   20677248.0704
       564.0164
  -2944323.03748  -2285945.93346  22022456.1024   22022450.1454
     -1801.8284
  18737613.75347  14590325.27742  24066653.1644   24066648.2464
     -2817.1414
 -14675375.33748 -11429276.57646  21456659.6884   21456653.6604
      2263.1724
  -8172247.03748  -6350504.12045  22720069.5084   22720061.2734
      2511.5474
 -10958864.12749  -8528122.86448  20878925.5164   20878919.7894
      -719.3444
 04  9  8 16 57 45.0000000  0  6G 1G11G14G20G23G25
 -14234388.22849 -11080553.49947  20675649.2664   20675644.1764
       559.7344
  -2917244.11349  -2264845.50146  22027609.0314   22027603.1174
     -1808.7194
  18779869.91247  14623252.11042  24074694.1254   24074689.6884
     -2817.2034
 -14709290.99848 -11455704.35547  21450205.8984   21450200.0314
      2258.9064
  -8209901.02648  -6379844.87045  22712904.1414   22712896.4104
      2509.0004
 -10948015.60849  -8519669.47348  20880989.8594   20880984.1334
      -727.1724
 04  9  8 16 58  0.0000000  0  6G 1G11G14G20G23G25
 -14242752.91349 -11087071.43847  20674057.5704   20674052.1724
       555.5314
  -2890062.87949  -2243665.33446  22032780.9774   22032775.9264
     -1815.4224
  18822126.69446  14656179.46342  24082734.7424   24082730.8484
     -2817.2344
 -14743143.54849 -11482082.96246  21443764.0004   21443757.8134
      2254.7504
  -8247516.45048  -6409155.56545  22705745.8834   22705738.3054
      2506.4384
 -10937050.20949  -8511125.01747  20883076.2424   20883070.7704
      -734.8444
 04  9  8 16 58 15.0000000  0  6G 1G11G14G20G23G25
 -14251053.98549 -11093539.80847  20672477.9454   20672472.7624
       551.1094
  -2862780.04048  -2222405.99346  22037973.3134   22037967.1174
     -1822.4224
  18864383.69246  14689106.95042  24090775.5314   24090772.3204
     -2817.2504
 -14776933.11949 -11508412.49446  21437333.9534   21437327.8094
      2250.4534
  -8285093.66148  -6438436.48245  22698595.0554   22698587.5664
      2503.7034
 -10925968.35649  -8502489.81247  20885185.2114   20885179.6374
      -742.7664
 04  9  8 16 58 30.0000000  0  6G 1G11G14G20G23G25
 -14259291.21049 -11099958.41547  20670910.2344   20670905.2194
       547.2974
  -2835395.47548  -2201067.38646  22043184.1174   22043178.6484
     -1828.7974
  18906641.02946  14722034.68842  24098817.5634   24098813.5824
     -2816.9064
 -14810659.15349 -11534692.50947  21430916.4064   21430910.3874
      2246.5634
  -8322632.36848  -6467687.38645  22691451.7664   22691444.2814
      2501.4694
 -10914769.97849  -8493763.80047  20887316.1334   20887310.6644
      -750.1254
 04  9  8 16 58 45.0000000  0  6G 1G11G14G20G23G25
 -14267468.30149 -11106330.17248  20669354.2504   20669349.1374
       543.1564
  -2807913.09348  -2179652.55646  22048413.7504   22048408.1524
     -1835.4224
  18948895.01246  14754959.84342  24106858.1564   24106853.7854
     -2816.8124
 -14844324.93749 -11560925.57747  21424510.0084   21424504.2384
      2242.3284
  -8360136.10948  -6496911.07745  22684314.9304   22684307.3204
      2499.1254
 -10903458.85349  -8484949.94047  20889468.6804   20889463.4184
      -757.7974
 04  9  8 16 59  0.0000000  0  6G 1G11G14G20G23G25
 -14275584.93049 -11112654.82347  20667809.7974   20667804.4264
       538.6414
  -2780332.76448  -2158161.41146  22053662.1414   22053656.6604
     -1842.4064
  18991146.03646  14787882.64542  24114898.2194   24114893.8054
     -2817.0624
 -14877929.93249 -11587111.28047  21418114.8984   21418108.7664
      2237.7664
  -8397604.45647  -6526107.16845  22677185.6414   22677177.3164
      2496.1564
 -10892034.79949  -8476048.09848  20891642.7344   20891637.0904
      -765.8444
 04  9  8 16 59 15.0000000  0  6G 1G11G14G20G23G25
 -14283637.23149 -11118929.33947  20666277.5084   20666271.9344
       534.7664
  -2752650.91749  -2136591.14946  22058929.9384   22058924.2074
     -1848.7034
  19033397.90646  14820806.20142  24122938.9774   24122934.4694
     -2816.7504
 -14911469.90749 -11613246.31546  21411732.3984   21411726.6804
      2233.8444
  -8435033.38748  -6555272.53845  22670062.4144   22670054.9414
      2494.0634
 -10880494.04349  -8467055.29147  20893838.7894   20893832.8284
      -773.1414
 04  9  8 16 59 30.0000000  0  6G 1G11G14G20G23G25
 -14291625.87149 -11125154.24947  20664757.4384   20664752.3094
       530.4534
  -2724868.37549  -2114942.43246  22064216.7114   22064210.9924
     -1855.5004
  19075649.99746  14853729.86542  24130978.7344   24130975.0124
     -2816.7814
 -14944945.19449 -11639330.94547  21405362.6174   21405356.1024
      2229.5474
  -8472423.48148  -6584407.66945  22662947.2034   22662939.2734
      2491.3444
 -10868837.31349  -8457972.13448  20896057.0554   20896051.3914
      -781.0004
 04  9  8 16 59 45.0000000  0  6G 1G11G14G20G23G25
 -14299551.45149 -11131330.02547  20663249.1644   20663244.1134
       526.3444
  -2696986.03848  -2093215.95146  22069522.3674   22069516.8134
     -1862.0624
  19117901.57346  14886653.11642  24139019.2734   24139014.9924
     -2816.6874
 -14978356.20849 -11665365.49347  21399004.7584   21398998.1334
      2225.3134
  -8509775.40748  -6613513.03745  22655839.4924   22655831.9884
      2488.9064
 -10857065.32449  -8448799.14948  20898297.4924   20898291.6884
      -788.5474
 04  9  8 17  0  0.0000000  0  6G 1G11G14G20G23G25
 -14307414.15449 -11137456.80847  20661752.4384   20661747.4344
       522.3134
  -2669004.15248  -2071411.90846  22074847.2424   22074841.8594
     -1868.5164
  19160152.54146  14919575.92742  24147059.7034   24147054.5744
     -2816.4374
 -15011702.76849 -11691349.81847  21392658.9774   21392652.8594
      2221.1724
  -8547089.10348  -6642588.61645  22648738.6804   22648731.1134
      2486.5474
 -10845178.39649  -8439536.62748  20900559.3674   20900553.5474
      -796.0474
 04  9  8 17  0 15.0000000  0  6G 1G11G14G20G23G25
 -14315214.56849 -11143535.05847  20660268.3444   20660263.2544
       517.9384
  -2640923.76548  -2049531.09946  22080190.6414   22080185.7344
     -1875.2814
  19202402.19546  14952497.68842  24155098.7504   24155094.9304
     -2816.5314
 -15044985.09149 -11717284.09347  21386325.4144   21386319.6644
      2216.6884
  -8584365.01248  -6671634.75745  22641645.3524   22641638.0704
      2483.8284
 -10833177.24749  -8430185.08148  20902843.0394   20902837.1994
      -803.8594
